GFSSE_925_thetae_000.txt.gz
Theta_e
340 338 342 346 341 341 342 340 338 335 332 328 332 333 336 336 333 331 333 333 328 328 329 332 334 336 337 337 336 333 331 329 328 329 325 323 322 325 332 332 325 331 332
340 338 343 344 342 344 343 340 336 334 330 329 329 332 331 330 330 329 330 331 329 328 328 330 331 332 334 334 334 332 330 329 328 328 325 322 324 324 329 330 328 330 336
339 341 340 342 340 340 341 339 335 333 331 332 330 328 329 330 330 328 330 331 328 328 329 328 328 329 329 332 331 330 329 329 326 326 322 323 325 327 330 328 327 330 334
339 342 343 343 339 338 340 337 335 335 333 331 330 330 330 331 331 329 329 328 328 328 328 328 327 327 328 328 330 331 331 328 327 327 325 324 325 331 330 330 329 329 331
337 343 346 339 336 340 337 332 334 335 333 331 330 329 331 333 336 334 330 328 328 327 326 328 327 326 326 328 328 330 330 329 328 327 328 325 324 328 331 330 328 330 328
337 343 344 341 340 338 336 335 333 332 331 334 331 327 332 336 337 336 331 329 328 329 327 328 329 329 329 329 328 326 328 329 328 326 325 327 324 324 328 330 330 329 329
338 344 343 342 341 334 336 336 334 333 332 332 330 328 334 335 333 336 334 331 329 328 327 328 327 328 330 332 330 330 328 323 319 321 323 326 327 325 325 328 329 329 329
339 342 339 342 339 333 336 334 333 333 333 332 330 327 332 332 334 334 335 333 331 328 330 328 328 328 330 332 333 332 331 327 324 324 324 323 324 327 326 325 327 328 329
339 340 341 336 334 335 335 336 336 334 334 333 334 330 328 327 329 330 331 330 329 328 326 328 328 328 326 329 330 330 329 326 324 322 323 324 324 327 328 328 326 326 328
339 340 340 341 340 336 335 335 335 334 334 334 333 332 328 323 326 328 328 329 330 330 326 321 322 328 329 325 326 323 323 324 325 324 326 325 324 326 327 328 328 326 326
340 340 340 341 342 341 341 339 334 334 333 333 332 330 330 326 330 331 331 330 327 323 321 322 323 325 326 326 326 327 328 327 328 327 326 326 324 325 325 326 327 328 327
339 340 341 340 341 341 340 340 339 337 336 334 334 334 332 329 329 330 329 329 330 330 330 330 330 331 330 329 329 328 328 328 329 329 328 327 327 328 327 327 327 327 328
336 338 340 341 341 341 340 338 339 337 336 335 334 333 333 332 331 332 332 331 332 332 332 332 332 332 332 331 331 331 330 329 329 329 328 328 328 329 330 329 329 329 329
333 336 338 340 341 341 341 339 338 337 336 335 334 333 333 333 333 333 333 333 334 334 334 333 334 333 333 333 333 333 332 332 332 331 331 330 330 330 331 331 331 330 331
332 333 335 338 340 341 341 340 338 337 336 335 335 335 334 334 335 335 335 335 334 334 334 332 332 332 330 330 331 330 329 330 331 331 332 332 332 331 331 331 332 332 331
332 333 333 334 338 339 340 339 338 337 336 335 335 335 334 334 335 335 334 333 333 331 330 330 329 327 327 326 326 326 327 327 327 327 328 328 329 330 330 330 331 332 332
327 328 328 332 334 337 338 338 337 336 335 335 334 333 333 333 333 333 332 327 325 325 323 321 318 316 317 317 318 320 323 325 323 323 324 325 326 327 328 329 328 328 330
326 327 328 328 331 335 337 337 336 334 333 332 332 332 330 329 328 325 318 316 315 315 315 314 314 314 314 314 315 315 315 315 317 318 318 318 322 321 322 326 329 327 328
326 327 329 328 330 334 336 333 332 331 329 325 319 317 316 316 315 314 312 312 312 312 312 311 310 311 309 310 311 309 311 313 310 313 314 311 310 312 315 317 317 318 322
327 329 331 332 333 334 332 330 325 319 316 314 313 311 310 310 310 310 310 309 308 309 308 307 306 304 305 306 305 308 305 307 307 309 308 308 311 309 311 313 313 317 315
329 330 331 331 331 331 330 320 318 315 313 311 309 308 307 307 306 305 305 304 304 305 304 303 302 302 304 303 305 303 305 306 306 304 304 308 306 307 307 306 310 308 308
328 330 331 328 327 326 322 320 317 314 312 309 308 306 305 303 302 301 300 301 301 301 300 300 300 301 302 302 302 302 302 302 303 303 305 303 305 303 304 303 303 302 305
322 322 323 324 321 321 318 316 314 312 310 309 308 306 304 302 300 299 299 299 299 299 299 299 299 300 301 301 300 300 300 302 300 303 302 302 300 302 300 300 301 302 301
320 320 320 320 319 319 317 316 313 310 309 309 307 305 303 301 299 297 297 298 298 297 297 297 297 298 299 300 299 298 298 299 300 299 301 299 298 299 299 300 299 301 300
318 316 315 315 314 313 312 311 310 309 308 307 305 303 301 299 298 296 296 296 296 295 295 295 295 296 297 298 298 297 297 297 296 296 298 297 297 297 299 298 299 297 297
316 314 313 312 312 311 311 310 309 308 306 304 302 301 299 298 297 295 294 294 294 294 294 294 293 294 294 296 295 295 296 295 295 295 296 295 296 296 297 295 296 294 295

GFSSE_925_thetae_003.txt.gz
Theta_e
341 341 345 345 343 343 340 340 337 335 332 330 334 336 338 335 333 333 334 331 329 328 327 331 334 337 338 337 337 336 333 329 327 326 324 322 321 328 332 332 329 331 332
340 340 344 341 342 339 341 341 336 333 330 329 330 331 332 331 331 331 331 330 329 328 328 328 329 332 333 335 335 334 330 328 327 325 322 322 321 326 330 329 327 329 335
339 338 342 340 339 339 341 338 334 332 330 329 330 330 330 330 331 332 330 330 328 329 328 328 327 328 330 332 333 329 329 329 328 326 324 324 325 325 331 328 325 325 332
339 335 340 340 341 337 340 337 333 333 331 329 329 330 329 329 330 329 330 329 328 327 328 328 327 326 327 326 326 327 329 329 328 326 325 324 325 328 331 330 330 329 331
343 338 341 342 335 339 340 332 333 333 331 329 327 328 331 331 333 334 331 329 328 329 328 326 327 327 324 320 323 327 329 330 329 327 327 327 324 327 332 331 330 329 330
344 346 340 336 338 340 336 334 333 332 332 329 325 326 331 336 335 336 333 329 329 329 327 326 326 328 329 328 329 328 327 325 326 325 323 326 327 325 326 330 330 329 330
343 346 344 340 339 339 336 336 334 333 333 332 327 326 333 333 332 336 335 331 330 328 327 327 329 328 330 331 333 332 331 327 324 321 320 320 324 327 327 327 329 330 331
342 344 344 342 340 335 335 336 334 334 335 334 330 328 331 330 330 334 336 334 332 330 328 330 330 329 328 331 333 333 333 330 327 324 322 323 323 324 329 329 328 328 330
341 342 338 343 341 333 336 334 335 335 334 334 334 331 326 326 327 330 333 333 331 329 328 328 330 331 330 329 330 331 329 328 327 325 324 323 322 325 328 330 330 329 327
340 341 340 335 335 335 335 335 337 335 335 335 334 333 329 322 325 328 328 329 329 330 329 323 322 323 324 324 324 322 321 324 326 327 328 326 327 326 329 329 329 330 329
340 340 340 340 340 337 335 335 335 334 334 333 333 330 328 326 329 332 332 331 329 326 327 329 329 330 330 330 329 329 328 328 328 328 329 329 328 328 329 328 327 328 329
339 340 340 341 343 341 341 340 337 336 334 332 333 333 331 330 330 331 330 330 331 332 332 332 332 332 332 332 332 332 332 332 331 330 330 329 329 330 331 331 330 329 330
338 340 341 341 343 342 341 340 339 337 337 336 335 333 333 332 332 332 332 332 333 333 334 333 334 334 333 333 333 332 332 332 332 332 332 332 331 331 332 332 332 331 331
337 339 340 341 342 341 340 338 339 337 336 335 334 333 333 333 333 334 334 334 335 335 335 334 332 330 330 331 330 330 329 329 328 330 331 331 332 332 333 334 332 332 332
336 339 339 341 341 341 341 340 338 337 336 335 334 334 334 334 335 335 335 334 334 333 331 331 328 325 324 323 322 320 321 324 326 326 324 323 325 327 327 328 330 332 332
334 337 339 339 340 341 340 339 338 337 335 334 334 334 334 334 334 334 333 329 326 325 324 320 316 316 316 316 316 315 318 318 318 317 318 318 321 321 323 325 327 329 330
331 333 334 337 339 340 340 339 337 336 335 334 333 332 332 332 333 329 321 316 316 315 316 316 315 313 314 313 311 313 313 313 314 313 313 316 314 314 315 317 320 324 326
327 329 332 336 339 338 338 337 335 334 333 332 331 330 327 320 316 316 313 313 313 313 313 312 310 310 306 307 306 306 309 310 306 310 311 309 310 310 311 312 311 315 320
327 328 329 334 337 337 336 334 331 330 327 323 320 319 315 313 312 311 310 309 309 310 309 307 305 302 305 303 304 304 302 305 306 307 305 306 309 306 307 307 309 309 308
327 329 328 334 336 333 331 328 322 317 314 313 312 310 309 309 308 308 306 304 304 305 303 301 300 300 302 301 303 301 303 307 303 302 300 306 304 306 303 306 304 302 302
329 331 332 334 331 329 324 318 315 311 310 309 308 307 307 305 304 303 302 301 302 301 300 300 299 300 300 300 302 300 302 303 302 298 301 304 301 303 301 302 300 300 301
329 331 332 330 329 326 322 317 313 310 308 307 306 305 303 303 302 301 300 299 299 299 297 299 298 299 300 299 300 300 299 300 301 298 299 298 301 298 301 299 299 300 299
325 326 326 327 322 319 316 314 311 309 308 307 306 304 303 302 300 299 298 298 298 297 296 296 297 297 298 298 298 299 297 298 297 300 296 298 295 299 297 298 298 298 299
321 321 322 320 319 317 315 312 310 310 309 308 306 303 301 300 298 297 297 296 296 295 295 294 294 295 295 296 297 297 297 297 296 295 297 295 298 296 296 297 296 297 295
319 319 319 318 317 315 313 312 310 309 308 306 304 302 300 299 297 295 295 295 294 294 294 293 293 293 293 294 295 295 295 295 295 293 294 294 295 295 295 296 296 294 294
314 313 312 312 312 313 312 310 309 308 306 304 302 300 298 297 296 294 293 293 293 293 293 292 292 292 292 292 293 293 293 293 293 294 293 293 294 294 294 294 293 293 293

GFSSE_925_thetae_006.txt.gz
Theta_e
340 343 345 343 343 343 340 340 338 334 331 334 334 336 337 335 335 334 334 331 330 329 327 331 334 336 337 338 337 335 333 330 328 326 323 321 324 329 331 332 330 329 332
338 343 345 343 345 341 340 341 335 333 329 331 332 333 335 332 331 332 331 330 328 329 327 328 330 332 333 335 335 334 334 329 327 326 324 321 320 326 330 331 329 328 334
338 343 343 341 338 341 344 341 334 332 329 329 329 329 331 330 331 331 331 329 330 327 327 327 326 326 330 330 332 332 332 329 328 325 325 323 324 325 330 331 326 325 330
336 341 342 339 338 342 342 336 334 332 331 329 330 328 330 329 329 328 329 328 327 327 328 324 326 322 324 326 328 327 327 329 328 327 323 324 324 327 329 331 331 329 329
334 338 339 339 340 341 340 335 332 332 331 329 329 329 330 332 331 333 331 328 327 328 328 325 324 326 327 322 323 324 328 330 327 326 325 327 325 325 331 332 331 331 330
337 339 340 341 340 340 339 333 332 332 332 330 326 328 331 331 332 335 333 328 329 329 326 326 327 328 329 330 331 330 330 328 327 323 324 322 325 326 326 330 331 330 329
341 340 341 339 337 341 336 334 334 336 335 330 330 329 331 331 331 335 332 331 329 329 327 327 330 330 329 330 332 333 332 331 329 327 324 322 321 323 329 329 329 330 331
342 344 340 337 338 339 336 336 334 334 335 333 330 332 333 329 328 333 336 334 332 332 329 332 331 332 331 330 330 331 331 330 330 328 326 324 323 323 327 328 331 330 329
342 345 342 341 339 337 335 335 333 335 335 334 332 330 328 328 327 329 335 335 333 330 329 329 327 325 326 326 325 324 324 324 324 325 326 327 327 326 329 330 331 331 331
343 343 342 342 341 337 335 334 335 335 334 335 334 333 329 323 325 328 328 329 328 329 326 323 326 328 330 330 329 328 328 328 328 328 328 328 329 328 332 332 331 331 331
343 341 340 338 342 334 335 334 336 335 334 334 333 330 326 322 327 331 330 330 328 329 330 331 332 332 332 332 332 332 331 331 331 331 331 331 330 330 333 333 332 332 331
341 341 340 338 336 336 334 334 336 334 334 333 332 332 330 329 329 330 330 330 331 332 333 333 333 333 332 332 331 332 330 329 331 330 329 331 331 332 334 334 333 333 333
338 339 340 340 340 340 338 339 336 336 334 334 333 333 332 331 331 331 332 332 333 333 333 334 333 332 331 331 329 327 325 325 327 328 328 328 326 327 333 334 332 332 333
336 339 340 340 341 342 341 341 339 337 337 335 335 333 332 332 332 333 334 334 334 334 334 332 328 322 322 322 320 319 317 318 320 325 325 323 318 319 329 327 327 329 330
330 337 339 340 341 342 340 339 338 337 337 334 334 333 333 333 334 334 334 333 329 327 323 320 320 319 317 316 315 314 315 314 314 314 313 314 315 316 318 324 327 329 331
328 335 339 340 342 341 339 338 338 336 335 334 334 334 334 333 334 333 325 320 318 317 316 317 315 313 312 311 310 309 310 311 310 308 313 311 311 310 312 316 317 323 327
331 335 339 340 340 341 340 339 337 335 334 333 333 332 333 331 331 321 320 317 314 315 314 313 312 309 305 305 305 304 304 305 305 309 309 305 309 306 306 307 312 311 313
331 336 338 339 340 340 339 338 337 334 333 332 331 329 326 325 319 319 313 311 311 311 310 307 303 301 302 300 301 302 300 303 305 303 300 305 304 305 303 305 303 302 304
329 331 335 337 339 339 338 336 333 332 330 327 325 321 316 315 313 310 309 306 305 305 303 301 299 299 300 298 300 300 299 305 303 298 299 303 298 302 300 301 298 298 300
327 328 332 338 338 337 335 331 326 325 320 318 316 315 312 309 307 305 304 303 302 301 299 299 297 297 299 298 300 297 301 304 301 297 299 297 300 300 298 299 297 296 299
327 327 332 337 334 333 327 317 314 311 311 310 308 307 306 305 304 304 302 301 300 298 297 297 296 296 298 297 299 298 300 299 300 296 298 296 298 295 298 296 297 296 297
329 329 331 329 327 329 326 320 316 310 307 306 305 303 304 303 302 301 300 298 298 297 296 295 295 295 296 296 297 297 297 298 297 295 297 295 296 297 296 295 295 296 295
329 330 329 326 326 327 322 316 310 307 305 303 302 302 301 301 300 299 298 297 296 295 294 294 294 293 294 294 296 296 295 295 295 296 294 295 293 295 293 295 294 295 295
327 329 328 326 325 322 317 312 308 306 305 304 303 301 300 299 298 297 296 295 294 294 293 293 292 292 292 292 293 294 293 294 293 293 294 292 293 292 293 294 293 294 293
323 325 326 323 320 316 314 310 308 308 308 305 301 300 299 298 297 295 294 294 293 293 292 292 291 291 291 291 291 291 291 292 292 291 291 291 291 291 292 293 292 292 291
319 319 320 318 316 314 311 309 309 308 305 303 300 299 298 297 296 294 293 293 292 292 291 291 290 290 290 290 290 290 290 290 290 290 290 290 290 290 291 291 291 291 291

GFSSE_925_thetae_009.txt.gz
Theta_e
339 341 342 342 343 342 342 341 339 333 332 334 335 336 337 338 337 334 333 331 330 328 326 330 333 336 338 338 337 335 333 331 328 327 325 319 322 330 330 330 330 328 331
338 342 342 343 344 343 341 342 339 333 331 334 333 336 336 333 333 332 331 330 329 329 326 327 330 331 333 335 335 334 334 333 329 327 324 320 319 322 330 330 329 328 332
338 343 344 341 344 341 342 341 336 332 330 330 330 334 332 330 331 331 330 330 327 325 326 325 325 326 329 330 331 331 333 332 329 325 325 322 324 324 327 331 330 328 330
337 343 344 341 342 342 343 339 335 333 331 330 329 330 330 330 330 329 328 328 328 326 328 324 324 320 321 325 328 330 330 330 329 326 326 323 324 324 330 330 330 331 329
336 341 341 339 340 342 342 337 335 335 333 331 331 330 331 332 330 330 329 328 327 328 327 325 324 326 328 327 327 327 326 327 328 324 325 325 325 324 328 330 331 330 331
333 339 339 339 340 341 340 337 335 335 334 331 331 328 329 331 333 335 333 329 328 328 326 325 327 328 328 330 331 332 331 331 329 326 323 321 321 322 328 328 329 330 329
333 337 338 338 340 340 339 334 335 336 334 332 330 330 330 331 332 334 333 332 330 329 327 328 329 331 331 329 330 331 331 331 330 330 328 325 323 322 326 329 329 329 329
336 339 340 341 339 340 339 334 335 334 335 332 331 332 333 330 329 333 333 333 331 331 329 330 330 330 330 330 330 329 329 326 326 325 326 326 326 326 328 329 329 330 331
340 340 341 340 340 341 338 335 334 333 335 333 331 330 332 329 327 329 336 335 333 329 327 327 326 326 327 329 330 328 327 327 325 327 327 328 328 328 332 333 332 331 331
342 343 341 339 339 340 337 335 333 336 336 335 333 332 329 325 324 328 328 329 327 327 327 326 329 330 331 331 331 331 330 330 330 330 330 331 330 330 333 334 334 334 333
343 344 343 342 341 339 336 335 334 336 335 334 334 332 329 323 323 329 329 329 328 330 330 331 332 332 332 331 331 331 331 329 328 330 329 328 330 330 334 335 335 334 334
344 344 343 342 341 340 336 336 336 335 334 335 333 330 328 328 328 329 329 330 331 331 332 333 333 332 332 331 330 328 325 322 322 325 327 328 328 331 331 332 333 333 334
342 343 343 341 339 341 335 336 336 336 334 334 332 331 330 329 329 330 331 332 332 332 333 333 331 327 323 321 320 318 316 317 316 319 321 319 316 322 324 328 329 328 329
335 339 340 340 338 337 336 335 335 335 334 334 333 332 332 331 332 332 333 332 332 333 332 325 320 320 319 316 315 314 313 313 313 313 312 313 314 317 323 324 325 327 330
330 335 338 340 339 339 338 339 339 337 336 335 335 334 332 332 333 333 331 330 326 322 319 318 317 315 313 312 310 308 308 308 307 309 311 309 309 311 315 318 322 319 319
321 325 336 339 339 340 341 340 339 337 336 334 333 332 332 333 333 332 323 323 319 316 313 312 311 308 306 305 304 303 303 302 306 308 304 308 305 305 310 314 312 311 311
323 323 331 338 339 340 341 339 337 336 335 333 333 333 333 332 328 325 322 318 314 311 310 308 305 302 302 301 300 301 300 303 304 300 301 304 300 302 303 305 306 306 308
326 329 333 338 339 341 338 338 337 334 333 333 332 331 329 327 324 324 319 310 307 306 304 302 300 299 299 298 298 299 298 303 300 297 301 297 299 300 300 298 298 299 304
327 331 336 338 339 339 338 336 335 333 333 331 329 326 325 323 312 310 306 304 303 302 300 299 297 297 297 296 297 297 298 303 301 299 299 296 298 297 297 296 295 296 298
328 333 336 338 339 339 337 333 332 331 326 321 320 316 315 309 305 305 304 303 301 299 298 297 296 295 297 294 296 296 299 302 300 298 297 295 295 295 296 294 294 294 296
326 329 335 338 338 336 332 326 319 317 312 311 310 308 306 304 304 304 303 301 298 297 296 295 294 294 295 294 296 296 298 298 298 297 296 294 295 294 294 293 292 294 294
326 326 333 335 332 331 329 326 322 312 307 306 303 303 303 304 303 302 301 299 297 295 294 293 293 293 293 294 295 295 294 295 297 296 295 293 295 292 293 292 292 292 294
326 327 330 327 328 330 326 321 314 307 303 301 301 302 301 302 301 300 299 297 295 294 293 292 292 291 292 292 294 293 291 293 292 294 293 294 292 293 291 291 291 292 293
326 327 327 327 328 325 323 319 313 304 301 301 301 300 300 300 299 298 297 295 294 293 292 291 291 291 291 291 291 291 291 292 291 291 292 291 291 290 290 290 290 292 291
325 326 325 325 324 321 320 319 310 305 304 302 300 299 299 298 297 296 295 294 293 292 291 291 290 290 290 290 289 289 289 289 290 289 289 289 289 289 288 289 291 290 290
323 324 324 323 320 318 318 314 310 306 303 300 299 299 297 297 296 295 293 292 292 291 290 290 290 289 289 289 289 288 288 288 288 287 287 288 287 287 288 288 289 289 289

GFSSE_925_thetae_012.txt.gz
Theta_e
338 343 345 341 342 341 341 341 338 334 332 332 334 336 337 338 337 336 333 332 330 329 326 330 332 336 337 337 338 336 333 331 330 327 325 321 321 327 330 330 330 329 326
337 341 340 342 344 342 344 342 338 334 332 333 333 335 335 334 335 334 332 330 330 328 325 327 330 331 333 335 335 334 334 334 331 327 324 322 319 322 329 329 329 328 328
337 340 341 344 344 343 344 341 336 332 334 333 334 337 335 329 332 332 331 330 328 327 327 326 326 327 329 330 331 331 332 332 330 327 325 321 323 324 329 329 331 327 329
337 341 342 343 344 343 343 340 335 333 331 331 330 333 331 330 330 328 327 326 328 327 327 324 321 318 320 324 324 328 329 329 330 328 325 324 325 324 328 329 331 330 331
338 341 342 341 344 343 342 338 336 334 332 330 330 329 329 331 331 330 330 328 327 328 326 324 321 323 324 324 327 330 329 328 327 324 320 321 322 322 326 328 329 331 329
338 341 341 342 343 341 341 338 336 335 334 331 332 329 330 332 334 333 333 330 328 328 325 323 325 327 326 327 330 332 331 329 329 327 325 323 322 319 321 328 329 328 329
338 340 339 339 339 341 340 338 335 336 334 332 331 330 329 331 332 333 334 333 330 329 328 327 329 331 331 331 330 330 331 330 330 328 325 326 326 326 327 328 329 329 330
334 338 338 339 340 340 339 337 335 335 334 332 330 331 332 330 329 333 335 333 331 330 330 330 332 332 332 331 332 331 327 326 325 325 326 327 327 327 331 332 330 330 330
334 338 338 338 341 340 340 336 334 332 336 332 330 331 334 329 328 330 335 335 333 331 328 328 330 331 330 331 331 330 330 330 329 329 329 330 329 329 333 334 334 333 332
338 338 339 340 340 339 341 336 334 333 335 334 332 330 329 327 326 327 331 331 327 327 328 330 331 331 331 331 331 331 331 330 328 328 329 329 328 330 334 334 335 335 335
340 339 341 341 339 339 341 336 335 335 335 335 333 332 329 326 322 327 327 328 329 330 331 331 332 332 332 331 330 330 328 326 324 325 327 327 328 331 332 332 333 334 333
341 341 342 342 340 340 340 337 335 334 336 334 334 331 327 323 326 329 329 329 330 331 331 332 332 331 330 327 325 322 319 317 317 318 321 324 323 324 325 326 329 330 330
339 341 342 343 342 341 340 337 336 335 335 334 334 331 328 328 329 329 331 331 332 332 333 333 327 320 319 318 315 313 312 312 313 312 312 313 315 322 323 324 326 329 329
335 339 342 343 342 341 340 337 336 336 335 334 332 331 331 330 330 331 332 330 329 330 329 320 316 315 313 310 309 308 307 307 307 309 309 310 315 318 320 323 322 320 320
332 333 336 341 342 340 341 337 336 336 335 334 333 332 332 331 331 332 329 329 323 317 317 315 312 311 308 305 304 303 303 302 306 308 307 307 306 313 316 315 314 314 316
322 323 326 335 340 340 338 336 336 336 335 335 334 334 332 331 332 328 326 320 316 313 312 309 305 304 302 301 301 301 300 304 303 302 304 303 303 305 308 309 308 309 312
323 321 321 326 337 339 338 338 339 337 336 334 332 331 332 332 329 322 319 316 310 307 304 302 300 300 300 299 299 299 298 302 298 300 300 300 299 299 300 303 303 305 305
320 322 322 326 335 339 340 340 338 336 335 332 332 332 331 325 322 319 316 308 303 302 301 300 299 298 298 297 297 297 297 302 298 297 298 297 297 297 297 296 297 299 301
322 324 328 332 336 338 340 338 335 333 332 332 331 327 323 323 316 313 305 303 302 301 300 298 297 296 295 295 296 296 297 302 299 297 296 296 295 295 295 295 293 293 295
326 327 331 335 337 338 337 335 331 329 328 326 322 319 317 316 306 305 304 303 300 299 298 296 295 294 293 293 295 295 298 301 300 298 296 296 294 295 294 293 292 291 292
326 330 334 336 337 337 333 328 323 321 320 318 314 313 307 305 304 305 303 301 298 297 294 294 293 293 292 293 294 294 297 297 297 297 294 294 294 294 292 292 291 290 290
325 331 335 336 334 332 329 328 327 320 311 310 306 303 303 304 303 303 302 300 297 295 294 293 292 292 292 292 291 293 292 293 294 294 294 293 293 293 292 291 290 289 290
323 329 334 333 329 329 331 324 318 310 304 301 300 301 301 302 302 301 299 297 296 294 293 291 291 291 291 291 293 291 289 290 290 293 293 292 292 290 290 289 288 289 290
323 326 331 329 327 330 326 322 319 306 301 300 300 300 300 300 299 298 297 296 294 293 292 291 290 290 290 290 290 289 289 290 289 289 291 290 290 288 288 288 288 288 288
324 325 326 324 326 325 322 324 316 307 303 300 300 299 298 297 297 296 296 294 293 292 291 290 290 289 289 289 288 288 288 288 289 288 287 287 287 287 287 287 287 287 288
323 322 322 322 322 320 321 318 319 307 301 299 298 298 297 296 295 295 294 293 291 290 290 289 289 289 289 288 288 287 287 287 287 286 285 286 286 286 286 286 287 287 287

GFSSE_925_thetae_015.txt.gz
Theta_e
338 343 345 341 342 341 341 338 336 334 333 332 334 336 339 338 337 335 333 332 330 328 328 331 331 337 336 336 337 336 333 331 331 328 323 322 319 325 330 330 330 329 329
338 344 345 340 341 342 342 340 335 334 333 332 334 335 337 336 335 335 332 331 331 327 327 328 330 332 334 336 336 335 334 333 331 327 324 320 321 322 327 328 329 328 328
339 344 343 343 344 343 343 339 335 334 333 330 334 336 335 331 330 331 331 330 327 329 327 326 327 327 328 329 330 331 331 331 329 327 326 322 322 324 330 326 329 327 327
338 341 341 344 344 343 343 340 334 333 333 331 334 335 330 332 329 327 327 327 328 328 324 324 322 321 322 325 325 324 327 328 329 325 324 320 323 324 328 329 328 329 329
338 341 342 344 343 344 343 339 335 333 331 331 331 332 329 330 328 331 330 330 328 328 323 324 323 324 326 325 327 331 331 329 326 325 323 320 319 317 322 328 330 331 330
337 341 342 343 345 343 341 338 336 334 332 331 331 330 330 332 333 333 332 331 329 328 325 324 326 329 329 329 330 332 333 330 330 329 327 326 325 323 323 325 327 329 328
337 342 342 342 344 342 340 339 336 336 334 332 332 329 329 332 333 333 334 332 329 329 328 327 331 332 332 332 332 331 329 328 329 328 326 326 326 327 330 331 329 330 331
335 341 341 342 342 341 341 338 335 334 333 330 330 331 331 331 329 333 334 333 332 330 329 329 331 331 331 330 331 330 329 329 330 329 328 329 329 329 332 332 332 332 331
334 338 340 341 341 341 339 337 334 332 334 331 326 330 332 330 328 332 334 333 333 330 327 328 331 331 331 332 332 331 331 331 329 328 328 328 329 328 334 334 335 335 335
334 337 339 339 341 341 341 338 334 332 336 332 332 327 330 329 327 327 334 333 328 328 329 331 332 332 331 331 331 331 330 329 327 326 327 328 327 329 333 334 334 335 334
338 337 339 339 341 340 340 339 335 334 334 334 333 332 330 327 323 326 326 327 329 330 331 331 332 332 331 330 328 327 324 321 320 320 322 324 326 328 328 327 328 331 331
340 339 339 341 342 341 340 340 335 334 335 335 334 333 326 323 322 328 328 329 330 331 331 332 332 328 323 321 320 318 316 314 314 314 314 317 319 323 325 325 326 330 329
336 339 339 341 342 340 340 340 337 334 336 335 333 332 327 327 328 328 330 331 331 332 333 331 322 319 317 316 313 311 309 309 309 310 311 313 319 322 323 325 324 323 324
334 336 338 341 343 341 341 340 337 335 335 334 333 331 329 329 330 330 332 329 328 328 324 319 317 313 311 308 306 304 304 303 305 308 310 312 315 321 320 319 318 318 321
332 333 336 339 342 342 342 340 338 335 335 334 333 330 331 330 331 331 327 326 321 318 317 314 311 307 304 302 301 301 301 303 305 306 306 306 313 312 313 313 312 315 315
325 327 330 335 340 342 342 340 338 336 336 334 332 332 332 330 331 327 324 320 316 313 310 306 303 301 300 299 299 299 299 302 302 303 303 302 302 305 308 308 308 309 309
321 321 321 323 331 340 341 340 337 335 335 334 334 334 332 330 330 324 318 317 313 305 302 301 300 299 298 298 297 297 298 299 300 299 300 299 298 298 300 302 302 303 304
321 320 321 319 323 337 340 339 336 336 336 335 332 331 331 330 325 318 316 310 303 301 300 299 298 297 297 297 296 296 296 298 297 297 297 296 295 296 296 295 294 295 298
321 321 321 323 327 335 339 337 337 337 336 332 331 332 329 323 320 316 308 303 301 301 300 298 296 295 295 296 296 296 296 300 297 296 296 295 295 294 294 293 293 292 292
320 322 323 328 332 335 338 337 337 334 331 330 330 326 322 317 313 307 304 303 301 300 298 296 294 293 293 294 295 295 298 301 298 297 296 293 294 294 293 292 291 291 290
320 325 328 333 334 336 336 331 327 326 323 323 320 317 313 307 306 305 304 302 300 299 296 294 293 292 292 292 294 296 295 295 298 296 296 293 293 292 292 291 291 290 290
322 327 332 334 331 332 331 325 326 322 314 315 309 306 304 304 304 304 303 300 298 296 294 293 293 292 291 292 292 294 296 296 294 294 293 293 292 292 291 290 290 289 290
322 328 329 328 328 327 326 326 321 315 308 304 301 301 301 302 302 302 300 299 296 294 293 292 291 291 292 291 290 292 294 294 292 293 293 292 291 290 289 289 289 289 288
321 326 329 328 326 327 330 325 325 310 304 300 300 300 299 300 300 299 298 296 294 293 292 291 290 290 290 291 290 290 290 290 292 292 291 291 289 289 288 288 288 288 288
320 324 328 325 324 326 325 329 318 306 305 301 299 299 298 297 297 297 296 294 293 292 291 290 290 289 289 289 289 289 289 289 289 291 291 290 289 289 288 287 287 287 287
320 323 326 321 320 323 322 320 317 313 302 299 297 297 296 296 295 295 294 293 292 291 290 289 289 289 289 288 288 287 288 288 289 289 289 289 289 288 287 287 287 287 287

GFSSE_925_thetae_018.txt.gz
Theta_e
339 348 347 340 344 344 343 340 336 335 335 334 335 339 339 339 337 335 334 332 331 327 329 331 334 336 335 337 337 337 334 332 332 328 325 319 318 327 330 329 330 330 328
340 347 345 343 345 344 341 339 334 334 334 334 335 336 339 337 337 335 333 331 329 329 327 329 331 333 336 337 336 335 335 333 331 328 325 321 323 325 329 328 329 330 326
341 347 346 342 344 343 342 338 335 334 332 332 336 336 337 333 332 333 329 328 329 329 327 327 329 329 329 330 331 332 331 331 329 326 323 326 325 322 329 330 330 329 324
341 347 346 342 343 343 342 339 334 336 332 333 337 335 331 328 328 328 328 329 330 329 327 327 326 326 326 326 327 326 327 327 326 323 325 322 323 323 326 331 328 332 330
342 345 347 344 344 343 342 339 335 334 332 330 335 332 329 329 329 329 330 330 330 328 323 325 327 328 329 329 331 332 331 329 329 329 328 328 327 323 317 328 331 331 334
341 343 348 345 344 344 342 338 336 333 332 331 332 329 329 333 333 334 333 331 329 328 325 325 329 331 332 330 331 331 330 330 329 330 330 330 330 328 327 329 327 329 330
341 343 346 345 344 343 341 338 336 334 332 332 330 328 330 334 333 333 334 332 330 329 328 328 333 333 333 332 332 333 328 326 329 331 332 332 332 328 332 332 332 331 330
341 344 344 344 345 343 341 339 336 336 333 332 331 331 332 333 330 334 333 333 332 330 329 329 331 333 332 332 333 332 330 330 332 333 332 332 332 329 333 333 332 333 335
340 343 343 344 346 342 341 338 335 332 331 328 326 330 333 332 329 334 335 334 333 330 327 330 332 332 332 332 331 331 331 330 331 330 329 331 330 328 333 334 335 335 336
340 342 342 343 343 345 343 338 335 333 333 331 326 328 330 330 328 330 334 334 330 328 330 332 333 332 331 331 330 329 328 326 327 328 327 329 326 329 332 331 329 330 333
340 341 342 342 343 344 343 341 335 333 336 333 333 330 329 330 329 329 330 327 328 330 331 331 332 331 330 327 325 324 323 322 321 320 321 321 323 326 327 327 327 330 331
340 340 342 342 343 343 343 342 339 336 336 335 335 334 330 329 326 329 329 328 330 331 331 332 330 325 320 319 318 317 318 316 315 315 317 314 320 323 325 327 326 326 327
339 340 341 343 344 344 343 342 340 337 338 337 336 334 328 327 328 329 331 332 334 331 327 323 319 316 314 313 313 312 309 309 311 312 315 313 317 322 325 322 321 323 322
337 340 341 343 345 344 343 342 340 338 337 337 336 334 330 329 330 331 332 330 325 324 318 316 314 311 309 307 307 307 306 307 309 310 312 314 320 319 319 317 318 319 318
334 337 340 342 343 343 343 342 341 339 337 337 336 333 331 330 331 332 324 322 323 316 314 312 310 307 305 304 304 304 304 305 306 307 309 312 313 313 313 313 314 313 313
329 332 336 341 342 342 343 343 341 339 337 337 336 332 333 332 332 326 324 321 314 311 309 307 304 303 302 301 302 302 303 303 304 305 305 305 305 307 307 307 307 307 308
325 325 328 334 340 343 343 343 341 339 337 337 336 334 333 331 330 327 322 316 310 306 303 303 303 302 301 301 301 301 301 301 302 303 302 302 301 298 299 299 301 301 302
324 324 323 323 332 339 340 342 341 339 337 337 335 334 332 330 329 325 317 310 305 303 302 301 301 302 301 300 301 301 300 300 300 300 299 299 299 298 297 295 294 293 293
323 323 323 324 326 333 338 341 340 339 337 333 333 333 331 329 326 320 313 304 303 302 301 300 299 299 300 300 299 299 300 302 300 299 299 298 298 297 297 295 294 293 293
322 323 323 326 330 333 337 339 338 333 329 334 331 330 329 324 320 311 304 303 302 300 299 299 298 298 298 298 298 299 302 303 300 300 299 297 296 296 296 295 294 294 293
322 323 325 329 333 334 336 333 327 324 323 328 329 327 322 318 310 305 303 301 300 299 298 297 297 297 297 296 298 300 300 299 301 301 299 297 296 295 295 294 293 293 293
323 324 327 331 333 334 331 330 326 321 315 323 322 316 314 308 303 303 303 300 299 298 297 297 297 297 296 295 296 298 301 300 298 299 297 296 295 294 294 293 293 292 292
322 325 329 332 332 332 331 326 318 310 312 309 307 305 303 302 302 302 302 299 298 297 297 296 296 295 296 295 294 296 299 300 296 297 297 295 295 294 293 292 292 291 291
322 325 330 331 331 330 321 318 316 319 313 303 305 302 300 300 300 300 299 297 297 296 296 294 294 294 294 295 295 293 293 293 296 296 295 295 294 293 292 292 291 291 290
321 326 329 329 330 324 320 320 321 316 314 302 301 299 299 298 298 297 297 296 295 294 294 293 293 293 293 293 293 293 293 293 293 294 295 295 293 293 292 291 290 290 290
321 326 328 329 327 321 318 318 316 310 304 299 297 297 298 298 296 295 295 295 294 293 293 292 292 292 292 292 291 291 292 292 293 293 294 293 293 292 292 291 290 289 289

GFSSE_925_thetae_021.txt.gz
Theta_e
341 348 347 345 345 344 343 341 337 333 332 333 339 341 341 339 337 335 334 333 329 328 328 333 336 336 336 337 338 337 335 334 332 330 325 319 317 324 330 331 331 332 331
343 349 345 345 345 345 343 340 338 335 334 335 335 339 340 339 337 336 332 332 329 329 327 330 332 333 337 337 337 336 335 333 330 327 321 326 326 323 330 329 329 331 324
345 350 347 344 346 343 343 339 335 334 331 335 336 338 340 337 336 334 331 328 331 328 327 328 330 329 329 330 330 331 331 331 329 322 322 327 326 323 327 331 331 329 329
344 348 348 345 344 342 343 338 336 334 333 336 338 337 334 335 333 331 330 331 331 327 327 327 328 328 328 329 330 329 328 325 322 322 328 324 324 323 319 330 332 332 333
343 347 349 343 344 343 343 339 336 335 330 337 335 334 330 329 328 329 331 331 330 326 326 328 329 330 329 328 330 332 332 331 328 331 330 330 329 329 324 327 329 331 333
343 347 348 344 343 343 342 338 336 333 331 335 334 330 332 333 333 333 333 332 329 328 325 327 330 332 331 330 332 330 330 329 329 331 331 331 332 331 329 333 332 329 330
341 346 349 345 345 343 342 337 335 333 332 332 333 331 332 335 334 333 335 333 330 329 327 329 333 333 333 332 333 333 329 328 332 333 332 332 332 331 332 333 332 333 334
340 344 348 347 345 343 341 338 335 334 332 333 333 332 334 333 330 333 334 333 331 331 331 332 333 333 333 333 333 331 331 330 332 331 331 331 331 330 333 334 336 335 337
340 343 345 348 346 344 340 339 336 335 331 330 331 331 334 332 329 335 335 334 333 330 328 332 333 333 332 331 330 329 329 328 329 331 329 329 330 327 333 332 332 331 333
340 342 343 345 348 345 343 338 335 333 331 326 325 330 331 331 328 333 334 334 332 327 330 332 332 331 331 330 328 327 326 325 325 325 324 327 322 327 330 329 328 329 332
340 341 341 342 345 344 344 340 335 334 333 332 328 326 326 331 330 330 334 329 327 330 331 331 331 330 327 323 322 322 322 322 321 319 319 319 317 325 326 327 330 328 329
340 340 341 341 343 343 343 342 339 337 338 335 334 332 331 329 329 330 329 326 329 330 331 332 329 322 321 322 321 319 317 314 314 315 317 315 319 323 328 325 324 327 324
338 339 341 342 342 342 342 342 340 337 336 336 335 334 329 327 326 329 330 329 332 332 328 324 321 318 317 315 314 313 310 310 311 313 315 312 322 324 323 321 322 321 321
336 339 340 342 343 343 343 341 340 338 337 337 336 334 329 327 329 329 331 332 329 325 323 321 318 315 312 309 308 308 307 308 309 310 313 316 319 319 318 319 317 316 317
334 336 340 341 343 344 344 342 341 339 337 337 336 335 330 329 329 330 331 326 322 320 319 317 314 310 307 306 305 306 305 306 306 308 310 312 314 314 313 313 312 312 312
332 333 337 340 342 343 343 343 342 340 338 337 336 335 331 331 331 331 325 320 319 317 313 311 307 305 305 304 304 304 304 304 305 306 307 307 307 307 307 307 306 306 305
327 329 332 337 340 342 342 343 341 340 338 337 336 335 332 332 331 324 319 316 314 311 308 306 306 305 304 303 303 303 302 303 303 305 304 305 303 301 298 297 296 297 298
327 327 326 329 336 341 341 342 341 340 338 337 336 334 334 332 326 323 321 316 310 307 306 305 304 304 303 303 303 303 302 303 302 303 301 301 301 300 299 298 296 294 295
326 326 326 325 328 334 341 341 340 340 338 336 337 336 332 325 326 327 321 313 307 305 304 302 302 302 302 301 301 300 301 302 302 301 301 300 300 299 299 298 296 295 295
324 325 325 325 325 327 335 339 340 340 338 337 335 328 325 326 327 323 314 307 305 304 303 302 302 301 300 300 300 301 303 304 302 302 301 300 299 298 297 297 296 295 295
322 324 324 325 327 329 333 339 340 338 335 329 323 323 325 326 320 313 307 305 304 303 302 301 301 300 300 298 301 302 302 301 303 302 303 300 299 297 296 296 295 295 294
323 324 324 325 328 332 336 339 338 332 323 319 315 322 324 321 314 307 306 304 303 301 301 300 300 300 299 297 298 300 304 302 301 300 300 298 298 296 296 295 294 294 293
323 323 324 326 330 334 337 335 328 319 314 310 313 315 316 313 306 305 304 303 302 301 300 299 299 298 299 298 296 297 301 303 298 299 299 298 297 297 295 294 294 293 293
322 324 325 328 333 334 335 330 321 318 313 310 309 308 306 304 303 303 302 301 301 300 299 297 297 297 297 298 297 295 295 295 297 298 298 297 297 295 295 295 294 293 292
319 324 325 329 333 334 333 326 323 323 318 310 304 302 301 301 301 301 300 300 299 298 297 297 296 296 295 296 295 295 295 295 295 295 296 297 296 295 294 294 293 293 292
316 323 327 331 332 333 330 324 324 324 312 304 300 300 300 300 300 299 299 298 298 297 296 295 295 295 294 294 294 294 294 294 294 294 295 295 294 294 294 293 293 292 291

GFSSE_925_thetae_024.txt.gz
Theta_e
348 345 342 345 344 343 342 340 335 333 335 340 341 341 340 338 336 336 334 330 330 328 331 334 338 338 338 339 338 336 336 333 331 327 321 324 325 326 330 331 329 331 331
348 347 342 344 345 344 342 337 332 332 332 335 339 340 340 338 337 334 331 330 328 328 329 332 333 335 337 336 336 335 334 332 327 318 318 327 326 323 328 331 328 329 328
348 349 343 344 343 342 341 337 334 332 331 335 336 340 341 338 336 333 330 330 328 327 328 330 331 331 331 331 330 329 327 323 317 319 325 327 327 323 320 330 331 329 332
350 347 346 344 342 341 341 337 334 330 336 337 338 337 336 335 334 330 331 332 328 328 328 328 328 328 325 325 327 328 329 326 325 329 329 327 327 325 324 323 331 332 331
350 347 346 345 342 341 339 336 335 332 337 338 334 333 332 332 330 331 332 332 328 327 329 330 330 328 326 324 326 331 332 329 330 332 331 331 330 332 329 331 325 327 330
348 349 346 343 342 342 339 336 335 332 336 336 333 332 332 332 332 331 332 331 329 326 328 331 333 331 329 328 330 327 326 325 329 331 331 332 332 331 330 333 334 334 330
348 349 344 342 342 342 339 335 332 332 334 335 333 332 333 336 334 334 335 332 329 328 328 333 333 333 331 332 333 330 330 330 332 331 331 330 330 331 331 333 335 335 337
349 349 345 345 343 342 339 336 332 332 333 334 333 332 332 332 331 332 335 332 331 329 329 330 332 332 332 332 330 330 329 328 329 331 329 329 329 331 333 333 333 333 334
346 348 347 346 344 343 340 336 332 331 331 331 332 331 332 331 331 335 334 333 332 327 328 331 332 331 331 330 329 327 326 325 326 326 327 329 327 326 331 330 329 330 333
342 347 347 346 345 343 340 337 332 330 327 329 330 331 330 330 330 334 333 333 332 326 330 331 331 330 329 326 325 324 324 324 322 320 321 322 318 325 327 328 331 330 330
342 342 345 346 344 344 341 337 333 329 329 324 326 329 329 329 329 332 335 332 325 328 330 331 330 327 323 322 321 319 319 316 316 316 317 317 315 324 329 328 328 328 326
340 341 342 347 346 344 342 339 334 333 332 331 329 324 323 330 331 332 332 325 328 330 331 331 325 320 319 319 317 315 314 312 312 314 315 315 311 327 325 325 324 323 323
339 340 340 342 343 343 343 340 338 336 335 334 334 333 331 329 328 330 326 326 330 331 327 323 319 318 317 314 311 310 309 308 310 312 313 312 324 325 321 322 320 320 321
339 339 340 341 342 343 342 341 339 337 336 335 335 334 330 327 326 327 330 332 330 327 323 320 318 314 310 308 306 307 306 307 307 310 312 312 319 319 319 317 316 315 316
336 338 339 341 342 343 342 341 339 338 337 336 335 335 330 326 328 329 332 329 326 321 319 316 314 309 306 305 304 305 304 305 306 308 310 309 314 313 313 312 311 310 310
330 335 339 340 342 343 343 341 340 338 339 337 335 335 332 328 329 330 327 325 320 318 315 312 309 305 305 304 303 303 303 303 305 306 307 306 306 306 305 305 305 305 305
327 332 336 340 341 343 343 342 340 339 338 337 336 334 333 330 331 328 325 320 316 313 309 308 306 305 304 303 303 303 302 303 303 305 304 304 303 301 300 298 296 298 300
327 327 332 337 340 343 343 342 341 340 338 337 336 335 332 332 331 329 325 319 313 310 308 305 304 303 303 302 302 302 302 302 302 302 302 301 301 300 299 299 298 298 298
324 327 328 333 338 340 342 342 342 340 339 337 336 335 333 332 331 328 325 313 310 308 305 302 302 302 301 300 300 300 301 302 302 301 301 300 300 299 298 298 296 295 296
322 324 327 327 332 338 342 340 342 338 337 337 336 335 334 332 329 326 318 309 309 305 303 302 302 301 300 299 300 301 302 304 302 301 301 301 300 299 297 296 295 295 295
322 321 324 326 326 327 337 340 341 338 338 336 337 334 334 331 326 322 311 308 305 303 302 302 301 301 300 299 300 300 302 301 303 302 302 302 299 298 297 296 295 294 294
322 323 321 325 326 325 326 339 340 339 336 336 334 330 327 326 322 315 310 306 304 303 302 301 301 300 299 297 297 298 298 300 300 300 301 299 298 297 296 295 295 294 293
321 322 323 324 325 327 328 337 339 333 327 324 322 324 321 318 312 312 308 305 303 303 302 301 300 300 299 297 296 296 295 297 295 298 298 298 297 297 296 295 295 294 294
318 322 322 323 324 328 334 339 337 326 317 316 318 315 315 310 307 307 305 303 303 303 302 300 299 298 298 297 297 296 295 295 293 293 296 297 296 296 295 295 294 294 293
314 318 322 323 324 330 337 337 330 320 319 316 312 311 306 305 305 304 304 302 302 302 300 299 298 297 296 295 295 295 294 295 295 293 292 294 294 294 294 294 294 293 293
315 314 317 324 327 334 335 332 326 320 316 309 307 303 302 303 303 302 302 301 300 300 299 298 296 295 295 294 294 294 293 293 293 292 290 291 291 292 292 292 292 292 292

GFSSE_925_thetae_027.txt.gz
Theta_e
346 343 341 345 341 340 341 340 339 341 342 342 342 341 339 338 336 334 332 330 329 331 334 338 338 339 338 339 338 335 331 330 328 318 319 325 327 328 330 329 330 330 330
344 342 341 344 343 343 340 335 332 332 334 340 340 340 339 337 335 331 330 328 328 329 332 335 337 338 338 337 336 333 331 326 315 321 325 327 325 328 326 328 328 331 328
343 342 343 342 340 339 336 332 332 331 334 337 339 339 339 337 334 332 329 328 328 329 331 333 333 333 333 331 330 327 319 315 321 327 326 325 326 327 328 328 330 330 331
344 342 344 341 340 336 333 332 330 329 336 336 338 341 339 335 331 331 331 328 328 328 329 329 329 326 325 325 326 326 325 327 329 330 328 327 327 330 327 326 330 331 332
344 343 344 342 341 337 335 333 328 337 337 338 336 337 335 334 333 333 333 330 329 330 331 331 330 325 323 324 327 328 326 328 330 330 330 330 330 331 331 331 328 325 327
345 344 344 342 340 338 336 334 329 334 339 335 330 330 330 331 332 333 332 328 325 327 331 332 332 328 326 326 326 325 326 326 331 331 331 330 331 331 331 333 335 335 333
346 345 345 342 340 339 336 334 329 335 337 334 333 333 333 335 334 334 333 330 328 325 330 331 333 330 330 331 330 329 329 330 331 331 330 329 329 330 333 334 334 335 335
347 346 343 341 341 340 336 333 329 332 338 334 334 335 335 332 332 334 334 331 329 326 329 331 330 331 331 330 329 327 327 327 330 329 329 329 329 330 332 332 331 332 335
348 345 342 342 341 341 336 333 328 326 335 333 332 332 331 331 331 335 334 331 330 324 329 330 331 330 330 329 326 325 325 324 323 326 327 325 322 328 329 329 331 333 331
348 346 344 343 342 341 337 334 330 326 328 332 330 330 331 330 334 334 333 332 330 325 329 330 330 329 325 322 321 321 320 318 317 319 319 318 320 325 328 330 330 329 328
348 346 344 345 343 342 338 335 331 326 327 329 329 330 330 329 332 333 332 332 325 328 330 330 329 324 322 321 318 317 316 315 312 315 315 315 317 330 328 329 327 326 326
346 346 344 345 344 342 339 336 332 328 325 326 329 329 329 329 331 331 334 328 325 329 330 330 322 319 318 317 315 312 312 310 310 314 314 314 323 326 326 324 323 322 323
341 345 346 344 343 343 341 338 333 330 329 328 324 323 324 329 331 331 331 325 329 330 326 320 319 318 316 311 309 309 307 307 309 311 311 313 326 323 322 320 319 320 319
340 341 344 346 344 343 342 340 335 332 333 332 333 330 327 330 330 330 327 327 330 329 323 320 316 313 309 307 306 306 305 306 307 310 311 311 320 320 318 316 315 314 314
338 339 340 343 345 344 342 340 338 337 335 334 334 334 331 328 327 326 329 332 328 324 320 318 315 309 306 305 304 304 304 304 306 308 309 309 314 314 313 311 310 309 308
335 338 339 340 342 343 342 341 339 338 337 336 335 335 330 327 326 328 331 328 323 319 318 315 312 306 305 304 303 303 303 303 304 306 306 305 306 305 304 305 305 304 304
326 336 339 340 341 342 342 340 339 338 338 337 336 334 333 328 328 329 328 325 321 318 316 312 307 305 304 303 303 303 302 302 303 305 304 303 302 300 300 301 301 302 302
323 325 338 339 341 342 342 341 339 338 338 338 335 334 333 329 329 328 327 323 318 315 312 308 305 304 303 302 301 301 302 302 302 303 302 302 301 300 299 299 298 299 299
321 322 333 339 340 341 342 343 341 340 338 338 336 335 333 330 329 329 327 323 317 313 309 305 303 302 302 301 300 300 300 301 302 301 301 300 300 299 299 297 296 295 296
320 320 322 334 339 340 341 342 342 340 339 338 337 335 334 331 330 330 326 320 314 311 306 303 303 302 301 300 301 301 302 303 302 301 301 300 300 299 298 296 296 295 295
319 320 321 324 337 340 341 341 341 340 340 337 336 335 334 332 331 330 324 318 311 309 305 303 303 302 301 299 299 300 302 302 303 302 302 302 301 298 297 296 295 295 295
320 322 322 320 329 338 340 340 339 339 337 337 336 334 334 333 331 327 322 314 309 306 303 303 303 301 300 298 298 298 297 299 300 300 300 301 298 297 296 295 295 295 294
317 320 322 322 322 332 339 339 339 338 334 332 333 334 332 332 328 324 315 315 307 305 304 304 303 302 300 297 296 297 295 297 293 297 298 297 296 296 295 295 294 294 294
314 315 320 321 322 323 326 339 338 333 328 328 330 331 331 327 324 317 310 308 306 304 305 304 301 301 300 298 297 295 295 295 292 292 296 296 295 295 294 294 293 293 293
313 314 315 320 321 322 325 329 337 330 329 326 321 320 322 319 311 308 308 305 304 304 304 303 301 299 298 297 296 295 294 294 294 292 291 293 294 294 293 293 292 291 292
317 316 313 314 320 321 326 329 333 330 326 319 315 314 311 309 306 306 306 304 303 303 303 301 300 298 296 295 294 294 293 293 292 291 289 289 290 292 292 291 290 291 290

GFSSE_925_thetae_030.txt.gz
Theta_e
345 344 343 347 345 345 345 344 344 343 343 343 342 340 338 337 335 333 331 330 332 334 337 336 335 337 339 339 338 331 330 327 318 316 324 325 329 329 330 330 329 329 330
344 343 343 344 344 343 343 341 341 340 340 341 341 340 338 336 332 331 330 329 330 332 336 337 339 340 340 339 336 331 327 316 321 324 325 325 325 329 330 328 327 329 328
343 342 343 343 342 340 333 329 330 332 339 340 340 338 338 335 333 329 328 328 330 331 335 335 336 335 334 332 330 325 315 319 325 326 324 325 325 328 328 326 329 332 328
341 342 343 342 338 333 331 332 331 332 337 339 339 340 338 334 332 329 328 328 329 331 332 332 332 333 329 327 325 321 325 328 329 328 327 327 329 331 329 323 329 330 332
340 341 342 341 336 334 334 332 328 335 336 339 339 340 335 333 332 332 329 330 330 330 330 330 329 326 323 322 325 325 328 330 330 330 330 329 331 332 332 332 330 325 326
340 341 341 340 337 335 333 330 338 337 339 339 338 336 335 334 333 334 331 328 329 331 332 330 326 323 324 325 326 325 326 328 331 330 330 329 329 332 332 333 335 335 334
340 342 341 341 338 335 334 331 338 339 338 335 335 335 333 333 334 335 330 327 327 331 333 332 329 329 329 329 329 328 329 329 330 330 330 329 330 330 332 333 333 333 335
341 343 342 341 339 336 335 330 331 337 335 331 331 332 334 335 335 335 332 329 326 329 333 334 331 331 330 329 327 326 326 327 328 329 329 329 329 330 331 330 331 334 334
343 343 343 341 339 337 335 330 328 336 334 331 332 334 333 332 333 336 333 330 329 329 332 331 331 330 329 327 325 324 324 323 323 327 326 324 324 328 329 330 332 330 330
346 344 344 341 341 338 335 331 327 336 334 331 332 330 331 330 331 335 333 331 328 328 331 330 330 329 324 321 319 320 318 317 320 320 318 318 324 327 330 330 329 329 325
347 345 343 342 341 340 336 332 328 329 334 331 330 330 330 331 335 335 332 331 326 328 330 330 329 324 321 319 318 315 315 314 314 315 315 314 329 329 329 327 326 326 324
347 347 344 343 342 341 337 334 331 327 330 331 330 330 330 330 333 333 332 331 324 328 330 329 323 320 319 319 314 312 311 310 311 313 314 319 327 327 324 323 323 323 321
347 347 345 343 343 341 339 335 332 327 326 329 329 329 330 329 331 332 333 328 326 329 330 323 319 318 315 312 309 308 307 307 309 311 315 323 324 322 320 320 319 319 318
346 346 344 343 343 342 341 337 333 329 326 324 327 329 329 329 331 331 332 327 328 328 322 319 317 315 310 307 306 305 305 306 308 311 313 317 322 320 318 316 314 313 312
340 344 345 344 343 343 342 339 335 332 329 328 326 325 324 326 329 330 330 324 330 327 322 319 315 311 307 305 304 304 304 305 308 309 310 312 316 315 313 311 310 309 309
337 339 342 344 343 343 342 341 338 335 333 332 332 333 327 329 329 330 328 329 329 326 320 317 313 309 306 304 303 303 303 304 306 308 307 307 310 308 307 306 306 305 305
324 336 338 342 344 343 342 342 339 337 336 335 334 334 333 330 328 327 327 330 324 320 317 315 312 306 304 303 303 302 302 302 304 306 305 303 302 300 301 303 303 303 303
320 322 335 338 342 344 343 342 340 339 337 337 336 335 334 330 325 326 328 329 321 317 317 314 309 305 303 302 302 302 302 302 302 304 303 302 301 300 299 299 298 299 300
319 319 320 336 339 342 342 341 340 339 338 337 337 335 335 330 327 328 329 324 319 317 315 312 306 303 302 301 300 300 300 301 301 302 301 300 300 299 298 297 296 296 295
320 319 319 322 338 339 340 341 340 339 338 337 337 336 334 331 328 328 326 323 318 316 314 308 304 302 302 301 300 301 302 302 301 301 300 300 300 299 298 297 296 295 295
318 318 319 318 330 339 340 339 339 338 338 337 337 337 334 333 330 328 326 322 319 318 314 305 304 303 301 300 301 301 302 303 301 301 300 300 300 298 297 296 295 295 294
318 319 318 317 319 335 339 339 338 339 338 338 337 337 335 333 330 327 328 323 322 315 307 304 305 303 301 299 299 298 297 299 300 301 301 301 298 297 295 295 294 294 294
315 317 318 319 319 325 338 339 338 337 336 336 336 336 335 331 331 328 327 326 316 315 308 305 306 306 302 298 297 297 295 297 293 296 298 296 296 296 295 294 294 293 293
314 316 316 316 318 320 332 338 337 335 333 335 336 335 332 329 331 330 327 324 316 310 308 305 306 306 304 299 297 296 295 295 292 293 295 295 295 295 294 294 293 292 291
311 312 313 313 315 318 324 335 336 333 332 333 332 330 329 327 324 327 324 318 314 308 304 305 304 304 303 301 298 295 295 294 294 292 291 292 294 294 293 293 291 290 290
314 316 316 316 313 314 318 326 334 333 332 328 324 322 321 320 318 319 319 315 311 305 304 303 302 302 301 299 297 295 294 293 292 291 289 289 289 292 292 291 290 290 289

GFSSE_925_thetae_033.txt.gz
Theta_e
344 344 342 344 346 346 345 345 345 343 343 343 342 340 339 335 333 331 330 333 335 337 337 334 336 339 338 338 337 332 329 323 317 324 324 326 329 329 331 329 330 329 331
343 343 342 343 344 345 344 344 342 342 342 342 341 338 337 335 334 331 330 331 333 336 338 339 338 338 339 338 336 332 324 318 323 324 323 323 327 330 330 327 327 327 328
343 343 343 344 344 344 344 342 341 341 341 342 340 337 336 334 331 329 329 330 331 334 335 337 338 338 336 334 330 323 318 324 325 324 323 324 328 329 326 329 330 332 326
342 342 342 342 342 342 341 339 340 341 340 341 340 337 336 334 330 329 329 330 331 334 334 335 335 334 331 329 325 323 327 328 329 328 328 327 331 332 329 324 327 329 331
342 342 342 342 341 340 337 334 336 339 339 339 339 339 336 332 330 329 329 330 330 331 331 330 327 326 323 322 327 327 329 329 329 329 329 329 330 334 333 332 331 326 326
342 342 341 341 337 336 334 332 335 336 339 339 340 337 334 333 333 330 330 330 331 331 331 324 321 320 321 324 324 326 327 329 330 329 328 328 330 332 333 333 335 334 334
342 341 341 338 336 335 333 330 337 337 339 340 341 336 335 334 334 331 325 324 327 330 331 330 328 328 329 329 329 329 329 329 330 329 330 329 330 332 332 332 333 334 334
340 341 341 337 335 334 332 329 337 337 339 339 337 336 335 334 335 333 328 324 327 331 332 333 331 330 330 329 327 326 327 328 329 329 330 329 329 331 330 329 333 333 332
340 341 340 339 337 335 333 328 336 336 335 331 332 332 333 334 335 335 330 328 327 331 332 332 332 331 329 326 325 324 324 324 325 327 326 324 325 329 329 331 331 330 328
341 342 341 340 338 337 335 329 334 337 334 329 330 332 333 334 334 335 332 330 327 330 331 331 331 330 326 321 321 320 319 320 323 321 318 319 325 330 331 330 330 327 324
344 343 342 341 339 338 335 331 329 336 334 331 331 331 331 331 331 334 333 330 326 329 331 330 330 325 321 318 317 314 314 315 316 315 314 327 329 330 328 326 327 325 322
344 344 345 346 340 339 336 333 328 334 335 331 331 330 330 331 334 334 333 331 327 329 330 329 326 322 321 319 315 312 311 310 312 314 317 326 329 327 324 322 323 321 319
345 344 343 343 342 340 338 334 330 328 334 332 330 330 330 331 334 334 332 332 326 329 330 327 320 318 318 315 313 310 308 308 311 314 322 324 326 322 319 320 319 318 317
344 345 344 343 344 341 339 336 332 329 328 331 331 329 330 329 331 333 332 331 325 329 329 322 318 316 312 308 306 306 305 307 309 312 318 322 322 320 318 315 314 313 312
346 346 346 348 345 342 341 338 335 331 327 325 328 330 329 329 329 331 332 331 325 329 324 319 317 313 308 306 305 304 304 306 309 311 312 317 318 316 314 312 311 309 309
343 345 346 346 344 342 342 340 337 334 330 325 322 325 328 329 328 331 331 330 326 328 323 320 315 311 307 305 303 303 303 305 308 309 310 311 312 311 309 307 307 306 307
334 339 344 344 343 343 342 341 340 337 333 329 327 324 325 324 324 328 330 329 327 329 323 316 312 309 306 303 302 302 302 303 306 307 306 305 303 302 304 305 304 304 305
321 324 334 340 343 343 343 342 341 339 336 332 331 331 331 328 327 329 329 327 330 326 321 313 311 308 304 302 302 302 302 302 305 305 304 302 301 300 299 299 299 300 300
318 318 320 331 340 342 343 342 341 340 337 334 334 333 332 333 332 328 328 327 330 320 315 314 313 306 303 301 300 300 301 301 302 304 303 301 300 299 299 298 296 296 295
318 317 317 320 330 337 341 341 340 339 338 336 336 336 335 334 333 328 325 327 328 318 314 313 311 305 302 301 300 300 301 301 301 302 301 300 300 299 298 297 296 295 295
316 316 316 316 321 332 339 339 338 338 338 337 337 336 336 335 334 329 326 328 325 319 317 313 307 302 301 301 300 300 302 301 300 299 299 299 299 298 297 296 295 295 294
316 318 316 316 316 329 337 338 337 337 337 338 337 336 336 336 334 331 327 328 325 317 313 313 309 303 301 300 299 299 297 299 300 300 300 300 300 298 296 295 294 294 293
313 315 316 318 318 318 333 337 337 336 336 336 335 335 335 336 334 329 329 328 326 318 317 315 310 306 303 298 299 299 295 296 295 296 297 298 297 295 295 294 293 293 292
311 313 313 314 316 317 327 337 335 335 333 334 335 336 335 335 333 328 328 327 326 322 318 316 308 305 306 301 296 297 297 296 293 293 295 295 295 294 294 293 292 291 291
310 311 312 312 312 313 316 331 336 334 333 332 334 334 334 333 330 327 326 325 322 322 318 315 306 304 305 304 301 296 295 294 294 292 292 292 294 294 293 292 292 290 290
311 312 312 313 313 313 313 317 333 334 333 332 331 329 329 329 328 324 322 322 320 317 314 309 305 304 304 304 301 300 298 294 292 292 289 289 290 292 292 292 291 290 289

GFSSE_925_thetae_036.txt.gz
Theta_e
341 344 342 345 344 343 344 345 345 344 343 342 343 341 338 336 334 332 334 335 335 337 335 336 338 339 338 338 337 335 328 321 322 323 323 327 330 331 331 331 328 329 331
342 344 343 341 343 344 344 344 343 343 342 342 340 339 337 335 332 332 332 334 336 336 337 336 338 337 339 337 335 330 322 322 323 323 323 326 329 329 329 325 330 327 329
342 342 342 342 342 342 344 343 342 342 342 341 340 336 335 334 331 330 330 332 333 335 338 340 339 339 335 332 328 325 324 323 324 324 324 328 328 327 326 327 331 331 324
342 342 342 342 342 343 343 342 341 341 341 341 337 336 335 332 329 329 330 331 333 333 335 335 333 333 330 329 329 330 329 327 327 328 327 329 331 333 330 326 325 328 329
342 342 342 342 342 342 341 341 340 340 340 340 338 337 335 330 330 330 331 331 333 333 333 332 330 328 324 329 332 332 329 328 329 328 328 329 332 333 333 334 333 329 326
342 342 341 342 341 340 338 335 336 338 337 336 338 338 334 331 330 330 330 330 331 331 331 327 323 321 324 328 331 329 328 329 329 328 328 329 334 334 334 334 335 334 335
342 342 341 341 339 336 335 333 334 338 339 339 340 337 335 333 331 330 327 328 328 330 328 326 325 327 329 332 330 328 328 329 329 328 328 329 332 332 331 332 334 334 334
341 341 341 340 334 333 332 329 333 335 338 339 339 337 336 335 334 328 323 324 329 332 332 332 332 331 331 330 327 326 327 328 328 329 329 329 329 330 329 332 332 331 330
341 341 340 337 334 333 332 330 335 337 339 340 339 336 336 334 335 332 327 324 328 331 332 332 331 330 329 326 324 324 324 325 327 326 326 324 327 329 332 332 330 328 327
341 340 340 337 335 334 333 328 335 336 335 337 336 335 334 334 333 333 330 328 328 330 331 331 331 329 326 321 321 320 320 323 323 320 318 321 328 331 331 330 328 326 323
343 340 340 338 336 335 334 330 331 337 333 330 331 332 332 333 334 334 333 329 327 329 331 332 330 325 321 318 316 315 316 317 316 315 318 327 330 328 327 327 325 323 321
341 342 342 340 338 337 335 333 328 336 334 331 329 331 332 331 331 332 334 330 327 330 330 329 329 323 320 318 315 312 312 311 312 314 324 325 328 325 324 321 322 320 319
342 341 342 342 339 339 337 335 330 331 334 332 330 330 330 330 332 334 335 331 330 329 330 329 325 319 318 317 314 311 309 309 311 315 326 323 325 322 320 319 319 317 316
343 342 342 342 341 339 339 336 333 328 332 333 330 330 330 330 333 335 334 332 330 327 329 328 319 317 314 311 308 306 306 308 311 321 324 323 322 320 318 316 314 313 313
342 342 343 342 341 342 340 338 335 331 328 328 330 329 329 329 330 332 332 331 330 327 329 325 318 315 311 308 306 304 305 307 310 314 319 321 319 317 315 313 311 310 310
343 342 342 341 341 341 342 340 338 334 331 328 327 330 330 329 329 329 331 331 330 326 328 320 317 313 309 307 304 303 304 307 310 310 312 315 314 312 310 309 308 308 308
334 341 343 343 341 342 343 341 340 338 335 331 327 325 329 329 329 328 329 331 330 326 326 321 316 311 308 305 303 302 303 305 308 308 308 309 309 306 307 306 306 306 306
319 331 338 343 344 344 345 341 341 340 338 335 331 327 324 327 328 328 328 330 329 326 327 320 314 310 307 304 302 302 302 303 306 306 305 303 302 301 301 301 302 301 301
317 317 324 334 340 342 344 341 341 341 340 338 335 331 327 324 325 324 324 328 329 327 328 321 314 310 306 302 301 301 301 301 304 305 303 301 300 300 299 298 296 296 296
316 316 316 318 327 334 340 341 340 339 339 339 338 334 331 330 329 327 326 328 328 328 324 317 312 308 304 301 300 299 300 300 302 304 303 301 300 299 298 297 296 295 295
315 316 316 316 316 327 340 339 336 338 337 338 338 337 334 333 331 332 330 328 327 328 326 315 309 308 302 300 299 300 301 300 300 302 302 300 299 299 298 296 295 295 295
313 314 315 315 315 318 335 337 338 337 337 337 338 338 336 334 333 332 332 328 326 327 320 314 313 306 301 301 300 299 297 298 299 299 299 299 299 298 297 296 295 294 294
310 312 313 315 316 315 326 334 337 337 335 335 335 336 337 336 335 334 333 330 325 327 325 317 315 312 304 300 300 300 295 297 296 296 298 299 299 298 296 294 294 294 293
309 311 311 312 313 315 316 333 335 335 334 333 334 336 336 336 335 334 333 331 326 325 321 321 316 313 308 303 298 298 298 298 294 293 294 295 296 295 294 294 293 292 292
307 307 308 310 312 313 315 326 333 334 333 333 333 333 333 334 335 334 332 329 326 325 321 319 314 311 306 305 302 296 295 294 294 292 291 292 293 294 294 293 292 291 290
311 312 311 308 309 311 312 315 328 332 333 333 332 332 331 330 331 332 331 329 326 322 320 319 315 312 306 305 304 303 300 296 293 292 290 290 291 293 293 292 292 290 290

GFSSE_925_thetae_039.txt.gz
Theta_e
341 344 345 343 342 343 344 345 344 344 343 343 342 341 339 337 337 337 337 334 336 336 337 337 339 339 336 337 336 330 328 328 327 325 324 329 332 332 331 327 326 329 331
342 345 344 343 343 342 344 344 344 343 342 341 341 339 338 336 334 333 335 336 337 337 336 338 338 338 337 335 332 329 328 323 322 322 325 325 327 329 329 330 327 328 330
343 346 341 341 341 341 343 343 343 342 341 340 339 337 336 334 331 332 334 334 338 338 338 339 338 338 334 330 328 330 326 323 324 324 327 328 328 326 327 328 332 329 326
344 344 343 342 342 341 342 342 341 341 341 339 336 334 335 331 330 330 332 333 335 336 338 337 335 333 332 329 330 332 326 327 328 327 329 331 333 333 330 327 326 330 330
343 342 342 342 341 342 344 342 341 342 341 338 336 334 335 330 330 331 331 333 333 334 332 331 330 331 331 331 332 331 328 328 328 327 329 332 333 335 335 335 334 329 327
342 341 342 341 342 341 341 341 340 339 340 338 335 337 333 331 331 331 331 332 332 332 331 328 326 326 328 331 333 329 328 329 328 327 328 333 332 333 332 334 335 334 334
342 341 342 341 341 340 338 337 338 338 338 336 337 337 334 331 331 331 331 331 330 329 328 329 331 331 331 331 330 328 329 329 328 327 328 330 332 332 331 334 334 333 334
342 341 341 341 340 336 330 331 332 335 336 335 339 337 335 333 331 330 329 329 331 331 332 332 332 331 330 329 327 327 328 328 328 329 328 328 330 330 332 332 331 330 330
341 341 341 341 338 333 332 329 331 333 334 339 339 336 335 333 332 331 328 329 332 332 332 331 332 331 327 325 324 324 325 327 328 327 326 325 328 332 332 331 328 327 327
341 341 340 340 338 334 333 328 331 336 339 338 339 336 335 333 332 330 327 326 330 332 330 331 331 328 324 322 321 321 322 324 323 321 319 324 331 332 330 329 327 324 323
344 341 340 338 335 334 332 329 333 336 336 339 338 336 335 335 334 333 331 327 328 330 330 331 330 326 320 317 316 317 318 318 316 315 322 328 330 329 328 326 324 322 320
340 341 340 339 336 336 334 331 330 335 335 331 331 333 333 332 333 333 334 329 325 330 332 330 329 322 319 317 315 313 313 313 313 319 324 326 327 326 325 323 321 320 319
340 340 341 344 338 338 336 334 329 334 335 332 328 329 331 331 331 332 334 332 329 330 330 329 327 322 320 318 315 313 310 309 311 319 325 325 325 323 321 320 319 317 316
341 340 340 340 341 339 338 336 334 330 334 333 330 328 328 330 330 332 333 333 330 326 329 328 325 319 317 315 311 307 306 308 313 322 325 322 322 321 318 316 315 314 313
340 340 341 340 340 340 338 339 336 332 330 331 332 330 329 329 329 333 334 333 331 326 328 328 322 318 314 311 308 305 305 308 314 321 322 321 319 317 316 314 312 311 312
341 341 341 341 341 340 340 339 339 336 332 329 330 331 329 329 329 331 334 332 331 327 327 328 320 316 312 309 306 304 304 307 312 316 318 318 316 314 312 311 309 310 310
330 341 342 341 341 340 340 341 341 338 336 333 329 329 331 329 328 329 330 331 331 329 326 325 318 314 310 308 305 303 304 307 310 311 313 313 312 309 309 308 307 307 308
316 323 335 341 341 340 340 341 341 341 339 337 334 330 328 329 329 329 329 329 330 330 326 324 319 312 309 307 304 302 303 305 308 309 308 308 307 305 304 305 304 303 303
316 316 318 333 341 341 341 341 340 342 340 339 338 335 332 327 327 329 328 328 329 330 326 325 317 312 309 306 303 301 301 303 306 307 306 303 302 301 300 300 298 297 297
316 316 316 316 331 339 341 340 339 337 339 338 339 338 336 332 327 326 328 328 327 330 326 325 317 311 310 305 301 300 300 301 304 305 304 302 300 300 299 298 296 296 296
315 315 315 316 315 329 339 338 336 337 336 337 338 338 337 336 331 326 325 326 325 329 327 327 317 309 306 302 299 299 300 300 300 303 303 301 300 299 298 298 296 296 295
311 312 313 314 315 315 328 335 336 336 336 337 335 336 337 337 335 331 328 327 324 327 327 326 319 308 304 302 302 302 304 301 299 300 302 301 299 299 298 298 296 295 295
307 308 309 311 313 314 316 330 336 335 335 335 334 335 335 336 336 334 332 330 327 327 327 326 322 314 305 301 302 304 302 306 300 297 298 299 298 298 298 297 295 295 294
309 308 307 308 309 311 314 327 333 333 333 333 332 333 334 334 334 334 333 331 330 329 326 325 321 314 310 304 299 300 300 300 303 300 295 297 298 298 297 296 294 294 293
310 311 311 310 308 309 310 316 330 331 332 332 332 332 333 332 331 331 333 332 331 330 327 323 319 310 310 308 303 298 296 296 296 299 300 296 294 295 294 294 293 292 292
311 312 312 312 312 310 309 310 321 330 331 332 332 331 331 331 331 329 329 329 329 328 327 324 323 317 311 309 307 304 301 297 295 296 297 295 296 293 293 293 292 292 291

GFSSE_925_thetae_042.txt.gz
Theta_e
345 347 342 342 341 342 343 345 345 344 344 343 343 342 341 340 340 339 334 332 337 337 338 339 340 338 336 336 334 333 332 329 327 326 329 332 332 331 329 324 328 331 333
345 348 345 342 342 344 344 345 344 343 343 342 341 340 339 337 336 337 335 338 339 337 337 338 339 338 336 334 331 331 329 323 323 325 325 323 326 330 332 328 328 329 333
346 348 347 344 341 343 343 344 343 343 341 340 338 338 337 335 333 335 335 339 338 338 338 338 338 338 334 331 331 331 325 323 323 326 329 328 326 327 326 331 332 328 330
346 347 346 344 342 343 344 343 343 342 340 339 337 336 334 332 332 333 334 338 338 340 339 337 335 333 330 331 332 330 326 327 325 329 331 331 331 333 333 327 326 330 330
346 345 344 342 341 342 342 342 341 341 340 338 335 335 332 331 332 332 333 336 336 337 336 335 334 332 331 333 333 329 328 328 327 330 332 334 335 335 335 334 336 326 327
345 343 342 342 342 342 342 341 342 342 339 337 335 334 331 331 332 332 334 332 333 331 331 331 329 327 331 333 332 328 329 328 329 329 332 332 334 332 335 335 335 335 334
344 343 342 341 342 343 342 341 342 340 339 337 335 335 332 332 332 332 332 332 331 329 330 331 331 332 331 332 328 328 329 328 330 330 331 331 332 331 335 334 333 334 335
343 342 342 341 341 341 340 340 339 340 339 336 337 336 333 332 332 332 331 330 330 331 332 333 333 332 331 328 327 327 328 329 331 331 331 330 329 332 333 332 330 330 331
343 342 342 342 341 340 332 330 331 336 337 334 337 336 334 332 331 331 330 331 333 333 332 331 332 330 327 324 324 325 327 328 330 329 327 327 329 334 332 330 327 327 326
344 342 341 340 340 338 337 331 328 329 335 337 338 335 334 332 329 327 326 330 331 332 330 333 331 327 324 322 322 322 325 325 325 324 323 326 331 332 330 328 326 325 323
344 342 341 340 339 338 337 335 332 335 337 338 339 335 335 333 333 330 330 326 330 332 330 333 330 325 320 319 319 320 320 321 320 321 325 329 330 330 328 325 324 322 322
341 342 341 340 339 338 337 337 336 336 338 340 339 337 334 333 333 333 332 327 328 330 331 332 329 323 319 317 317 316 319 319 318 322 325 328 329 327 325 323 321 320 319
341 342 341 340 340 339 338 336 336 337 336 335 336 336 333 333 335 334 335 332 329 331 334 331 328 323 319 316 316 317 317 316 317 321 325 326 326 324 323 321 319 318 316
341 341 341 341 341 340 339 338 336 336 336 335 333 332 332 333 334 334 334 334 332 330 332 330 326 320 316 314 314 314 313 315 318 321 325 324 323 321 319 317 316 315 315
342 342 341 341 341 342 341 340 339 336 336 336 334 332 332 332 333 334 334 335 333 331 330 328 323 317 314 311 311 312 312 315 318 319 322 322 320 318 317 315 314 313 313
342 342 341 341 342 341 341 341 341 340 337 337 335 334 333 331 331 334 335 335 334 332 329 326 322 317 313 311 309 311 312 314 316 317 319 320 318 316 315 313 312 312 312
331 338 342 342 342 342 342 340 340 341 339 337 337 335 333 332 331 333 334 334 334 332 329 326 320 315 311 309 309 309 310 312 314 315 315 316 315 313 311 311 310 310 310
319 323 331 338 342 342 342 341 341 340 341 339 337 336 335 333 331 331 332 333 332 332 329 323 318 314 312 310 309 307 309 311 312 313 312 312 311 309 308 309 307 306 305
318 318 319 328 336 340 341 341 339 341 340 341 339 337 335 334 333 331 331 331 331 331 328 323 318 315 313 310 308 306 306 309 310 310 310 309 308 307 306 305 303 300 301
317 318 317 318 326 334 338 341 339 339 340 339 340 338 337 335 334 332 330 330 330 330 327 322 318 314 313 311 306 304 304 305 308 309 308 306 305 304 304 304 300 299 296
315 316 317 317 317 323 331 340 339 339 338 337 339 339 338 336 334 332 331 330 329 329 327 323 319 313 309 308 305 305 304 303 304 307 307 305 304 302 302 302 299 298 297
312 313 314 315 316 317 322 331 337 338 338 338 335 334 337 336 334 333 332 330 329 328 327 324 320 313 311 306 309 310 309 305 302 303 305 305 303 302 300 299 298 297 297
311 310 310 311 313 314 316 322 331 335 336 335 334 335 334 336 335 333 332 330 329 327 326 325 319 315 311 305 307 314 310 313 306 302 302 303 302 301 300 299 298 297 296
314 314 312 310 310 311 313 315 323 331 333 332 332 333 334 332 334 334 332 331 329 326 325 324 319 317 315 309 304 304 303 307 309 305 300 300 301 301 300 298 297 296 294
314 314 314 313 312 309 310 312 318 326 329 330 331 332 333 333 331 331 331 331 330 326 325 323 319 317 316 314 308 302 301 301 301 307 307 301 299 299 299 298 296 295 293
314 314 314 313 314 313 312 311 314 319 326 328 330 332 332 332 331 329 329 329 329 328 325 324 320 317 314 313 307 307 303 304 302 303 306 304 302 299 297 296 295 294 292

GFSSE_925_thetae_045.txt.gz
Theta_e
346 348 340 342 345 345 344 345 345 344 344 344 344 342 342 340 338 336 334 337 337 339 339 341 340 338 337 335 334 333 328 323 323 324 324 329 331 330 328 328 332 332 331
347 347 344 341 342 343 343 345 345 343 343 342 342 341 340 338 338 336 337 340 338 338 338 340 339 338 336 334 333 331 323 321 323 326 328 324 326 332 330 327 329 331 332
348 348 345 342 340 341 343 345 344 343 341 340 339 339 338 336 335 336 339 338 338 337 338 338 339 336 333 333 332 331 325 323 325 329 329 329 328 328 327 329 329 331 331
348 347 347 345 339 344 344 344 343 342 340 339 337 336 335 333 334 335 339 340 340 339 340 338 333 331 331 332 332 331 326 324 329 331 331 331 335 336 335 332 328 328 331
347 346 348 344 341 344 345 343 343 341 339 338 334 334 333 332 333 334 338 337 338 338 336 332 331 332 333 333 332 328 327 327 330 331 333 333 334 334 337 337 337 330 330
345 345 345 343 341 345 342 342 341 339 338 338 336 332 332 333 333 334 336 334 334 334 332 332 331 333 331 331 329 329 328 329 330 331 332 333 331 335 336 336 335 335 333
343 344 343 341 343 341 341 340 341 340 339 337 336 332 332 333 333 334 333 332 332 330 329 331 329 330 331 331 328 328 329 329 331 331 331 332 330 334 335 334 334 334 334
343 344 342 341 343 344 342 341 343 340 339 337 335 333 333 333 332 332 331 331 329 328 331 334 333 332 329 328 327 327 328 329 331 330 330 331 326 334 333 331 330 330 330
343 342 342 342 342 341 341 340 339 339 339 337 336 334 332 331 328 327 327 327 329 331 333 332 332 329 327 325 325 326 327 330 330 329 326 328 329 334 331 329 327 327 326
343 342 342 342 341 341 340 334 335 337 337 335 336 334 332 329 326 326 325 329 331 331 330 333 331 327 324 323 324 324 326 325 326 325 324 329 332 332 330 327 326 325 324
344 342 341 341 340 338 337 336 330 331 335 335 339 334 334 333 331 325 329 327 332 332 331 333 330 326 321 321 321 321 322 323 321 321 329 329 332 330 328 325 323 323 322
344 343 341 340 339 337 337 338 334 333 336 338 340 336 335 333 333 332 331 326 330 332 329 332 330 324 320 320 319 318 321 320 319 323 330 327 329 328 325 323 322 321 319
343 344 342 341 339 338 337 338 336 336 337 339 339 338 336 333 334 334 334 330 330 329 334 333 330 324 321 320 319 320 320 318 318 322 328 325 328 326 324 322 320 318 317
343 342 342 342 340 340 339 337 337 337 337 335 337 337 336 333 334 334 334 332 331 331 333 333 331 326 323 319 319 319 316 316 318 321 326 325 325 323 321 319 317 317 316
342 343 342 342 341 341 340 340 338 337 337 337 334 333 333 333 333 334 334 334 333 331 331 331 330 324 320 318 316 316 315 316 318 320 325 323 323 320 318 317 316 315 314
341 343 343 342 341 342 342 342 342 341 339 338 337 334 332 332 333 333 334 335 334 332 331 330 328 323 319 316 314 315 315 315 317 319 323 322 320 317 317 315 314 314 313
339 340 342 342 342 342 342 341 341 343 341 339 339 337 335 333 332 332 333 335 333 334 332 330 327 323 319 315 314 314 314 314 315 317 318 320 318 316 314 313 312 312 312
325 328 334 340 343 342 343 341 341 341 342 341 340 339 337 335 333 332 332 334 334 334 333 331 327 321 317 315 314 313 313 313 314 315 315 316 315 313 311 312 311 310 309
321 322 323 326 334 340 342 343 341 340 340 341 342 340 339 338 335 333 332 333 333 333 332 331 326 320 318 316 314 312 311 312 312 313 313 313 312 311 309 309 308 306 305
319 320 320 321 321 327 334 338 342 340 339 340 342 341 340 338 337 335 333 332 332 332 332 330 326 321 319 317 314 311 309 310 311 311 311 310 310 309 308 307 305 302 300
318 318 319 319 319 320 324 331 339 342 339 339 340 341 341 340 338 336 335 333 332 332 332 330 327 322 318 317 312 308 309 307 308 310 310 309 307 306 306 305 304 301 299
315 316 317 318 319 319 319 322 328 340 339 338 337 337 339 340 339 337 336 334 332 331 331 331 327 323 318 315 312 313 313 308 305 305 308 308 306 305 304 304 303 300 299
314 314 313 314 315 316 318 318 321 329 337 339 338 337 336 337 338 338 336 335 334 332 331 331 328 323 318 313 313 316 319 318 308 304 305 307 306 305 303 302 301 300 299
316 317 316 315 313 312 314 316 317 322 330 335 336 335 335 334 333 336 336 335 334 333 332 331 329 324 319 314 309 312 312 311 313 307 304 304 305 304 303 301 300 299 298
316 317 317 316 316 315 312 313 315 317 321 327 331 332 331 333 335 333 333 334 333 333 332 330 329 326 319 318 312 310 308 305 306 309 306 302 302 303 302 301 300 298 297
317 316 316 315 315 315 315 314 313 314 317 323 328 329 330 332 333 334 331 330 331 331 330 329 328 326 320 320 314 313 310 309 305 304 308 305 303 301 301 300 299 297 296

GFSSE_925_thetae_048.txt.gz
Theta_e
347 341 344 344 345 345 344 344 345 344 344 343 343 343 342 339 337 334 336 336 338 338 340 341 339 338 336 336 334 331 324 322 321 322 319 328 333 332 333 332 332 330 335
347 339 344 345 345 344 344 344 344 343 343 340 340 340 340 338 336 335 339 339 337 339 340 340 339 335 335 334 332 329 321 322 327 327 326 320 326 333 330 327 328 331 332
347 344 341 343 344 344 344 345 343 342 340 339 338 338 338 336 336 337 337 338 337 339 339 340 337 334 334 332 331 328 321 327 329 329 329 332 335 331 328 328 329 332 331
347 346 342 340 340 342 343 344 342 341 339 338 336 336 335 334 335 339 341 340 339 339 339 336 331 333 332 332 331 325 322 330 331 332 334 335 334 337 337 335 327 332 334
347 346 346 341 341 343 343 342 342 341 338 336 333 334 332 333 335 339 339 339 340 339 336 330 329 332 332 332 329 326 326 330 331 332 331 331 331 337 337 337 335 333 332
347 348 345 340 342 344 343 342 341 338 338 336 334 330 332 333 335 336 336 337 336 334 331 329 328 329 329 329 328 327 329 330 331 331 332 329 327 336 336 336 335 336 336
348 347 344 342 342 344 341 340 338 339 338 336 334 332 333 334 335 334 333 333 332 330 329 331 330 329 328 327 327 328 329 330 330 331 331 329 329 334 334 334 333 333 332
346 344 342 342 341 342 340 340 341 340 338 336 334 333 333 334 334 333 331 332 330 327 329 332 332 328 326 326 326 327 328 330 331 330 329 326 331 334 331 330 329 328 329
344 343 340 341 342 342 341 341 342 339 338 336 334 331 331 330 330 331 330 329 327 328 331 331 329 327 326 325 325 327 328 330 329 328 329 327 333 333 330 328 327 326 326
343 343 341 341 341 341 340 339 340 340 338 337 335 334 327 326 326 325 326 326 328 330 330 331 329 326 323 322 324 325 326 326 325 323 325 325 332 331 329 327 325 324 324
343 343 342 342 341 340 340 336 335 337 338 335 336 333 333 326 322 321 328 325 330 330 332 332 329 325 322 321 322 322 323 322 321 323 327 327 332 330 327 325 323 322 321
344 342 342 341 340 339 336 336 328 328 333 334 338 335 332 333 330 328 327 329 331 332 330 332 330 325 320 320 320 319 321 320 319 326 328 327 330 328 326 324 322 321 320
343 344 341 340 339 337 337 338 333 333 333 335 337 336 334 334 333 332 331 327 326 331 330 329 330 326 320 321 320 320 320 319 318 323 327 323 328 327 324 322 320 319 318
342 343 343 341 339 338 338 338 336 335 337 338 337 336 335 335 333 333 334 332 325 327 330 332 331 327 323 321 319 320 319 316 317 323 325 323 326 325 323 320 318 317 317
343 342 342 342 341 339 339 337 337 337 337 336 340 339 338 335 333 335 333 333 332 330 330 332 333 329 324 322 318 318 316 316 318 322 326 323 324 323 320 318 317 317 316
342 342 343 340 342 341 341 340 339 337 337 337 336 334 335 334 333 334 335 335 333 332 330 332 332 329 323 320 316 315 315 315 317 320 324 323 323 320 318 317 316 316 315
340 342 343 342 341 341 340 341 342 341 340 338 338 336 333 333 332 333 333 334 335 332 333 330 330 328 323 319 315 314 315 315 316 318 321 321 320 319 316 316 315 315 314
329 333 341 342 342 342 341 341 341 341 342 342 339 339 337 334 332 332 332 334 335 333 333 332 330 327 322 318 315 313 314 314 315 316 318 320 318 317 315 314 313 313 313
323 323 324 326 339 342 342 343 341 340 340 341 342 340 338 338 335 333 332 332 334 333 333 333 331 328 323 318 315 314 313 313 314 314 315 316 316 314 312 312 311 311 310
320 321 321 322 323 327 333 342 342 341 340 339 339 341 341 339 338 335 333 332 332 334 333 333 332 328 323 318 315 314 312 312 313 313 313 314 313 312 310 309 309 307 306
317 318 319 319 320 320 321 324 338 342 341 340 338 339 341 341 339 338 335 333 332 332 333 333 331 328 323 319 316 313 310 310 310 311 312 312 311 311 309 308 307 306 303
313 315 316 317 318 319 319 320 322 333 337 340 339 337 338 340 340 339 338 335 333 332 332 332 331 328 324 320 315 309 307 308 307 308 310 311 310 309 308 306 305 304 301
316 315 314 313 314 315 316 318 319 319 321 340 339 337 335 336 337 339 338 337 335 333 332 332 332 328 322 319 316 313 312 311 305 306 306 309 309 307 306 306 304 304 300
316 317 317 316 315 314 312 313 315 317 319 324 337 338 338 337 335 334 336 337 336 335 334 331 331 330 324 318 315 314 316 313 307 304 304 305 308 307 305 304 303 303 300
316 316 316 316 315 316 315 312 312 314 316 317 320 329 334 335 334 334 333 332 334 335 334 333 331 330 326 319 315 313 313 312 308 306 303 303 305 306 305 304 302 301 300
317 316 315 314 314 314 315 315 315 313 313 314 316 321 326 330 330 331 333 334 331 330 333 333 332 331 328 322 315 314 315 313 306 304 308 303 302 303 304 303 302 300 299

GFSSE_925_thetae_051.txt.gz
Theta_e
345 342 343 344 344 343 343 344 344 344 343 343 342 342 342 340 335 335 336 337 338 340 342 340 338 337 337 335 332 324 321 325 324 319 322 331 333 334 335 333 330 335 338
342 344 344 346 344 343 345 343 342 343 342 341 339 340 340 339 335 338 339 337 339 342 340 338 336 335 335 333 328 320 325 327 326 326 325 324 328 331 331 329 329 333 335
342 343 344 345 344 344 343 343 342 341 339 338 337 337 338 336 335 337 338 338 340 341 340 336 335 334 333 331 321 322 328 329 329 329 336 336 334 332 329 329 333 332 330
340 344 346 345 343 343 343 343 341 339 338 336 335 335 335 334 340 342 340 339 340 340 337 332 333 332 331 327 321 326 330 330 333 332 334 333 334 338 337 331 334 335 333
338 342 342 344 342 342 343 341 341 339 338 335 332 333 334 335 341 340 340 339 339 337 331 330 331 331 329 325 324 329 330 331 331 331 331 329 332 337 337 336 335 335 337
344 342 340 340 341 342 342 341 340 338 335 333 329 331 333 336 339 338 338 339 338 333 330 329 329 327 327 327 325 329 330 331 330 330 329 327 333 337 336 336 336 336 335
346 344 341 342 343 342 341 340 338 338 336 335 330 333 334 335 336 335 335 335 333 331 326 323 324 325 326 327 326 329 330 330 331 330 329 325 333 333 333 333 332 332 333
346 344 341 341 344 342 340 339 338 338 336 335 332 334 334 335 334 332 332 332 331 327 323 324 324 324 325 325 326 329 330 330 330 329 328 323 333 332 331 329 329 329 328
345 343 342 341 342 342 338 339 340 338 337 335 331 331 333 333 333 332 331 331 328 326 328 329 326 325 325 324 325 325 329 328 328 326 328 328 333 332 330 328 327 326 326
343 342 341 341 341 341 339 343 341 339 337 336 333 329 323 322 328 331 329 327 324 328 329 329 327 325 322 322 323 326 327 326 324 324 325 329 333 330 328 326 324 324 323
342 341 338 341 341 341 339 339 339 339 338 336 334 332 330 321 321 321 323 323 329 329 329 330 327 324 322 322 322 323 323 322 322 322 325 327 332 330 327 325 323 322 321
342 341 340 340 340 339 338 337 338 338 337 336 335 333 332 326 320 321 326 324 328 329 331 331 329 324 320 320 321 321 321 320 320 323 328 328 330 329 326 323 323 321 320
342 341 341 342 340 340 337 335 328 329 332 334 336 335 333 331 331 329 327 328 328 331 330 330 330 325 320 320 320 320 320 319 318 323 326 326 327 327 325 322 321 319 319
343 343 341 341 340 338 336 337 334 330 326 331 335 336 335 334 333 332 331 330 326 327 330 328 328 329 321 320 320 319 320 320 317 322 324 323 324 327 324 321 319 318 318
340 343 342 340 338 337 337 337 337 335 335 335 336 336 335 335 334 333 332 333 331 324 324 326 331 330 324 322 319 319 319 317 316 320 323 324 324 324 323 320 319 318 317
342 340 342 342 340 338 338 337 337 336 336 336 338 338 338 335 335 333 334 334 333 332 330 329 331 332 328 324 322 318 317 316 316 320 324 324 323 323 321 319 319 318 316
342 342 341 340 341 340 340 339 337 337 337 337 336 336 337 337 335 333 334 334 334 333 332 330 331 332 328 324 321 317 316 315 315 317 323 322 323 322 320 318 318 317 316
338 340 341 342 341 340 340 340 340 341 341 339 337 337 336 334 333 332 333 333 333 334 332 332 330 330 329 326 320 317 314 315 315 316 320 321 321 320 318 316 317 317 316
323 326 337 342 342 342 340 339 339 340 341 342 340 338 338 337 337 333 332 332 332 333 333 332 332 330 329 324 320 316 314 313 314 315 316 319 320 318 317 315 314 315 315
318 321 321 321 337 340 341 341 341 340 339 339 340 341 340 339 338 337 334 332 332 332 334 334 332 332 329 326 320 316 314 313 313 314 314 316 317 317 315 313 312 312 313
316 316 317 318 319 320 332 339 341 342 341 340 338 338 339 339 340 337 336 335 333 332 332 333 332 333 330 327 320 315 313 312 312 313 313 313 315 315 314 312 310 310 309
313 313 314 316 317 317 318 319 320 333 340 340 340 339 339 336 335 339 337 337 335 332 332 332 333 331 330 325 318 309 307 309 309 310 312 312 313 313 312 311 309 308 308
316 315 315 314 314 314 314 315 317 317 319 327 334 339 339 339 337 334 333 335 336 336 333 332 331 331 328 324 321 315 308 309 306 308 309 310 311 311 311 310 309 308 306
316 315 316 316 315 315 314 313 312 313 314 316 322 335 338 336 336 335 335 332 331 331 335 334 332 330 329 323 318 317 317 313 307 307 306 306 309 310 309 309 308 306 305
316 316 315 315 314 315 315 315 314 312 312 313 315 316 318 322 334 334 334 334 333 331 331 334 334 332 329 326 320 317 313 313 309 305 305 304 305 308 308 307 307 306 304
316 315 314 314 314 314 314 314 314 314 315 314 314 313 315 316 323 330 330 330 331 332 331 330 331 332 331 328 322 320 316 314 312 305 307 305 305 305 307 306 306 305 303

GFSSE_925_thetae_054.txt.gz
Theta_e
346 342 345 345 344 344 345 346 345 344 343 343 342 342 341 337 336 333 336 338 340 341 340 338 338 338 337 334 331 331 332 329 327 324 329 333 334 334 333 333 336 338 338
344 339 344 345 346 344 344 344 343 342 342 339 339 339 340 337 338 338 337 341 341 339 337 336 335 335 334 332 331 332 328 328 330 332 326 325 330 331 330 331 334 336 335
341 343 345 344 344 344 343 342 341 341 339 338 336 337 338 333 338 339 339 341 342 339 338 336 334 333 331 327 329 329 328 329 331 334 335 335 333 332 332 333 332 331 331
344 345 345 344 343 342 342 342 340 338 337 335 335 335 334 338 343 339 340 340 341 339 336 334 332 332 323 322 329 329 331 331 331 333 332 335 337 337 333 336 336 336 335
343 344 345 344 344 342 341 340 339 337 336 335 333 332 334 341 341 340 339 339 339 334 330 324 328 323 321 322 329 329 330 331 331 331 328 329 335 338 336 336 335 337 337
343 345 345 343 342 342 341 341 339 338 336 330 330 332 337 339 339 339 338 338 337 331 329 321 322 324 324 326 329 330 330 330 331 328 327 329 336 337 337 336 336 336 335
343 343 344 342 341 341 340 340 338 336 333 331 332 334 337 339 339 339 337 336 333 331 326 319 322 325 325 326 329 330 330 331 329 329 328 327 333 334 333 333 332 333 334
341 340 340 341 341 341 340 339 338 336 334 333 333 334 336 336 337 335 335 333 332 329 321 321 322 323 324 325 329 329 330 330 330 328 325 329 332 331 331 330 328 329 329
343 342 339 343 342 340 340 338 339 337 335 333 327 332 334 334 334 333 332 332 330 325 320 322 322 323 324 324 327 329 329 329 328 327 327 331 331 330 329 328 327 326 326
343 341 340 342 342 340 338 338 339 338 336 333 329 320 321 324 331 332 331 332 329 326 326 326 325 324 323 323 324 328 327 326 326 326 325 330 332 330 328 326 325 324 324
343 342 341 340 341 340 338 340 340 338 336 335 332 329 320 318 323 327 328 327 326 331 330 328 326 323 321 322 323 328 325 323 323 324 325 330 332 330 327 325 324 322 322
341 341 341 340 340 340 339 342 340 339 337 335 333 331 329 320 318 321 322 322 325 330 329 330 327 324 321 321 322 324 322 320 320 323 326 329 331 330 327 324 323 322 321
340 339 340 340 340 340 339 338 338 337 337 336 334 333 332 328 320 320 323 323 326 328 330 332 330 326 320 320 320 321 321 320 319 324 327 327 328 328 326 323 322 321 320
340 340 340 340 339 339 338 335 333 332 335 336 334 334 333 331 330 329 325 327 325 325 328 328 329 329 323 320 320 319 320 319 318 323 325 325 325 327 325 323 321 320 319
341 342 341 341 340 339 338 336 335 331 327 327 329 334 335 333 333 332 332 330 330 328 326 326 327 327 329 322 320 319 319 319 318 317 323 325 323 324 324 322 320 319 319
340 341 342 339 341 340 338 336 336 336 334 331 328 334 335 335 334 334 333 332 331 332 329 323 324 328 329 325 322 321 319 319 316 316 320 324 324 324 323 322 321 319 318
341 340 342 341 339 338 336 337 336 336 336 335 335 336 337 337 335 334 334 332 332 333 332 330 329 329 331 330 326 323 320 317 316 315 318 323 324 324 322 322 321 320 319
340 341 340 340 341 339 338 337 337 336 337 335 335 336 336 337 338 336 336 333 333 333 333 332 331 330 331 332 330 323 321 316 315 315 316 322 323 323 322 320 320 319 318
326 339 341 340 340 340 340 340 340 338 339 340 337 336 336 336 335 334 333 333 333 333 333 333 332 331 330 331 327 322 321 318 315 314 314 319 322 322 321 319 317 317 318
317 321 330 340 341 341 341 340 340 339 340 340 341 340 338 337 336 334 335 335 332 332 332 333 333 332 331 330 327 325 321 317 314 314 314 314 319 321 320 318 317 315 316
314 316 318 318 327 338 341 340 340 340 339 338 338 338 338 338 338 338 335 335 334 331 331 331 333 332 332 330 323 319 316 314 313 313 313 313 314 318 319 318 316 314 313
314 314 314 314 315 316 320 328 334 338 340 339 338 337 337 337 336 335 335 335 335 333 332 332 332 332 331 330 321 311 312 314 314 314 312 312 313 314 317 317 315 313 312
315 315 314 314 314 314 313 313 314 315 319 324 325 327 329 335 338 337 336 335 334 335 334 333 331 331 329 328 324 322 308 311 307 311 312 311 312 312 313 315 315 313 311
315 315 315 315 314 315 315 314 312 312 312 313 315 317 323 333 336 338 338 336 334 333 333 332 331 331 329 327 323 321 319 312 309 311 309 308 308 310 311 312 313 312 310
315 315 314 314 314 314 314 314 314 314 313 312 312 312 313 315 317 319 329 335 334 332 330 330 331 331 331 328 325 323 318 314 310 308 311 307 306 307 308 310 310 311 310
315 314 314 313 313 313 313 313 313 313 314 315 315 315 315 315 315 317 323 328 332 332 330 330 329 329 329 329 327 324 321 315 315 307 307 307 306 308 307 308 308 309 308

GFSSE_925_thetae_057.txt.gz
Theta_e
345 343 344 345 342 343 344 345 345 342 342 342 342 340 337 335 332 334 336 338 339 341 340 339 338 338 336 334 334 333 330 326 326 326 331 333 334 332 335 336 337 338 338
344 344 344 345 344 344 344 344 343 342 342 340 341 339 337 337 338 336 340 341 339 338 337 335 336 336 334 333 333 329 330 331 332 327 325 327 329 330 332 334 335 337 336
342 345 344 344 343 343 344 342 342 341 339 339 337 337 335 338 338 338 341 342 339 338 337 334 334 333 331 333 333 330 329 332 332 332 334 334 331 333 331 325 329 330 332
340 345 344 344 343 343 341 341 341 339 338 336 334 334 327 338 339 340 340 342 339 338 335 332 333 331 330 331 330 330 330 330 331 330 333 336 337 334 336 337 338 336 332
340 344 344 343 343 341 341 341 338 337 335 334 333 326 341 341 338 340 340 341 337 332 324 321 321 323 327 329 330 330 331 330 330 329 329 334 337 335 337 335 336 337 336
344 344 344 343 341 341 341 339 337 336 336 332 332 332 340 341 341 340 339 338 335 331 321 316 320 321 325 329 330 330 329 330 329 327 328 333 336 337 337 336 335 335 336
345 345 344 343 341 342 340 340 338 337 332 327 332 336 339 340 338 339 338 336 332 331 321 318 323 323 325 329 329 329 330 330 329 328 327 329 335 335 334 334 332 332 333
345 344 344 343 340 341 340 339 338 335 332 325 328 336 338 338 338 339 336 334 333 330 321 319 323 324 325 328 329 329 329 330 329 328 325 327 330 331 331 328 327 328 328
344 344 344 341 340 341 340 339 337 335 332 329 319 330 335 336 336 339 336 334 332 329 325 326 325 324 324 326 328 329 329 329 328 327 327 331 330 330 330 328 326 326 325
341 340 339 340 340 340 340 338 337 336 334 331 323 329 331 331 329 334 333 333 332 329 329 327 326 325 324 324 326 328 327 328 327 326 327 330 332 330 328 326 325 325 324
342 340 340 342 342 340 338 337 338 337 335 334 328 323 327 326 326 325 327 330 329 325 327 326 326 324 322 322 324 326 325 325 325 325 326 329 332 331 328 325 324 323 322
343 341 340 343 342 340 338 338 339 338 336 335 332 329 321 319 323 327 328 327 324 325 329 328 327 324 322 321 322 325 325 322 321 323 325 329 332 331 328 325 323 322 321
343 341 341 341 341 340 339 339 340 339 337 335 334 332 329 322 319 322 324 323 323 326 328 330 329 326 322 320 321 321 322 321 319 321 325 329 330 330 328 325 322 321 320
341 341 341 340 340 340 339 338 340 340 338 337 335 333 331 330 325 319 319 321 322 324 326 328 330 329 326 320 319 319 320 320 319 319 323 327 327 329 327 325 322 321 320
340 339 339 340 340 340 339 339 338 337 337 336 335 333 332 332 331 327 328 325 326 327 326 326 326 327 327 326 320 320 319 319 319 318 319 324 326 326 327 325 323 321 320
340 340 340 339 339 339 339 337 335 334 333 330 330 330 331 334 333 332 332 331 331 330 330 329 327 323 324 328 328 321 320 318 319 318 317 321 325 325 325 325 323 322 320
340 341 341 340 340 340 339 338 336 335 334 332 331 328 330 334 335 334 333 333 333 332 331 331 329 326 326 328 330 325 324 323 320 318 316 316 321 324 325 324 324 322 321
338 339 340 341 339 339 340 339 337 336 335 335 335 335 334 335 336 336 335 334 334 333 332 332 331 330 329 329 330 331 329 325 321 317 316 315 318 322 323 323 322 322 321
338 339 340 339 340 339 339 337 336 336 336 335 336 335 335 335 336 336 337 336 336 335 333 332 332 331 331 331 330 330 331 329 323 319 316 315 315 319 322 322 321 320 320
320 328 337 340 339 340 340 338 337 337 337 337 339 339 338 336 335 335 336 336 335 333 332 332 332 332 332 332 330 329 329 328 321 318 317 315 314 315 320 322 321 319 318
315 317 321 329 337 339 340 339 338 339 339 339 339 339 340 340 338 337 335 334 332 331 331 331 331 331 331 331 327 326 327 325 322 318 316 314 314 314 316 320 321 319 317
313 314 315 316 319 324 334 339 339 340 339 339 339 339 338 338 337 337 337 335 335 335 334 333 331 330 330 331 327 316 316 319 321 321 317 315 313 313 313 316 319 319 317
314 314 314 314 314 314 314 316 319 321 322 327 330 331 331 331 333 335 337 336 335 335 334 333 333 331 329 329 327 325 315 315 310 319 320 317 315 313 312 313 315 318 318
314 314 315 314 314 314 314 314 313 312 313 314 315 316 317 318 321 328 334 337 337 334 335 334 333 332 331 328 326 324 324 319 313 314 314 313 311 310 311 311 311 313 317
314 314 313 313 313 313 313 313 314 313 313 313 312 312 312 313 313 315 318 320 328 334 335 333 331 330 330 329 327 325 321 316 314 310 319 316 317 315 312 308 309 310 311
314 313 313 313 313 313 313 313 313 313 313 314 314 314 315 315 315 315 317 320 323 327 332 332 331 330 329 329 328 326 324 319 314 311 310 313 311 314 314 314 311 307 308

GFSSE_925_thetae_060.txt.gz
Theta_e
343 345 343 346 345 346 346 347 347 346 343 343 339 338 336 331 328 330 338 339 341 340 339 338 337 337 336 335 333 332 331 326 324 326 328 332 332 336 337 337 337 337 337
342 344 343 345 346 346 345 345 343 342 341 340 339 338 334 333 334 339 341 341 338 337 336 336 337 335 335 335 334 331 329 330 328 326 326 326 329 332 333 334 335 336 334
341 345 343 344 344 342 343 342 341 342 340 341 339 336 335 339 338 341 342 339 339 337 334 334 334 334 335 334 330 329 331 330 330 333 335 332 330 332 328 327 329 330 331
343 344 343 343 342 343 342 340 341 340 339 336 335 330 337 338 340 341 342 339 339 336 332 334 332 332 333 331 330 329 330 330 329 330 334 336 332 336 337 339 338 334 332
345 343 343 342 343 342 340 341 340 338 336 332 334 333 340 339 340 341 341 338 335 329 320 329 327 327 330 331 330 330 330 330 329 327 334 336 334 336 336 336 337 336 336
345 343 344 343 342 340 341 340 337 336 334 332 329 339 339 337 340 341 340 338 333 328 317 323 324 328 330 330 330 329 329 329 327 327 331 335 335 336 337 335 334 335 335
344 343 344 343 341 341 340 338 337 335 335 327 331 338 338 341 338 340 338 336 332 330 317 325 325 325 329 330 329 329 330 329 328 328 328 333 335 335 334 333 332 331 332
343 344 343 342 341 341 340 338 337 336 329 321 323 338 338 338 338 338 337 334 332 330 321 325 325 325 328 329 329 329 329 329 328 327 324 327 330 331 331 327 325 324 326
344 343 343 343 341 341 340 339 337 334 331 321 317 335 336 336 336 337 336 335 333 331 327 326 325 325 326 327 328 328 328 329 328 326 326 330 330 330 329 326 323 325 325
344 343 343 342 340 341 340 339 336 334 333 328 321 331 334 335 335 335 334 333 331 327 324 325 325 324 324 325 326 328 327 329 328 326 326 329 331 330 328 326 325 324 324
345 344 343 341 339 340 339 338 337 336 335 332 324 324 330 330 331 333 333 331 331 325 321 324 324 324 322 323 324 326 327 326 325 324 325 328 329 331 328 325 323 323 322
345 346 341 340 340 340 339 338 338 337 336 334 330 324 322 324 325 327 329 330 330 324 325 326 326 324 322 321 322 323 327 324 322 322 323 326 329 331 329 325 323 321 321
341 341 339 342 342 340 339 337 337 338 337 335 334 331 326 320 320 325 327 326 324 323 326 327 327 326 324 321 320 321 323 324 321 319 321 325 329 331 329 325 323 320 321
342 342 340 342 342 341 339 338 338 339 338 336 335 333 331 328 322 320 320 321 320 322 324 325 327 328 327 324 320 319 319 320 320 319 319 324 328 330 330 326 324 322 321
342 342 341 341 341 340 339 339 339 340 339 338 336 334 333 331 330 327 320 320 321 323 325 326 326 327 327 327 326 321 319 319 319 319 318 320 324 327 329 328 325 323 322
341 341 340 340 339 339 339 339 338 338 337 336 335 334 333 331 332 332 329 329 329 328 329 329 329 328 326 325 324 327 327 321 319 318 318 318 318 323 326 327 326 325 323
341 340 339 339 339 339 339 339 338 336 335 335 333 331 330 330 331 334 333 332 332 332 331 330 330 330 329 327 326 327 329 325 323 322 321 318 316 318 323 325 327 325 324
340 340 340 340 340 339 339 339 338 337 335 334 333 332 331 330 331 334 335 335 335 334 333 332 331 331 331 330 329 329 329 330 329 327 323 319 316 316 319 322 324 325 325
337 338 339 340 340 340 339 339 339 338 337 335 334 334 334 334 334 334 335 336 336 335 335 334 333 331 331 332 331 331 330 330 330 330 329 322 317 315 316 319 322 323 322
332 337 337 338 339 339 339 338 339 339 338 335 335 335 335 335 335 334 335 335 335 335 335 334 333 332 331 332 330 330 330 330 329 329 330 326 320 316 315 317 320 322 322
315 322 324 331 338 338 338 338 336 336 335 336 336 337 338 339 339 337 335 334 334 334 334 334 331 330 330 330 328 328 329 329 329 329 329 326 322 318 315 315 317 321 322
313 314 317 320 326 332 337 339 338 338 338 338 338 338 338 338 338 337 338 337 337 334 332 332 331 330 329 330 328 319 321 324 326 326 325 324 322 317 314 313 314 318 321
313 314 314 315 314 314 317 326 331 333 334 335 335 335 333 334 335 335 336 336 336 336 335 335 333 331 329 329 328 327 320 319 314 323 324 322 319 317 315 313 312 312 315
313 314 314 314 314 314 314 314 313 313 313 314 315 316 316 315 315 317 320 327 332 335 336 335 333 332 330 328 327 326 325 321 318 319 320 322 322 322 320 318 312 311 311
313 313 313 313 313 313 314 314 313 313 313 312 313 312 312 312 313 312 313 316 318 321 326 332 334 333 331 329 328 327 325 321 317 313 320 319 319 319 318 318 317 317 314
313 312 312 313 313 313 313 313 313 313 313 313 313 314 314 315 315 315 316 317 318 321 323 327 330 331 331 329 328 326 325 321 317 313 311 312 314 316 317 317 317 316 315

GFSSE_925_thetae_063.txt.gz
Theta_e
343 344 344 345 344 345 345 348 346 346 346 343 339 337 334 329 328 339 340 342 340 339 338 337 338 339 336 335 334 331 326 325 324 325 325 333 337 338 338 336 337 338 337
343 348 343 345 345 344 345 346 344 343 342 341 339 336 327 333 340 342 342 338 337 336 337 337 337 337 337 336 335 333 331 330 328 327 326 326 330 333 333 334 335 335 333
345 348 345 344 344 344 344 343 342 341 340 337 336 332 338 338 341 343 339 339 337 334 334 335 336 336 336 333 331 330 329 330 332 334 333 332 336 337 338 333 328 331 332
345 347 346 344 344 344 342 341 343 341 338 337 335 334 338 340 341 342 340 339 336 332 334 334 334 335 333 330 329 330 330 328 330 334 336 334 336 338 339 340 336 334 336
346 345 344 343 343 343 341 342 341 338 336 333 329 338 337 341 341 342 340 336 330 324 331 331 330 331 330 330 329 329 329 329 326 334 336 335 336 337 338 337 338 337 336
346 345 343 341 343 341 340 341 338 336 332 330 338 338 337 339 340 341 339 335 329 317 321 325 328 329 329 329 329 329 328 327 327 328 335 336 338 336 335 335 334 334 333
345 345 344 343 342 340 341 339 337 334 334 327 338 339 337 336 341 338 337 334 331 319 324 326 326 328 329 329 329 329 329 328 328 326 328 333 334 332 333 332 331 329 329
345 345 344 343 341 340 340 337 336 336 326 326 335 338 338 338 339 337 337 333 332 325 329 331 328 328 329 329 329 329 329 329 328 325 325 330 331 331 330 324 321 324 326
343 343 342 341 341 340 339 338 337 334 327 319 337 337 336 336 336 336 335 332 332 326 325 328 327 326 327 328 328 328 328 329 328 326 326 331 330 330 327 323 324 325 325
344 342 342 342 340 340 339 338 337 331 330 319 330 336 336 335 335 335 335 334 331 326 323 323 323 323 324 325 326 327 328 328 328 326 325 327 329 330 328 325 323 323 323
345 342 342 342 340 340 340 338 336 334 332 328 320 329 332 333 334 334 333 332 332 328 324 325 325 324 323 323 323 326 327 326 326 324 323 325 328 331 329 326 322 320 321
344 344 343 342 340 340 339 338 336 336 335 332 326 321 324 325 325 326 328 328 331 328 325 327 326 324 322 321 321 322 324 326 323 321 321 323 327 331 329 326 323 319 317
341 342 344 343 340 340 339 338 337 337 336 334 332 329 324 321 320 323 325 328 328 326 324 326 326 326 325 322 320 320 321 324 323 320 319 321 324 331 331 327 324 321 318
342 342 343 340 341 340 339 338 337 337 337 336 334 333 330 327 321 319 321 324 324 322 322 325 325 327 327 327 323 319 319 319 320 320 319 319 322 326 331 329 325 323 322
340 341 340 340 342 342 340 339 338 337 338 338 336 335 333 331 329 326 322 319 319 320 322 324 326 326 326 326 326 326 323 320 319 319 318 319 319 323 327 330 328 326 324
341 342 341 340 341 342 340 339 338 338 338 339 337 336 334 332 330 331 331 325 324 325 326 328 329 329 329 328 326 325 325 327 326 321 319 319 319 319 322 327 328 327 326
340 342 340 340 340 339 339 338 338 338 337 337 336 335 334 332 330 329 332 332 332 331 331 330 330 330 330 330 330 329 327 328 329 327 325 323 322 318 317 321 328 328 327
340 341 340 339 339 339 338 338 338 338 337 336 335 334 333 331 330 330 331 333 334 334 333 333 332 332 331 330 331 331 331 330 330 330 330 329 327 322 317 317 320 326 327
339 339 339 339 339 339 339 339 339 338 338 337 335 334 334 333 333 332 332 333 334 335 335 335 334 333 332 332 331 331 331 331 331 330 330 330 329 328 321 317 317 321 324
328 336 337 338 338 339 340 339 338 338 338 338 338 336 335 334 334 333 333 333 334 334 334 335 335 334 333 331 330 330 330 330 330 330 330 330 330 329 327 319 316 318 321
312 323 335 336 337 338 338 338 337 337 338 338 338 336 335 335 335 336 337 337 335 334 334 334 333 333 331 330 328 328 330 329 329 330 328 327 327 327 325 320 316 315 318
312 312 317 323 329 335 338 338 337 338 337 337 336 336 337 337 337 337 337 337 337 337 336 335 332 329 329 330 329 323 329 327 326 326 325 325 324 323 322 319 316 314 313
312 312 313 316 319 325 331 336 336 337 337 337 337 337 337 337 337 336 336 336 335 335 336 336 335 332 329 329 329 329 325 327 319 324 324 323 324 323 321 319 318 316 314
312 313 313 313 314 313 314 316 321 325 324 321 319 320 321 319 318 317 318 321 325 330 333 332 332 333 330 328 327 327 326 324 323 324 322 323 322 322 321 319 319 318 317
312 313 313 313 313 313 313 313 313 312 312 311 312 312 312 312 313 313 313 314 315 317 320 326 329 329 329 327 328 325 325 322 320 317 320 320 320 321 320 319 318 317 315
312 312 312 312 312 312 313 313 313 312 312 312 312 313 313 314 315 315 315 316 316 317 319 321 325 324 327 328 328 327 326 322 319 315 315 315 316 318 317 317 316 316 314

GFSSE_925_thetae_066.txt.gz
Theta_e
346 349 346 345 345 344 345 346 345 345 344 342 341 337 332 329 339 341 342 340 339 337 339 340 339 338 338 337 335 333 330 326 323 324 333 336 338 339 338 337 338 335 336
345 347 345 345 345 345 345 345 345 343 343 341 339 334 333 340 342 343 339 338 337 338 336 338 339 338 338 337 336 336 335 332 330 326 328 327 328 331 330 331 332 332 333
345 347 348 345 344 345 345 345 343 341 338 338 338 338 336 341 343 339 339 337 334 335 337 338 338 337 336 332 330 330 329 331 333 333 334 337 339 340 338 330 328 336 337
347 346 346 345 343 345 344 341 341 340 338 335 334 336 341 342 342 340 339 336 333 335 335 336 336 335 330 329 330 329 328 328 335 337 335 336 337 339 339 337 337 338 339
346 344 346 344 344 343 341 343 341 337 335 333 333 336 342 342 342 340 338 330 329 334 334 334 334 331 329 329 329 329 328 325 334 336 336 338 338 338 337 338 338 337 337
345 344 345 344 344 343 342 342 338 333 329 329 338 333 341 341 343 340 335 329 320 327 330 331 331 329 329 329 329 328 327 327 331 333 335 336 336 335 334 333 332 332 332
344 344 346 342 344 342 341 340 336 333 329 337 338 338 337 341 340 338 336 331 322 327 328 330 329 329 329 329 329 329 328 328 330 330 331 332 333 332 331 327 324 323 324
344 345 345 344 343 341 341 338 335 334 327 337 339 337 334 340 338 336 336 332 324 327 331 329 328 328 329 328 328 329 329 329 330 329 331 332 331 331 328 321 322 324 326
344 346 346 347 343 341 339 337 336 331 324 337 338 338 338 338 337 335 333 332 330 322 326 326 324 326 327 327 327 328 328 328 330 329 329 331 330 331 328 324 324 323 324
345 347 345 345 343 343 341 337 336 330 320 335 337 336 335 336 336 335 334 333 331 324 324 325 326 326 325 326 326 327 327 328 330 329 329 330 329 330 328 325 321 318 316
346 346 344 345 343 343 342 340 335 331 327 321 336 336 335 336 336 336 336 333 331 326 323 325 325 325 324 323 323 325 327 328 328 327 328 325 328 331 329 326 322 319 315
345 342 343 344 344 343 342 340 339 337 335 331 328 330 330 331 332 334 334 332 330 329 323 326 326 325 324 325 325 323 326 326 325 326 326 322 324 331 331 328 323 321 317
344 344 344 344 344 343 342 341 340 339 337 335 332 331 329 329 329 328 331 331 333 330 331 330 332 331 330 327 324 323 323 324 324 323 324 320 321 327 333 329 326 323 320
343 342 343 342 345 342 342 341 341 339 339 337 336 334 332 330 328 327 328 330 331 329 329 330 330 331 331 330 327 324 322 322 322 321 322 320 319 322 331 332 329 325 324
343 343 344 343 343 343 342 342 341 340 339 339 337 336 334 333 331 329 327 327 327 327 327 329 331 332 332 331 329 328 326 324 323 322 321 320 319 319 322 330 331 329 327
342 343 344 343 343 343 343 342 340 340 339 339 338 337 335 334 333 332 332 330 326 327 328 330 332 333 333 333 332 331 330 329 328 326 324 322 322 321 319 320 329 328 328
341 341 343 343 343 343 343 342 340 340 339 339 339 338 337 335 334 332 333 334 333 331 331 332 332 333 333 333 333 333 332 331 331 330 327 324 324 325 324 319 319 329 327
340 340 341 341 341 342 341 341 340 340 340 340 339 339 338 337 335 334 334 334 335 335 334 334 334 334 334 334 334 333 333 332 332 331 331 329 326 326 326 325 319 318 328
339 340 340 340 340 340 341 340 340 340 340 339 338 338 338 337 337 336 336 335 335 336 336 336 335 335 335 335 335 334 333 333 333 332 331 331 330 327 327 326 325 318 318
328 338 339 339 339 340 340 340 340 339 339 339 338 338 337 336 336 336 336 336 336 336 336 336 336 336 336 335 335 333 333 332 332 331 331 330 330 327 325 325 324 324 321
314 316 335 338 339 339 340 340 340 340 340 339 339 339 338 336 335 335 336 337 338 337 337 337 337 336 336 336 333 333 333 331 331 330 329 329 326 324 323 323 323 323 323
315 314 316 327 334 338 339 340 340 340 340 339 339 338 337 336 337 338 338 339 338 338 337 337 336 335 334 334 333 333 333 330 329 327 326 324 323 322 321 320 320 320 320
314 314 314 315 321 327 335 334 333 336 336 335 337 338 336 336 335 336 337 339 336 334 333 333 333 333 333 333 331 332 332 330 326 324 324 322 321 320 319 320 320 318 318
314 313 313 313 314 318 323 326 330 333 334 328 325 327 327 328 326 324 323 324 327 329 330 329 329 330 331 331 329 328 330 328 329 327 324 323 320 319 319 319 317 317 316
313 314 314 314 313 313 313 313 315 315 314 313 312 312 312 312 312 313 313 313 314 317 318 321 324 326 326 328 328 327 325 323 321 322 324 323 322 321 320 318 316 316 315
314 313 314 314 313 313 313 313 314 315 315 315 315 315 316 316 315 314 315 315 315 316 318 320 321 323 323 324 326 327 326 324 324 321 320 319 320 319 319 317 316 314 312

GFSSE_925_thetae_069.txt.gz
Theta_e
348 350 345 341 344 343 345 344 344 344 344 342 340 337 333 342 342 343 341 339 337 341 342 340 340 339 338 336 335 334 330 323 325 330 331 332 333 337 337 335 334 334 333
347 349 345 344 343 344 344 344 344 343 342 342 338 334 338 342 343 339 337 337 338 338 338 339 339 339 338 337 336 336 335 330 328 334 334 340 339 335 328 325 332 338 337
347 348 347 346 344 345 345 345 343 341 340 340 338 337 343 343 340 340 337 335 336 337 337 338 337 337 335 335 332 329 332 332 334 335 338 338 339 337 334 334 338 340 339
345 347 348 345 344 345 345 343 340 338 336 337 338 341 343 342 341 338 335 335 335 336 337 336 336 333 333 332 331 327 329 336 336 336 336 338 338 339 339 340 338 339 336
345 345 349 344 344 345 343 341 340 336 334 332 337 342 343 342 341 338 334 335 335 335 336 335 334 331 330 330 330 325 325 334 335 336 338 336 336 337 337 334 335 336 336
344 345 346 344 345 343 342 341 338 331 331 331 335 341 343 343 341 337 327 323 330 332 334 334 330 330 329 330 328 327 327 330 332 334 334 334 334 334 333 331 328 326 331
343 347 346 344 344 342 343 340 335 330 329 336 335 339 341 343 340 337 331 322 326 329 332 333 330 329 328 329 328 327 326 329 330 331 333 334 332 331 328 327 326 326 327
343 345 346 344 344 342 341 337 334 330 337 338 338 333 340 340 337 336 333 326 325 327 325 326 327 327 328 327 328 328 327 330 330 330 333 332 330 331 328 321 318 322 323
344 344 344 347 344 341 339 336 335 326 338 340 338 337 336 339 335 335 333 331 323 326 326 325 325 326 327 327 327 327 327 328 330 329 329 333 328 331 326 323 320 321 321
344 343 346 346 344 343 340 337 335 325 337 339 339 338 338 337 336 335 333 331 328 322 323 324 324 323 324 324 325 326 327 328 330 329 330 330 328 331 327 324 321 318 314
345 345 347 345 343 342 341 339 335 328 326 336 337 336 335 336 336 333 337 333 330 324 323 323 323 323 323 323 322 322 325 328 329 328 328 330 323 332 329 327 323 321 316
345 346 344 343 343 342 341 340 338 335 330 329 334 335 334 334 335 335 335 331 330 328 322 324 324 324 323 327 326 324 326 327 326 326 326 326 320 327 332 329 326 322 320
345 343 343 344 343 343 341 340 339 338 337 332 329 329 329 330 331 329 332 331 332 330 332 328 331 331 331 329 326 324 324 325 325 325 324 323 320 321 333 332 329 325 322
344 343 345 344 344 342 341 341 339 338 338 336 334 332 332 330 329 328 329 331 333 332 330 330 331 331 331 331 329 327 324 324 323 323 323 322 320 319 322 333 331 328 325
344 343 342 343 344 342 341 340 340 339 339 338 337 336 334 333 331 329 328 328 328 328 327 328 330 332 332 332 331 329 328 327 325 325 324 323 322 320 320 322 331 331 329
343 343 343 343 343 341 342 341 340 339 339 339 338 337 335 334 333 332 332 331 327 327 327 328 332 333 334 334 334 333 332 332 330 330 329 327 325 325 324 322 322 330 329
342 344 342 343 342 343 342 342 340 338 338 338 338 338 338 336 334 333 333 335 334 332 331 332 333 334 334 334 334 334 334 333 333 332 332 330 327 326 327 327 324 323 329
342 342 343 343 342 342 341 340 339 339 338 338 339 339 339 337 337 335 335 335 336 337 336 336 336 336 335 335 335 334 334 334 333 333 333 332 331 329 328 327 327 324 323
340 341 342 343 342 342 341 341 340 340 340 340 340 340 340 339 338 338 337 337 337 337 337 337 336 336 336 336 335 335 334 335 334 334 333 333 332 332 330 328 328 327 325
337 340 341 342 342 342 342 342 341 341 341 341 340 340 339 339 339 338 338 338 338 337 337 337 336 336 336 336 336 335 335 334 334 334 333 332 331 331 330 327 327 327 326
320 334 340 341 341 341 341 341 341 341 341 341 341 340 340 339 338 338 338 338 338 338 338 337 336 336 336 336 334 335 334 334 333 332 331 330 329 327 325 324 325 325 325
318 318 327 338 340 340 341 341 341 341 342 341 341 341 341 340 338 338 337 337 337 338 338 337 336 335 335 334 334 333 334 331 330 331 329 328 326 325 323 322 322 322 321
317 317 317 321 331 337 339 340 340 339 339 338 339 340 339 338 338 337 337 336 336 335 335 335 334 334 334 333 332 332 333 332 328 327 325 325 324 323 322 320 320 319 319
316 317 316 316 318 322 328 336 335 335 337 337 335 335 333 332 331 329 328 328 330 330 330 330 329 329 329 331 331 331 330 330 330 329 326 325 323 322 321 319 319 318 317
316 317 316 316 316 316 317 321 327 330 326 323 319 317 316 316 316 316 315 316 317 319 321 322 323 324 325 326 326 328 328 328 327 324 327 324 324 323 321 321 318 318 316
317 318 316 316 316 316 316 316 317 317 317 316 316 316 317 317 318 315 314 315 316 317 319 320 321 321 321 322 322 324 325 324 323 322 324 324 323 321 319 318 318 315 312

GFSSE_925_thetae_072.txt.gz
Theta_e
349 342 341 344 344 344 344 344 343 343 343 342 339 338 342 343 342 340 339 340 342 340 341 340 339 338 337 336 336 328 321 326 328 335 338 336 333 337 330 335 337 336 333
349 343 339 342 343 344 344 344 343 342 340 338 334 339 343 341 338 336 337 338 340 338 338 338 337 337 336 336 335 331 329 334 335 339 339 336 334 333 334 338 338 339 334
349 346 339 341 344 344 344 344 341 340 339 334 334 343 343 340 338 335 335 337 338 336 336 336 336 336 335 331 330 330 334 334 335 337 339 336 337 339 339 337 338 337 333
349 347 346 343 344 344 344 342 338 334 335 330 340 344 341 340 337 333 335 336 337 336 335 335 335 335 334 329 325 335 335 335 336 338 335 334 336 336 336 336 337 338 337
348 348 346 344 344 345 343 339 337 333 332 331 342 343 341 340 337 333 335 335 336 336 335 335 334 330 330 326 322 332 333 334 337 334 333 333 335 334 333 328 327 331 334
346 348 343 344 345 343 340 339 336 331 330 334 342 343 342 340 335 326 327 330 332 334 334 332 329 328 327 325 324 328 330 330 332 334 334 332 330 330 328 325 324 324 328
349 346 343 344 344 341 341 337 329 328 331 336 341 343 343 340 337 329 322 322 325 328 328 327 328 327 328 327 326 325 329 329 330 333 333 324 327 331 329 325 323 326 327
347 345 343 344 342 342 340 335 331 332 336 334 337 339 342 337 335 334 324 326 326 326 327 326 326 327 327 327 326 326 329 330 330 332 333 331 326 330 327 321 322 321 323
345 345 345 344 341 341 338 334 329 337 338 338 333 338 341 336 334 334 329 322 326 325 323 323 325 325 326 325 325 325 326 330 329 328 333 332 327 329 325 322 321 320 319
344 344 345 344 341 340 337 336 327 337 339 338 337 334 339 335 334 333 330 328 321 322 323 323 323 323 322 323 323 324 325 330 329 328 330 330 322 327 326 324 321 320 317
343 342 346 344 342 342 339 336 330 331 337 338 339 337 337 336 335 332 337 331 326 321 321 321 322 321 321 323 323 320 323 327 328 328 328 328 321 326 327 327 324 321 319
344 343 346 343 341 340 340 337 333 324 331 336 336 335 335 337 337 336 336 332 329 325 320 321 321 322 324 327 326 325 325 327 326 326 326 325 321 321 331 329 327 323 321
344 345 344 343 341 340 339 338 337 334 329 328 332 330 333 333 333 334 331 327 325 327 327 328 328 331 331 330 327 325 324 324 325 325 324 324 322 319 324 332 329 327 324
343 344 342 343 343 341 340 339 339 338 336 331 329 329 329 329 329 328 330 331 333 334 330 332 331 332 331 331 330 328 326 324 323 323 323 323 322 320 319 327 332 329 327
344 343 340 342 343 342 340 339 340 338 338 336 334 333 332 331 330 327 328 329 330 329 328 328 329 330 331 332 332 330 329 328 327 325 325 324 324 324 322 322 325 332 330
343 343 343 343 344 343 341 339 338 338 338 338 338 336 335 334 332 331 330 328 327 326 326 326 328 332 333 334 334 333 333 332 331 330 330 329 328 326 326 325 324 329 331
342 343 342 341 342 342 341 340 338 339 338 338 339 338 337 335 333 332 332 333 333 329 329 329 331 332 333 334 334 334 334 333 333 333 332 332 331 329 328 327 327 325 329
341 343 342 342 343 341 341 341 339 339 338 338 338 337 338 337 335 334 333 333 335 335 334 334 334 335 335 335 334 334 334 334 333 333 333 333 332 332 330 329 328 328 327
340 343 342 342 342 340 342 341 340 337 338 336 338 339 339 338 337 337 336 336 336 336 337 336 336 336 335 334 334 334 334 334 333 334 334 333 333 332 332 330 330 328 327
339 341 341 343 342 342 341 340 340 340 339 340 339 340 340 339 339 338 338 338 337 336 336 336 335 335 334 335 334 334 334 333 334 334 333 333 333 331 330 330 328 326 327
328 340 341 342 342 341 341 340 340 341 340 340 340 340 339 338 338 338 338 338 337 337 336 335 335 334 334 335 335 333 333 333 334 334 333 333 331 329 328 325 323 324 324
318 328 338 341 341 341 341 341 341 340 340 340 340 340 340 340 339 338 337 337 337 337 336 337 337 335 334 333 334 333 331 329 329 329 331 331 328 327 324 322 322 321 321
318 318 323 336 340 340 341 341 341 341 341 341 341 341 340 340 339 338 337 336 336 336 335 336 335 335 334 333 332 331 330 327 327 327 330 328 326 323 322 322 321 319 319
318 318 317 320 335 337 339 340 340 340 339 338 338 339 339 338 338 336 336 334 334 333 332 331 330 329 328 329 328 329 330 330 325 324 326 325 325 323 322 321 320 318 317
317 317 317 316 318 324 334 338 338 336 334 330 331 331 331 327 322 323 321 319 318 317 319 321 322 323 325 325 325 325 323 325 327 325 324 324 324 323 322 321 318 318 316
316 317 316 316 316 316 317 323 326 329 323 320 318 315 316 316 317 316 314 314 315 316 317 318 319 320 320 321 320 320 321 323 323 322 321 321 323 322 320 318 318 316 314

GFSSE_925_thetae_075.txt.gz
Theta_e
346 343 344 344 343 343 343 343 342 341 341 339 342 343 342 340 340 340 342 340 340 340 340 337 337 336 337 336 329 327 331 338 338 337 332 330 333 339 339 337 336 331 332
344 343 343 343 344 344 343 343 341 339 336 334 342 343 339 337 337 339 341 342 338 338 337 336 336 336 336 331 332 334 334 336 337 337 334 334 338 339 339 337 332 334 334
342 342 343 343 343 343 343 342 340 338 330 336 344 341 339 336 334 336 338 338 337 336 335 336 336 334 329 330 333 334 335 336 337 337 336 337 338 338 338 336 337 338 339
341 339 342 343 343 343 343 339 335 335 329 343 342 339 338 334 335 335 337 336 335 334 335 336 335 330 326 333 335 333 334 337 336 334 333 333 333 335 334 332 334 336 335
340 339 342 343 344 343 340 336 332 329 336 342 340 338 339 334 335 335 336 335 334 334 334 334 329 326 322 332 332 331 335 334 333 332 331 328 326 330 328 326 326 331 332
346 343 343 343 343 342 338 335 330 330 339 342 341 340 336 333 333 334 334 335 334 334 333 328 326 324 323 325 329 330 331 332 333 332 328 321 327 330 327 324 326 328 330
348 344 344 344 343 340 339 332 330 330 339 342 342 341 338 334 320 322 326 329 331 330 328 327 327 327 325 324 326 329 329 331 333 332 330 322 328 331 328 325 325 325 326
346 343 344 345 341 340 336 329 329 332 339 341 343 342 337 334 328 320 321 323 326 326 326 326 326 326 325 325 324 328 330 330 331 332 332 326 325 329 327 324 323 322 324
343 343 345 342 341 339 334 330 333 335 336 338 340 342 336 333 332 323 321 324 323 322 323 324 325 325 324 324 324 325 329 329 328 330 331 328 323 327 324 321 320 320 319
343 343 343 342 341 338 333 329 335 337 336 332 338 340 335 334 332 329 324 320 322 322 322 322 322 322 321 321 321 323 329 329 329 329 329 329 323 324 325 324 321 320 317
344 344 343 341 340 337 335 328 333 338 337 335 333 340 335 334 332 329 328 325 320 319 320 320 321 321 320 324 323 320 327 327 327 327 327 327 325 320 325 326 324 321 320
343 343 343 341 340 338 335 333 324 335 338 338 336 336 335 335 335 333 334 330 326 321 318 319 320 321 326 327 326 324 325 326 326 325 325 324 324 320 323 327 327 325 321
342 343 344 341 340 340 338 336 327 322 333 336 334 331 335 336 336 335 335 329 326 325 322 324 325 330 330 329 328 325 324 323 323 324 324 324 323 322 319 328 328 328 326
341 343 343 340 339 338 338 338 337 332 325 327 329 329 332 334 332 329 329 330 330 332 328 330 330 331 331 330 330 329 328 326 325 323 323 322 322 323 321 321 331 330 328
340 342 342 342 339 339 337 338 338 337 335 330 328 329 329 329 328 328 328 331 331 330 330 329 329 329 330 331 332 331 330 330 329 327 325 324 325 325 325 323 325 332 331
342 342 340 342 341 341 338 338 338 339 337 334 332 330 332 332 330 328 327 328 329 329 328 327 327 329 332 333 333 333 333 333 332 331 331 330 330 331 329 327 326 327 332
342 342 342 343 343 342 339 338 337 338 337 337 336 336 334 334 332 331 331 330 329 327 326 326 328 330 332 333 333 333 333 333 333 333 333 332 332 331 331 331 329 327 327
342 341 340 341 342 343 341 339 337 338 338 337 337 337 337 335 334 333 332 332 334 333 332 331 331 332 334 334 334 334 334 334 333 333 332 332 332 332 332 332 330 329 328
341 342 341 341 340 341 341 340 338 340 338 337 338 337 336 337 336 335 333 333 334 335 336 335 335 335 334 334 333 333 333 333 334 333 333 334 333 332 331 332 330 329 328
339 341 342 342 341 339 339 341 340 339 336 337 336 336 338 338 338 337 336 336 336 336 335 335 335 335 334 334 333 333 334 334 333 333 333 333 333 333 332 328 329 325 324
339 340 341 342 341 340 340 340 340 339 338 337 339 339 338 338 338 338 338 338 337 336 336 335 335 335 334 334 333 332 333 331 329 329 330 332 333 332 330 327 324 322 323
337 339 340 340 340 341 340 339 339 338 339 338 337 338 338 339 338 337 338 338 337 335 335 335 335 335 333 332 332 331 330 328 328 327 328 328 331 328 326 324 322 321 320
324 336 339 340 340 339 339 339 339 339 339 339 339 339 340 339 339 337 338 337 336 335 335 335 335 335 334 331 330 330 329 325 325 326 327 329 327 326 323 322 321 320 319
318 322 334 338 341 339 339 340 339 339 339 339 339 340 340 340 339 338 337 336 335 334 334 333 332 331 329 329 328 328 329 330 328 325 324 325 324 323 322 320 321 319 318
317 317 319 325 337 340 339 339 340 339 339 338 337 338 338 337 337 336 334 332 330 325 323 322 323 324 325 325 325 324 324 323 323 325 322 321 324 324 321 320 318 317 316
317 317 317 317 321 330 334 337 338 338 335 331 331 332 331 326 319 316 315 314 314 315 316 317 318 319 320 320 321 321 320 320 321 322 321 320 320 322 320 316 316 316 315

GFSSE_925_thetae_078.txt.gz
Theta_e
344 345 344 344 344 343 342 344 343 341 338 343 342 341 341 342 342 342 341 340 339 339 338 337 337 336 333 335 337 338 338 338 335 328 330 339 339 340 338 333 331 333 334
344 345 343 344 342 343 344 342 340 334 336 343 341 337 338 340 342 342 343 343 340 337 336 337 337 337 338 338 335 335 336 336 334 337 339 339 338 338 337 335 337 340 338
345 344 343 342 344 343 342 341 338 328 340 343 340 337 335 338 341 341 340 339 337 337 336 336 336 337 337 337 335 335 336 336 335 336 335 335 335 336 336 335 335 336 336
345 344 343 343 343 342 341 339 336 327 343 340 338 336 335 335 338 338 337 336 335 336 336 335 332 332 334 334 333 336 336 335 333 331 327 326 329 331 330 333 333 333 333
345 344 343 342 343 343 339 335 331 338 343 337 338 335 335 335 336 338 334 334 334 335 335 329 325 332 333 331 333 335 334 333 332 329 324 319 325 328 328 327 328 331 332
344 343 343 343 343 341 334 331 328 342 342 337 338 335 335 336 337 337 334 333 331 334 333 324 321 329 332 330 331 332 333 333 332 325 320 324 328 329 327 327 328 329 330
342 342 343 343 343 338 333 330 332 341 342 340 340 336 333 335 335 336 334 333 333 333 326 324 323 322 328 328 329 329 330 332 332 331 324 323 328 329 327 325 325 326 328
342 343 343 343 340 339 333 331 335 341 342 341 340 338 332 331 333 332 332 332 326 326 326 325 324 323 322 324 328 329 329 330 330 331 329 322 325 326 322 323 323 323 324
343 344 344 342 340 336 328 329 334 341 342 342 341 335 333 324 320 320 323 325 325 325 325 324 324 323 323 323 325 329 329 328 328 330 329 326 323 323 322 320 320 319 315
343 343 344 341 339 334 329 330 333 339 339 342 342 335 333 330 322 322 325 324 322 322 323 323 323 322 322 321 322 325 329 329 328 328 329 328 324 322 323 323 320 319 318
344 344 342 340 338 333 330 332 334 334 335 337 343 336 334 331 328 325 321 322 322 322 321 321 320 320 320 322 321 321 328 327 326 327 328 327 325 321 322 325 324 321 320
342 343 341 341 338 334 329 331 337 336 333 334 340 337 335 333 329 328 327 325 320 319 320 320 321 321 323 325 325 324 325 325 325 325 325 325 324 322 321 324 327 326 323
340 341 341 340 338 336 334 327 336 337 336 335 334 336 335 335 335 333 334 329 326 324 319 318 320 323 328 328 327 325 324 323 323 324 324 324 323 322 322 325 327 328 327
335 339 340 340 339 338 336 334 324 333 336 336 335 334 335 335 335 335 333 329 326 324 325 328 330 331 331 330 330 329 328 327 325 325 323 322 323 323 323 323 329 330 329
327 336 340 340 338 337 337 337 332 324 325 324 327 329 331 332 333 331 328 329 330 331 330 329 329 329 329 330 331 331 330 330 330 329 328 326 325 326 327 326 325 331 332
338 339 338 339 338 337 337 337 338 336 332 329 329 329 330 330 329 328 327 328 330 329 329 328 327 327 329 331 332 333 333 332 332 332 332 331 330 329 330 330 329 327 329
340 338 335 332 339 339 338 337 338 339 339 335 331 330 329 330 331 330 327 327 327 327 326 326 326 326 329 332 332 332 333 333 333 333 333 332 331 331 330 330 330 329 329
340 340 339 340 339 338 339 338 337 338 338 336 334 334 333 333 333 332 330 330 330 330 329 328 328 329 331 333 334 334 333 333 332 333 334 331 332 332 332 330 330 331 329
340 341 340 340 334 330 337 339 337 336 337 339 337 336 336 336 335 333 332 332 331 334 334 333 333 334 334 332 332 332 332 331 331 332 332 332 333 333 332 331 329 330 327
339 340 339 338 335 337 340 338 339 338 339 338 337 337 336 336 336 336 335 333 333 334 335 335 334 334 334 334 333 332 332 332 333 332 330 330 332 333 332 331 330 328 325
340 339 340 340 340 340 340 341 340 339 340 337 337 337 336 336 335 337 336 337 336 336 334 334 334 334 334 334 333 331 328 329 329 327 327 328 329 331 331 330 328 324 322
338 339 338 340 340 341 340 339 339 340 339 337 336 336 338 338 338 338 337 337 337 336 335 334 335 335 334 333 332 331 327 327 327 327 327 327 327 329 328 325 323 322 321
336 338 338 339 339 340 340 339 340 339 338 338 337 336 337 339 338 338 338 338 337 337 335 334 334 334 335 333 332 331 328 324 324 327 326 324 326 327 324 323 322 321 320
332 337 337 338 339 339 338 338 339 339 338 338 336 336 337 338 338 338 338 337 337 336 335 333 334 333 331 330 329 327 328 329 326 325 323 324 324 323 321 320 320 320 319
319 324 334 336 336 337 337 336 336 335 335 336 336 336 335 335 337 337 337 336 336 335 334 332 329 326 325 325 325 324 323 323 323 321 321 320 321 322 321 319 318 317 316
316 316 317 324 332 335 335 335 335 333 333 334 334 335 334 334 334 333 331 331 330 325 319 315 316 317 318 319 320 320 321 319 319 319 317 318 318 319 319 318 315 314 313

GFSSE_925_thetae_081.txt.gz
Theta_e
344 344 345 345 345 344 344 343 340 340 339 342 343 344 343 343 343 343 341 340 340 338 337 336 335 337 340 340 339 338 337 331 332 338 338 337 337 336 336 336 338 337 332
343 344 345 344 344 343 344 342 333 340 340 340 341 343 344 342 343 344 342 340 339 337 338 337 336 338 339 338 336 335 333 336 338 338 336 336 336 337 338 338 336 337 336
345 344 344 344 343 344 343 341 330 341 343 335 337 340 343 342 343 344 341 339 337 337 337 337 339 339 339 337 335 335 333 335 334 334 333 333 333 334 333 333 332 335 335
345 344 344 343 343 343 342 337 329 342 342 337 336 337 340 342 343 341 339 337 336 336 337 337 338 336 334 334 336 335 333 331 330 325 322 321 327 329 329 332 332 332 333
344 343 343 344 343 343 341 336 332 342 341 336 335 335 337 340 339 338 336 336 336 334 332 332 333 333 332 335 334 333 332 331 326 320 319 321 323 328 329 329 329 331 332
344 342 344 342 342 342 340 334 337 343 339 334 335 335 335 337 336 335 335 335 331 324 325 331 333 331 331 333 333 333 332 331 325 321 322 324 325 328 327 327 327 329 331
342 342 342 342 342 336 335 331 342 341 340 337 335 336 336 338 336 335 334 330 326 322 321 326 331 331 330 330 330 331 331 331 330 326 322 323 327 329 328 326 326 327 329
342 342 342 342 339 334 333 332 342 341 339 338 336 335 336 338 337 334 333 332 326 322 321 321 322 327 328 328 328 329 329 330 330 330 325 323 326 326 323 321 321 324 325
341 342 343 342 339 336 331 335 340 342 340 339 337 333 333 334 334 334 333 333 329 325 324 323 323 322 323 325 328 328 328 327 328 329 328 326 324 324 322 320 319 319 316
340 342 343 340 339 331 330 331 340 341 341 340 336 333 323 320 325 332 334 334 331 326 325 324 323 323 322 323 325 328 328 328 328 328 328 327 325 323 323 323 321 319 318
342 343 343 339 336 330 328 331 337 340 343 342 337 332 330 322 322 324 324 324 324 323 323 323 322 321 320 320 320 324 328 326 326 326 327 326 325 324 321 324 325 323 321
344 343 341 339 336 331 329 333 334 338 338 341 339 334 332 329 325 322 321 322 322 322 322 321 321 321 321 324 324 323 326 325 325 325 325 325 324 327 324 323 325 326 325
342 342 340 340 337 333 328 332 335 334 335 338 340 335 334 332 329 328 328 325 322 320 319 320 321 321 325 327 326 325 323 323 323 323 323 324 323 323 325 325 325 327 327
340 339 338 339 337 336 333 327 336 336 334 333 338 337 334 334 334 333 333 330 327 325 323 319 322 329 329 329 329 329 328 328 327 325 325 323 323 323 324 325 327 327 329
336 332 329 337 337 337 337 335 327 335 336 336 334 335 334 335 334 334 333 331 329 326 328 327 329 329 329 330 330 330 331 330 330 330 330 329 328 326 326 326 327 329 331
328 327 328 330 334 337 337 336 334 325 327 334 334 332 330 332 331 332 329 328 329 329 329 329 328 327 328 329 331 332 332 332 332 332 332 332 331 330 329 328 329 329 330
326 327 328 328 329 335 338 337 336 337 332 327 327 328 330 329 329 330 328 327 327 329 328 328 326 325 326 329 331 332 332 333 333 333 333 333 332 331 330 330 330 328 329
331 330 334 335 338 335 336 337 336 337 338 338 334 331 329 329 329 329 328 328 327 327 327 326 325 326 328 330 332 333 333 332 331 330 330 331 330 331 331 331 330 329 330
336 335 336 335 333 332 336 334 333 334 337 338 337 335 331 331 332 332 331 330 330 331 331 331 331 332 333 332 331 330 331 331 330 330 331 331 332 332 332 332 331 330 329
337 339 338 336 334 334 335 335 326 331 337 337 337 337 334 332 333 334 333 332 331 331 333 334 335 332 332 332 332 332 331 330 329 328 328 328 327 328 331 332 331 330 328
338 338 337 336 335 336 338 330 329 332 337 338 338 337 335 334 335 336 336 335 333 333 334 334 334 334 334 333 334 333 329 328 328 327 327 327 327 328 329 331 331 329 326
336 336 338 336 337 338 334 336 337 338 338 337 338 336 337 336 336 336 334 335 336 335 335 335 334 334 334 333 333 332 329 326 326 326 326 326 325 325 328 329 327 325 323
335 337 337 337 338 337 337 338 338 337 337 337 336 336 336 336 337 336 336 335 336 335 334 334 334 333 332 332 330 331 328 323 322 326 325 324 324 325 325 324 322 322 321
322 335 336 336 335 336 337 336 335 336 335 334 335 335 335 335 334 334 336 335 333 332 333 334 334 332 332 332 329 329 328 328 325 322 323 323 322 322 322 321 320 319 319
321 323 333 334 335 335 335 334 335 335 334 333 333 332 331 332 333 333 331 331 331 331 333 332 333 331 330 329 327 325 323 322 322 322 322 319 321 321 320 320 319 318 317
317 318 324 330 334 336 337 335 335 335 334 333 332 331 328 329 330 329 331 330 330 330 329 328 325 320 317 318 318 319 320 320 317 317 316 316 317 318 318 318 317 315 315

GFSSE_925_thetae_084.txt.gz
Theta_e
342 344 345 345 344 344 343 342 342 339 342 345 343 344 343 344 343 343 341 340 338 336 336 337 340 339 339 339 338 336 336 338 337 336 334 334 337 339 338 337 336 334 333
342 344 344 344 344 344 343 338 341 335 341 343 344 344 344 344 344 343 341 339 337 337 336 337 339 339 339 339 337 337 338 337 336 333 333 333 333 335 336 334 335 334 334
343 344 344 344 343 343 342 333 340 337 339 342 344 344 342 344 343 342 340 338 337 337 337 339 338 338 338 334 334 336 334 331 329 326 328 324 329 332 333 332 333 332 334
344 344 344 344 342 343 341 331 340 342 334 338 342 342 343 343 343 341 338 337 337 338 338 339 339 337 335 335 333 333 329 327 322 318 318 322 327 329 331 332 331 332 331
344 344 344 342 343 342 338 330 341 342 338 336 338 342 343 343 342 340 338 336 337 337 337 338 335 333 335 334 333 331 330 321 320 321 322 323 326 329 329 328 329 331 331
344 344 342 342 342 341 337 329 342 343 338 336 336 338 339 340 339 338 336 335 335 336 335 333 332 334 334 334 333 332 330 324 321 322 323 325 328 329 328 328 329 330 331
343 343 343 342 342 340 336 330 342 340 337 336 336 336 337 337 337 336 335 333 331 332 332 333 331 331 331 331 331 331 330 329 327 322 323 324 328 329 327 327 326 327 329
342 343 341 341 339 333 332 333 342 338 337 336 336 335 336 335 335 335 333 334 332 331 332 331 330 329 329 328 328 329 329 329 329 327 325 324 327 329 324 321 322 325 325
342 341 341 340 335 328 328 340 342 339 337 333 334 335 337 335 335 334 333 333 331 328 326 325 325 325 326 327 328 328 327 327 328 328 327 325 326 327 323 321 319 320 319
341 342 341 339 335 329 325 339 341 340 338 336 329 332 333 335 334 335 333 334 330 324 324 323 323 323 323 324 327 327 327 327 327 327 327 326 326 325 323 324 323 321 319
340 342 341 338 335 328 326 335 341 341 340 337 333 329 325 328 331 332 330 331 325 324 324 323 323 322 321 321 322 324 327 326 325 325 326 326 325 327 323 322 325 325 323
341 341 340 338 333 327 327 331 339 341 343 338 335 331 325 323 323 323 324 324 323 323 322 322 321 320 320 322 323 321 325 325 324 323 324 325 324 329 327 325 324 326 326
342 341 340 337 333 328 325 327 335 339 340 341 338 333 331 328 325 323 322 322 321 321 321 321 321 321 322 325 325 324 323 323 323 323 323 323 323 324 330 327 326 326 327
339 340 339 338 335 331 327 328 330 336 336 336 339 335 333 331 329 327 328 327 325 323 321 319 319 322 325 328 329 329 328 328 328 327 327 325 324 324 325 328 328 329 329
331 338 339 338 337 334 331 328 329 334 334 333 339 338 335 333 332 332 333 332 329 326 324 324 325 328 329 329 329 330 330 331 331 330 330 330 329 327 326 326 328 329 332
337 340 339 338 336 335 336 332 330 330 334 335 334 335 335 334 334 334 333 330 329 329 328 328 328 328 327 328 330 331 332 332 332 332 332 332 332 331 329 328 329 328 330
334 335 336 336 333 330 331 336 335 330 325 329 333 335 334 332 332 331 331 329 327 328 329 329 328 327 325 326 329 331 331 332 332 332 332 331 330 330 330 330 328 330 329
334 331 332 330 327 326 326 332 336 336 335 332 328 327 328 329 329 329 330 328 327 327 328 328 327 325 325 327 330 333 332 331 330 330 329 329 330 330 330 329 330 331 330
331 328 331 330 327 327 327 329 337 336 334 335 337 336 332 330 330 330 329 330 328 327 327 328 327 327 330 332 331 330 330 330 330 329 329 329 328 328 328 328 331 331 330
329 329 329 334 331 329 329 331 336 336 329 333 336 338 337 336 331 329 329 330 329 329 330 330 331 331 331 331 331 330 331 331 329 327 328 327 327 326 326 327 330 331 330
335 332 333 335 333 335 334 336 336 335 330 330 336 337 337 337 336 331 331 332 331 330 331 331 333 334 331 330 331 331 331 330 329 327 326 326 326 326 326 327 329 330 329
335 333 333 334 334 332 332 336 334 334 331 332 334 336 336 336 335 334 333 334 334 333 332 333 334 334 332 332 333 331 326 326 327 325 325 325 325 324 324 326 329 329 327
336 336 337 337 336 333 331 335 333 333 332 332 330 335 336 335 334 333 333 334 334 333 333 332 331 332 332 332 331 328 327 323 321 326 325 324 323 323 324 326 326 325 323
327 335 336 337 336 335 334 334 334 334 333 334 333 333 332 334 334 333 333 333 333 332 330 327 325 330 330 331 331 330 328 328 326 321 321 322 321 320 321 321 321 321 321
318 320 331 335 335 335 335 334 333 333 334 334 334 333 331 330 332 332 331 331 327 325 324 323 324 331 330 329 328 327 324 323 322 320 318 317 320 319 320 319 318 318 318
316 316 319 329 334 334 335 333 332 333 333 332 332 332 331 331 331 331 330 327 325 329 329 329 328 326 322 318 317 318 319 318 316 315 314 315 315 317 318 318 317 317 316

GFSSE_925_thetae_087.txt.gz
Theta_e
344 345 345 345 345 344 340 340 340 341 340 341 344 344 342 341 343 342 340 338 337 337 338 338 340 339 338 338 337 340 339 337 334 333 334 338 339 337 338 334 334 335 333
344 346 345 343 345 344 340 341 338 341 341 341 342 344 344 344 344 342 340 338 337 338 339 339 339 338 338 338 340 339 336 333 331 329 330 332 334 335 334 334 334 337 338
345 347 346 343 343 343 337 340 336 341 343 343 343 344 344 344 344 341 339 338 337 337 340 338 338 337 338 338 340 337 329 325 323 321 319 327 331 333 332 332 331 333 335
345 347 346 343 342 342 333 339 335 340 342 343 343 344 344 343 342 340 338 338 338 339 338 338 337 336 335 335 336 328 324 319 318 317 324 328 328 331 332 332 333 331 332
346 346 345 343 342 342 332 341 340 332 339 343 341 343 343 342 341 338 338 338 337 339 338 337 337 337 336 335 332 327 319 320 321 322 325 328 329 330 330 329 331 332 332
344 345 344 342 342 337 329 340 340 330 325 338 342 342 343 341 340 338 337 336 336 338 339 336 335 335 335 333 331 328 323 321 321 323 325 328 330 330 329 330 330 331 331
344 343 343 342 341 335 328 341 341 337 329 332 340 341 341 339 338 337 337 335 336 338 336 333 333 333 333 333 331 330 329 327 323 323 323 328 330 330 329 327 327 327 329
343 343 343 341 339 334 328 341 340 334 334 335 335 337 337 336 336 335 335 337 337 335 334 332 330 330 329 328 329 329 328 328 327 326 324 328 329 329 327 323 324 324 324
342 342 342 341 337 334 329 341 339 334 330 334 332 333 333 334 334 335 334 335 335 334 332 331 329 327 327 327 328 328 326 327 327 327 326 326 328 329 325 323 321 319 318
342 341 341 337 334 332 333 341 339 336 331 333 334 335 332 333 334 334 335 334 333 327 326 325 325 324 324 325 327 327 327 327 327 327 326 325 326 326 323 324 324 323 320
342 341 340 335 329 328 338 341 339 338 335 329 331 334 335 333 334 331 332 333 327 325 325 324 324 323 322 322 323 324 326 326 325 325 326 325 325 329 325 323 325 325 325
341 341 338 334 329 326 336 340 340 340 338 335 330 325 329 331 331 329 328 327 326 324 324 323 322 321 320 320 322 321 324 324 323 322 323 325 324 328 330 326 326 326 327
339 341 338 334 327 325 331 338 341 341 340 335 334 328 323 324 325 325 325 324 323 322 322 321 321 320 320 323 324 324 323 323 324 323 323 322 323 323 330 330 328 328 328
340 339 338 333 328 325 326 336 339 340 340 335 336 332 330 327 325 323 323 322 321 320 320 320 320 320 321 325 328 328 328 328 328 328 328 327 326 325 324 329 330 330 330
338 336 337 334 330 326 325 327 335 338 338 339 339 337 333 331 328 327 327 328 328 326 324 322 319 322 328 329 329 330 330 330 331 331 331 331 330 330 329 328 327 330 331
334 337 337 334 332 330 327 326 327 332 334 334 335 339 337 334 332 332 332 332 331 328 326 325 325 327 327 327 328 330 331 332 332 332 332 332 332 331 329 329 328 328 331
333 336 336 335 334 332 331 332 331 328 333 333 332 332 333 334 333 333 333 333 330 329 329 328 329 328 326 326 327 330 331 332 332 332 331 329 329 329 329 328 330 329 329
330 331 332 326 332 335 334 333 334 333 327 326 326 329 332 332 330 330 331 330 330 328 327 328 328 327 326 324 327 331 331 330 329 329 329 328 328 329 329 329 329 330 330
330 329 331 332 334 335 334 335 336 335 334 332 328 328 327 328 327 329 329 328 329 329 327 326 328 326 325 328 331 331 329 329 329 329 328 328 328 327 327 327 326 326 330
326 329 331 332 331 332 329 329 331 336 336 334 333 333 333 334 331 330 330 330 329 329 327 326 327 328 329 331 331 330 329 330 331 330 328 327 327 325 325 325 326 327 331
330 331 332 332 331 330 332 328 333 334 336 336 335 332 334 336 336 332 331 331 330 329 329 329 329 330 332 331 331 331 330 330 328 329 327 326 324 323 324 325 326 328 330
332 332 331 333 331 332 326 327 332 333 334 332 332 331 332 334 335 333 332 330 330 330 329 330 330 332 333 331 331 331 330 328 326 326 325 325 324 324 324 324 325 328 329
331 328 331 331 333 334 332 333 332 333 333 332 332 332 331 328 331 333 331 330 330 330 329 329 330 330 330 329 328 328 330 330 325 325 325 324 323 323 322 322 323 325 325
332 332 333 331 330 331 333 332 331 331 331 331 331 330 327 327 327 327 331 332 332 331 329 328 326 323 323 327 327 327 327 327 330 328 321 321 321 320 320 319 320 321 321
327 330 332 332 332 333 332 332 332 332 331 332 331 331 331 330 331 331 332 332 330 328 327 323 324 323 323 324 325 327 325 324 322 321 321 319 318 317 318 318 319 318 318
314 315 317 328 334 334 334 333 333 333 332 331 331 331 331 331 331 331 332 331 329 325 325 324 324 324 327 326 324 319 318 318 317 317 317 317 316 316 316 316 317 317 316

GFSSE_925_thetae_090.txt.gz
Theta_e
344 347 345 344 345 344 341 341 341 337 339 344 345 345 341 343 343 341 339 339 340 341 341 342 339 341 339 343 342 341 340 337 335 337 340 336 338 339 336 335 337 337 334
344 347 345 345 344 343 341 340 340 339 338 343 343 345 344 344 344 342 339 338 338 340 342 338 338 338 339 342 339 339 332 329 329 331 331 329 334 336 335 334 337 336 336
345 347 346 344 342 342 338 339 340 340 340 342 342 344 344 344 343 341 339 339 338 342 338 338 339 338 340 339 334 328 322 323 319 320 327 328 330 333 331 332 334 337 337
345 346 347 343 343 338 338 339 342 341 340 341 342 343 345 344 342 340 338 338 340 338 337 337 338 338 338 337 329 322 318 317 320 327 328 328 327 332 333 333 333 334 336
345 346 346 343 343 336 338 336 342 343 342 342 342 343 344 342 341 339 339 337 338 337 336 336 336 336 337 332 324 320 321 321 326 329 330 330 329 330 331 332 332 331 333
345 346 346 343 342 335 336 338 340 342 343 342 342 343 342 341 340 339 337 337 338 337 336 337 336 336 333 330 325 322 321 323 328 329 330 330 330 331 330 331 331 332 328
345 345 345 342 342 333 340 340 332 338 342 341 342 343 341 340 338 337 336 336 337 336 337 337 335 335 333 331 329 328 325 326 329 329 330 330 330 331 330 329 328 329 330
344 344 344 343 340 332 340 341 331 326 337 342 342 343 341 339 337 337 336 336 337 337 336 335 332 331 331 331 329 328 328 328 330 330 330 330 330 330 329 327 327 327 327
343 343 343 343 339 332 341 341 336 328 328 339 340 339 337 336 335 335 336 336 337 336 333 331 330 329 327 328 328 327 326 327 330 330 329 330 328 330 328 325 323 321 319
343 342 342 342 339 336 342 340 332 328 330 333 334 335 334 334 334 334 334 336 337 334 332 330 327 326 326 327 327 327 327 327 330 330 330 330 327 327 324 325 325 324 322
341 342 342 342 337 335 340 340 334 329 333 332 333 332 333 333 333 333 334 335 334 329 327 325 324 323 323 323 325 326 326 327 327 327 329 325 325 329 326 324 325 326 325
341 341 341 339 335 335 341 341 338 335 332 333 336 332 331 332 332 332 333 333 329 327 326 325 324 323 322 324 324 321 325 326 325 325 327 324 324 328 332 328 327 326 327
339 341 340 336 333 336 340 340 340 338 336 331 330 333 332 332 333 332 332 332 332 327 329 328 328 326 326 326 327 326 326 325 326 326 325 323 323 324 331 333 329 329 329
331 340 339 336 332 335 340 341 341 341 337 336 332 328 328 329 330 330 330 331 330 329 329 328 327 327 326 327 329 330 329 330 330 329 329 328 327 326 325 328 331 330 330
328 336 338 335 334 333 340 340 340 341 338 336 336 332 330 329 328 328 328 328 328 328 327 326 325 324 326 329 330 331 332 332 332 331 331 330 330 330 330 329 328 331 333
329 332 335 335 333 333 335 339 339 340 340 340 338 336 335 333 331 331 330 333 333 332 329 328 327 326 329 330 329 330 331 332 332 332 332 332 332 331 330 329 330 329 330
329 329 334 335 334 333 332 334 338 339 339 339 339 338 337 335 334 334 334 335 334 332 331 330 330 329 329 329 329 330 331 332 333 333 333 331 331 330 328 329 330 329 329
329 329 331 335 334 331 333 333 333 335 336 336 336 337 337 336 335 334 335 334 334 332 331 331 330 330 330 327 327 330 332 332 332 331 330 330 329 330 330 329 327 327 328
329 330 331 337 336 335 334 333 332 334 333 332 333 334 335 335 334 332 333 332 332 332 331 330 330 329 329 328 330 332 332 331 330 330 330 330 330 330 330 328 327 326 326
331 329 328 329 335 335 336 335 334 332 332 332 333 333 334 334 334 333 332 332 332 332 331 329 329 329 329 332 332 331 331 331 331 331 331 330 329 328 327 327 328 329 328
331 330 328 329 330 334 335 336 337 338 336 335 335 333 333 332 331 331 331 332 332 332 332 331 330 329 331 331 331 331 331 331 330 329 330 328 327 326 326 326 327 328 329
329 330 329 330 328 329 333 334 333 335 337 337 336 333 330 335 334 334 333 331 330 328 328 331 331 332 333 332 331 331 331 328 327 327 327 326 326 325 324 325 325 326 328
328 329 331 331 332 334 334 334 331 332 332 335 336 336 333 332 330 329 330 330 329 330 330 331 332 332 332 331 329 329 330 329 326 326 326 325 324 323 323 323 322 322 324
331 330 330 331 331 330 334 332 331 331 332 331 332 331 329 328 328 328 326 326 325 329 331 329 327 326 324 326 326 325 324 326 327 328 323 322 322 320 320 320 319 319 320
329 330 330 328 328 329 331 331 331 332 330 328 330 330 330 330 327 329 329 329 328 330 329 327 327 326 325 323 323 324 324 325 328 328 321 318 319 318 318 317 317 317 317
325 325 329 331 331 331 330 329 331 332 331 330 331 331 331 331 330 330 330 331 331 331 328 327 324 324 323 323 324 325 326 322 320 320 320 318 318 317 316 315 315 315 314

GFSSE_925_thetae_093.txt.gz
Theta_e
346 348 344 343 345 344 337 334 332 330 341 346 344 345 345 344 344 339 339 344 343 345 344 343 343 342 343 342 341 339 338 337 339 337 336 339 338 338 339 339 337 336 336
346 348 344 344 344 343 338 337 334 330 341 344 344 346 345 345 344 340 342 343 342 344 341 340 339 342 343 340 338 336 330 331 333 327 327 332 335 336 337 336 336 337 336
346 348 346 344 343 342 338 336 335 333 340 344 343 344 345 345 344 340 340 339 341 342 337 336 338 341 340 337 331 324 324 319 324 327 328 328 332 334 334 335 338 339 339
346 348 347 344 343 340 336 341 339 336 340 343 342 343 345 344 342 340 340 340 341 337 337 337 338 338 336 329 321 318 316 324 328 330 329 327 328 333 334 335 336 338 339
347 348 346 343 342 340 336 342 340 339 341 342 343 343 344 343 341 339 338 340 337 336 336 336 337 336 333 325 320 320 321 328 329 330 331 330 329 331 332 333 332 334 335
346 345 347 343 343 340 337 341 342 338 339 342 342 342 343 342 340 338 337 338 337 335 334 336 337 334 329 322 321 321 325 329 330 331 330 330 331 331 331 331 332 332 333
344 346 346 342 342 339 335 341 342 342 341 341 341 343 342 340 339 338 337 336 336 334 336 336 336 332 330 327 326 323 327 329 330 331 331 331 331 331 331 329 329 329 327
345 345 346 342 342 338 335 341 342 343 341 341 343 342 340 338 338 337 336 336 335 337 337 337 336 333 331 329 328 327 326 330 330 330 331 331 329 331 329 325 324 323 320
344 344 344 344 342 337 339 336 337 342 341 342 342 341 339 337 336 336 336 336 335 337 336 334 332 330 329 329 328 326 326 330 331 330 331 331 327 330 326 325 324 322 320
343 344 343 343 342 338 342 337 327 332 341 342 342 340 338 336 335 335 335 336 336 336 334 331 329 328 327 327 327 326 326 328 331 331 330 328 325 326 324 325 325 325 324
330 331 338 342 340 336 341 340 332 328 336 339 337 335 335 333 334 334 336 335 336 335 332 330 327 325 325 325 326 326 326 329 327 328 330 326 325 328 326 325 325 326 326
325 325 325 341 339 336 340 338 334 332 331 333 335 334 333 333 333 333 335 334 335 331 328 326 324 323 322 326 324 321 325 327 326 327 328 326 324 328 331 328 328 327 328
324 325 325 338 339 334 340 337 333 331 330 330 330 331 331 332 332 334 334 333 332 326 328 325 324 325 326 326 326 327 326 326 326 327 326 323 323 324 329 333 330 330 330
326 325 324 329 337 334 340 338 333 331 330 333 332 332 332 333 332 332 332 331 331 328 330 329 329 328 327 327 327 328 329 329 330 330 329 328 327 326 326 328 331 332 331
328 328 324 337 334 339 339 338 335 333 332 330 331 331 332 331 331 331 331 331 330 329 329 328 327 326 326 326 328 330 331 332 332 332 332 331 330 330 330 329 329 329 330
330 329 332 334 332 336 337 338 338 337 333 334 330 328 328 328 328 328 328 328 328 329 328 328 327 325 325 329 330 330 330 332 332 332 332 332 332 331 330 329 329 329 329
327 330 330 332 330 334 336 337 338 338 335 336 336 333 332 332 330 330 329 332 333 333 331 329 328 328 329 329 329 329 331 332 333 332 332 332 331 331 330 329 329 329 328
329 330 329 328 331 333 334 336 337 338 338 339 339 338 336 335 333 334 334 335 335 333 331 331 331 330 330 329 327 328 330 332 332 332 330 329 329 330 330 330 329 328 327
331 328 329 330 334 333 332 334 335 337 338 338 338 338 339 337 336 334 335 334 334 334 332 331 331 330 330 329 328 330 332 332 331 330 330 330 330 330 330 329 327 327 328
329 327 329 331 334 333 333 334 334 335 334 333 334 335 336 335 334 333 332 333 333 333 333 332 331 330 330 329 330 331 331 331 330 330 330 330 329 329 327 327 327 328 328
329 329 330 329 331 334 334 333 334 334 334 333 334 335 335 335 335 335 335 334 334 334 334 333 332 332 331 331 334 333 331 330 330 330 330 328 327 326 326 325 325 327 326
330 330 328 328 329 331 332 333 333 336 335 335 333 333 334 334 333 334 334 333 333 333 331 330 331 332 332 332 333 332 333 331 328 327 327 327 326 324 324 323 324 324 326
331 330 329 328 330 330 331 332 332 332 333 335 336 334 335 334 335 334 333 333 332 331 331 332 329 331 333 332 330 331 332 332 326 326 327 327 323 323 322 322 322 321 322
330 329 330 328 328 328 331 333 332 329 330 330 330 330 331 330 329 329 332 329 328 328 330 330 330 327 330 330 327 326 326 325 326 326 325 323 321 321 319 320 319 319 320
327 328 327 329 329 329 330 330 330 330 329 329 329 328 331 330 329 329 328 328 327 327 328 327 327 325 327 327 324 325 324 324 323 325 327 320 319 319 319 318 317 317 318
325 326 326 329 329 328 328 328 329 328 330 330 330 328 327 331 332 332 330 329 330 330 329 328 327 326 326 324 324 324 325 326 327 327 325 320 318 318 317 317 316 316 316

GFSSE_925_thetae_096.txt.gz
Theta_e
347 343 343 342 337 333 332 332 340 344 343 345 347 348 345 343 344 341 339 341 343 344 345 343 344 343 342 339 338 339 339 338 335 336 336 336 339 340 340 337 336 335 338
348 343 342 341 344 336 334 332 331 342 344 344 345 347 345 344 343 343 344 344 344 343 344 342 343 340 338 337 336 330 334 327 327 329 329 333 336 338 337 335 336 338 340
348 345 343 343 343 338 336 334 332 332 344 343 343 347 345 345 342 343 344 345 343 339 342 340 343 340 336 330 325 319 320 327 328 329 328 326 332 336 337 338 339 339 339
348 346 346 344 342 339 338 335 331 331 341 343 342 343 344 344 342 342 341 342 337 336 336 339 340 334 323 318 316 316 327 329 330 329 327 327 331 334 334 336 338 338 338
348 346 346 344 343 339 336 335 336 333 341 342 343 343 344 343 341 341 338 341 336 337 337 337 336 325 322 318 318 324 329 330 331 331 330 329 328 333 334 334 334 334 334
348 347 346 344 342 338 339 339 338 334 342 342 343 342 343 341 340 339 340 337 334 336 336 337 334 325 320 320 320 327 329 330 331 330 329 327 328 331 330 331 331 331 329
348 347 346 343 342 338 338 339 338 337 341 342 342 341 342 340 338 337 338 336 335 334 337 337 332 327 322 321 320 327 329 330 330 331 331 326 330 331 330 327 325 326 320
346 346 346 342 342 339 337 340 341 337 338 341 341 341 341 339 336 336 336 335 333 336 337 336 335 330 328 327 325 326 329 330 330 331 330 324 328 331 324 321 320 320 319
346 346 345 341 341 338 335 338 341 340 339 339 340 342 340 338 337 336 335 335 335 336 336 336 335 334 330 327 325 325 330 330 330 330 331 325 327 330 325 324 323 322 322
343 342 344 342 341 338 335 339 341 341 341 340 342 341 339 336 335 336 335 334 335 336 335 333 330 328 328 327 325 325 326 330 330 329 331 326 325 325 325 325 325 325 325
338 334 334 338 341 339 339 336 338 341 341 342 341 339 336 335 334 334 334 335 335 335 332 330 328 326 326 326 325 324 326 328 328 330 330 326 324 325 325 325 326 326 326
334 334 332 331 334 337 341 337 330 339 341 341 340 337 336 333 333 334 334 334 334 334 331 328 325 323 322 324 322 320 326 327 326 327 329 329 323 327 329 328 328 328 328
333 332 332 331 329 330 341 339 334 332 340 336 335 335 334 333 332 335 334 333 334 333 328 324 322 321 325 326 326 326 326 326 326 326 326 324 323 324 329 332 331 330 330
322 322 329 331 331 326 327 338 333 330 333 334 335 332 332 333 332 334 333 332 330 325 325 324 328 327 327 326 327 327 327 328 329 329 329 328 327 326 327 328 329 331 331
326 323 323 326 329 324 325 337 333 331 329 331 331 330 331 332 333 333 329 330 330 326 331 329 329 328 327 326 327 329 330 331 331 331 331 331 330 330 330 330 330 329 329
328 326 324 323 323 325 326 336 331 330 331 333 330 331 332 332 331 332 331 331 331 329 329 328 326 325 325 325 327 329 330 331 332 332 332 331 332 331 330 329 328 328 329
328 328 327 324 324 326 329 335 333 331 330 331 331 331 331 331 330 330 330 329 328 328 328 327 328 327 326 328 329 329 329 331 331 332 332 332 331 330 330 330 330 329 329
330 330 331 333 330 332 329 334 333 333 333 330 328 328 328 328 328 327 328 329 332 333 331 330 328 329 328 329 328 328 329 331 331 330 331 330 329 329 330 330 328 326 325
329 330 330 327 327 325 329 333 333 334 336 335 333 332 332 331 330 330 331 334 334 333 332 331 331 330 330 329 329 327 328 331 330 330 329 329 329 330 330 329 327 326 328
330 328 329 328 325 323 328 332 332 334 336 335 337 337 335 335 334 334 335 335 334 334 333 332 331 330 330 330 329 328 330 330 330 329 329 330 329 329 327 326 325 327 327
328 328 329 328 330 327 333 333 334 334 332 333 335 337 338 337 336 334 332 333 333 332 333 333 332 332 331 330 330 331 332 331 329 331 329 329 327 326 326 324 323 325 325
326 327 330 328 333 333 333 332 332 332 333 333 334 335 335 335 335 334 334 334 334 334 334 333 332 332 332 331 332 331 329 330 330 328 327 326 326 325 324 323 322 323 323
326 328 328 329 330 330 332 331 332 332 332 333 333 333 333 334 333 333 334 333 333 333 333 332 331 331 332 331 331 331 329 327 325 326 326 326 325 322 322 321 321 320 320
327 329 327 327 328 329 330 330 330 329 329 329 330 331 331 331 330 331 330 331 329 330 330 330 331 331 330 329 329 330 328 325 325 325 324 324 322 323 321 319 319 319 319
328 329 328 327 328 328 330 329 329 328 329 329 329 329 330 330 329 328 327 327 327 328 327 329 330 329 325 328 329 327 325 323 323 323 323 324 321 320 319 319 319 316 317
326 326 326 328 328 327 328 329 329 328 328 328 328 329 329 327 328 329 328 328 328 326 328 328 327 328 325 325 327 326 324 324 324 324 323 322 318 318 317 318 317 316 316

GFSSE_925_thetae_099.txt.gz
Theta_e
344 341 337 334 337 339 342 346 345 345 345 345 345 345 343 344 343 332 336 338 342 344 345 344 344 340 338 340 341 341 338 335 335 333 336 338 339 340 337 330 336 338 340
343 336 334 331 332 336 339 344 344 344 344 345 346 346 344 344 343 340 342 343 345 344 344 344 341 337 337 337 334 326 326 328 329 328 334 336 336 338 338 335 339 340 340
343 340 336 332 332 332 334 337 343 342 342 344 346 346 345 344 343 343 344 343 344 343 343 342 338 337 332 319 321 327 328 329 329 329 326 332 336 338 338 339 337 340 340
343 341 339 337 334 333 333 332 334 342 342 343 344 344 344 344 343 344 344 341 342 341 342 340 337 323 318 314 325 327 329 331 329 328 326 327 334 335 337 338 338 338 339
344 342 341 339 335 335 334 334 332 336 342 342 343 342 344 342 342 343 342 337 336 336 339 338 328 318 316 317 328 329 330 330 330 329 328 321 328 334 334 332 333 334 336
345 343 342 342 339 336 336 333 329 332 340 341 342 342 344 341 340 340 339 336 334 334 337 336 323 320 319 323 329 330 330 330 329 329 327 324 327 331 330 331 330 331 329
346 344 343 342 342 337 337 335 334 333 340 341 341 342 343 340 338 339 338 334 335 336 336 333 324 321 320 323 328 329 330 331 330 330 323 324 330 331 330 328 325 322 320
346 346 345 343 342 337 339 337 337 332 340 341 341 342 342 339 337 339 336 334 334 335 333 334 328 323 322 322 328 329 329 330 331 330 323 324 328 330 328 322 321 322 323
347 347 345 343 341 337 338 339 338 336 338 340 340 341 341 338 336 336 335 333 335 336 335 334 332 327 326 325 324 329 330 330 330 331 328 323 328 330 325 324 324 324 323
346 346 345 343 341 338 337 339 340 337 336 339 340 341 340 336 336 335 334 333 335 335 335 334 332 329 327 325 324 327 330 330 329 330 330 323 324 326 325 325 326 326 326
343 345 344 343 340 337 335 338 340 340 338 339 340 341 338 334 335 334 333 333 334 334 334 331 328 326 326 325 323 323 328 329 329 330 330 327 324 325 325 325 326 327 327
337 340 342 343 341 340 338 338 340 341 340 340 341 339 337 336 335 334 333 333 334 334 331 328 326 325 323 322 321 322 327 326 326 327 329 328 323 325 327 328 328 329 329
337 336 338 338 337 338 340 337 335 341 341 341 341 337 335 335 334 334 333 333 333 333 329 327 323 321 323 325 325 325 326 326 325 326 326 325 323 324 327 329 330 330 329
333 335 336 337 336 334 334 337 335 337 341 341 338 336 334 334 333 333 333 333 333 333 329 324 321 321 325 326 326 327 326 326 326 326 328 328 328 326 327 328 329 329 330
331 332 331 332 334 331 332 330 329 334 339 339 337 334 333 333 333 333 333 333 333 330 323 323 327 327 327 326 326 327 328 330 330 330 330 331 331 329 329 330 330 329 329
326 324 323 324 329 333 330 333 331 329 334 335 331 334 332 332 333 333 332 332 328 323 328 329 328 328 327 325 325 327 329 330 331 330 330 331 330 330 330 329 328 328 328
329 329 326 323 323 326 329 328 327 328 330 330 333 330 331 333 332 332 328 327 328 328 329 329 327 325 324 324 327 328 329 329 331 331 330 330 329 330 329 330 329 329 328
329 329 328 326 324 324 326 329 328 328 330 330 330 329 331 332 332 331 330 330 331 329 327 327 327 327 326 328 329 329 328 329 330 331 331 330 330 328 329 330 329 327 325
329 329 329 328 327 326 326 331 331 330 330 331 330 331 332 331 331 330 330 329 328 328 329 329 328 328 328 328 328 328 327 328 330 330 330 328 329 328 329 329 327 325 327
324 328 330 330 331 329 328 333 332 331 330 331 329 329 328 329 330 329 328 328 331 333 331 330 330 330 330 330 329 329 327 328 331 330 330 329 330 329 328 325 325 324 326
323 323 329 329 328 328 329 331 333 332 332 330 329 328 329 328 328 327 329 333 334 333 332 331 331 330 330 330 329 330 330 330 329 329 329 329 327 326 325 325 324 323 323
320 321 327 326 325 327 329 330 332 331 331 329 330 330 333 333 331 333 335 334 334 333 333 332 332 331 330 330 330 331 329 330 331 330 329 327 327 326 323 323 322 322 321
321 321 320 328 325 324 327 330 330 325 329 328 328 329 332 334 335 334 332 333 333 332 333 332 332 331 332 331 331 330 329 329 325 327 327 326 326 325 323 322 321 321 320
325 324 324 328 328 326 327 330 328 328 328 328 329 327 328 328 330 330 331 332 332 332 332 331 331 330 330 331 330 330 330 327 323 325 324 324 322 322 322 321 320 319 319
325 325 326 328 329 329 328 329 328 328 328 327 328 328 329 329 329 329 329 328 327 329 329 328 329 329 330 329 329 327 328 327 324 322 322 322 323 323 321 320 319 318 316
325 326 326 328 328 328 328 328 328 328 328 328 328 328 329 328 328 328 328 327 328 328 327 327 327 328 328 329 327 328 328 325 323 323 321 321 317 319 318 318 318 317 316

GFSSE_925_thetae_102.txt.gz
Theta_e
345 346 345 346 344 345 345 344 343 339 338 340 343 343 339 340 329 329 337 341 343 344 345 344 339 339 339 339 340 339 339 336 335 335 337 338 337 336 337 338 338 339 338
345 345 345 344 346 346 346 344 344 343 342 343 345 345 345 340 332 333 339 342 343 345 344 342 339 338 341 337 336 336 334 329 332 335 335 336 336 338 339 338 339 340 338
344 344 344 344 341 345 345 344 344 343 343 343 344 346 345 343 338 339 341 344 344 344 343 339 337 337 337 336 334 334 333 328 327 330 333 335 336 339 340 336 339 341 340
340 342 343 343 340 341 343 344 343 343 344 343 344 345 346 342 343 345 343 343 343 343 340 338 336 328 325 328 328 329 328 328 328 326 329 333 336 338 338 336 337 337 338
337 336 337 340 338 337 338 343 342 341 343 343 343 343 343 343 344 344 343 342 340 341 338 328 321 316 323 327 329 330 328 327 327 325 323 328 331 335 335 334 335 337 336
338 335 334 335 335 335 334 333 340 342 341 342 343 342 342 342 343 343 340 338 337 339 336 324 317 316 326 328 329 329 329 329 329 325 321 326 328 332 332 331 331 332 333
341 339 338 336 334 334 334 334 333 339 341 341 342 342 342 340 340 340 337 335 335 337 334 321 319 320 327 329 329 330 330 330 329 321 323 327 331 331 331 330 329 329 323
343 342 341 340 337 334 334 333 330 333 340 340 341 342 342 340 339 339 335 333 334 335 334 321 320 320 325 328 329 329 330 330 330 322 323 324 329 331 330 328 324 323 321
344 344 343 342 341 335 336 334 333 330 339 339 340 341 342 339 337 338 334 333 334 334 331 324 321 320 322 328 328 329 330 330 330 329 323 325 329 331 325 324 324 324 324
345 346 345 343 341 336 335 336 336 335 337 340 340 341 341 337 337 336 334 332 335 332 332 329 326 326 324 324 328 329 329 329 329 330 327 323 325 326 325 325 325 326 326
344 345 345 343 342 337 335 338 339 337 335 339 339 340 340 337 337 336 333 333 335 335 334 333 328 325 324 323 325 329 329 329 329 330 328 324 324 325 325 325 327 327 327
339 344 344 343 341 338 339 339 340 339 337 339 340 340 339 336 337 334 333 333 334 335 334 330 327 325 324 323 322 326 327 327 328 329 329 327 323 324 325 327 328 329 328
335 339 338 341 340 338 338 340 341 341 340 339 340 340 336 336 335 334 333 333 333 334 333 329 325 324 321 321 320 324 326 326 325 326 326 326 323 324 326 328 329 329 329
333 337 337 338 339 337 335 338 339 340 340 341 340 340 336 334 335 334 333 333 333 333 330 327 324 321 322 325 325 325 325 325 325 325 327 327 328 325 326 328 329 328 328
332 333 334 336 337 337 336 336 335 338 340 340 340 337 337 335 335 334 333 332 333 333 329 326 321 320 324 325 326 326 327 327 326 329 328 330 330 329 329 329 329 329 329
329 331 332 332 332 335 336 335 334 332 336 338 337 336 336 335 334 334 333 333 332 332 329 325 321 324 326 326 325 326 327 329 329 330 329 330 330 330 330 329 329 328 328
326 328 330 332 331 330 330 332 331 333 333 332 336 335 334 334 333 333 333 333 333 332 328 324 327 328 327 326 325 325 327 329 330 330 330 330 330 329 330 329 329 329 329
320 327 327 325 324 324 330 331 330 331 330 329 331 333 333 333 332 333 333 333 332 330 324 329 328 328 325 325 324 326 328 329 328 330 331 330 330 330 329 329 329 329 327
319 323 328 328 328 327 323 324 327 330 329 328 327 331 332 331 330 325 329 332 329 326 326 329 328 327 325 324 327 328 328 328 329 330 330 330 329 330 329 329 329 326 324
322 325 328 329 328 326 324 324 327 328 327 328 330 329 330 330 331 331 332 327 327 330 329 327 326 327 327 327 327 328 328 327 327 329 330 329 329 328 329 329 326 324 323
326 328 327 328 329 329 328 328 329 329 330 329 329 329 329 330 331 332 331 329 330 329 327 328 329 328 329 330 329 329 328 327 327 329 329 329 328 329 328 325 324 322 321
323 322 323 327 328 329 329 330 331 331 330 329 328 329 329 330 331 330 330 330 327 327 331 331 330 330 330 329 329 329 329 330 331 330 329 329 329 327 325 324 322 321 322
322 321 319 320 325 326 328 329 331 331 331 330 330 329 329 329 330 329 329 327 329 331 332 331 331 330 330 330 329 329 328 329 325 328 329 328 327 325 324 323 322 322 321
321 321 319 318 318 319 326 329 328 330 330 330 329 329 329 329 328 328 327 331 333 333 332 332 332 332 331 330 329 330 330 328 325 325 324 324 324 323 322 322 321 320 319
322 322 321 321 320 322 325 328 327 327 327 328 327 327 328 328 328 328 330 331 332 332 330 329 330 329 328 328 329 328 328 327 324 322 322 322 322 322 322 321 320 319 318
324 323 323 325 325 325 326 328 327 327 325 327 326 326 326 326 326 327 328 328 327 327 327 327 328 328 329 329 329 329 328 326 323 322 319 320 320 319 319 319 318 318 317

GFSSE_925_thetae_105.txt.gz
Theta_e
345 346 343 347 347 347 341 339 342 340 340 343 345 343 341 339 333 331 336 336 342 345 343 340 339 337 340 340 341 339 338 338 337 339 338 335 337 339 339 336 338 335 336
345 346 344 345 347 346 345 345 339 338 340 345 345 344 341 337 334 339 341 343 344 344 342 339 339 338 337 338 339 336 336 334 335 334 335 335 337 339 340 338 337 338 337
344 346 345 344 346 345 345 344 340 339 341 344 345 345 343 338 335 342 343 343 344 344 341 338 338 337 336 336 335 334 331 332 334 333 335 338 339 338 339 339 340 341 340
344 345 344 343 345 345 344 344 342 341 341 341 342 343 344 340 339 343 344 344 344 342 339 337 337 336 336 335 333 329 328 325 326 332 332 336 338 337 337 336 336 337 338
344 344 343 343 343 344 344 343 343 342 341 341 343 344 344 342 343 343 344 343 342 340 337 331 330 329 330 332 332 328 327 327 323 325 329 333 334 335 334 335 336 335 334
344 343 341 342 341 343 344 344 343 342 343 342 342 343 342 341 344 344 343 341 341 336 319 318 318 327 330 331 330 328 328 328 323 321 325 326 330 333 332 331 329 332 333
343 342 339 339 337 337 341 342 342 341 341 342 342 342 341 342 343 343 341 339 339 336 320 315 320 327 329 329 329 329 329 328 320 322 323 327 331 331 330 330 328 325 322
341 341 342 339 334 332 332 333 339 341 340 340 342 341 341 341 342 341 337 336 336 335 321 317 319 327 329 329 329 329 330 329 322 322 323 326 331 332 331 324 323 323 321
342 343 342 339 336 333 332 332 331 335 341 339 341 340 341 339 341 338 335 334 336 335 321 319 320 327 328 328 329 329 329 329 325 322 323 325 328 332 326 324 325 325 324
343 343 343 341 338 337 335 333 330 330 338 340 339 340 341 339 339 336 334 333 334 333 323 320 320 322 327 328 328 329 329 329 329 327 323 324 326 327 325 325 326 326 325
341 343 343 343 341 338 336 335 331 331 333 339 339 340 340 339 338 336 334 332 333 334 325 322 323 322 324 326 329 329 329 328 329 329 326 323 324 325 324 325 327 326 326
336 341 342 343 341 339 337 337 337 337 333 340 339 340 340 339 337 335 333 332 335 332 328 327 326 324 323 323 327 328 328 328 328 329 328 326 324 325 325 326 327 328 328
328 335 337 339 340 339 336 339 340 339 337 338 339 339 340 339 338 337 333 334 335 334 333 330 327 325 324 323 323 327 327 326 326 326 327 326 323 326 325 326 328 329 328
325 331 335 337 336 339 336 335 338 340 339 338 339 339 340 338 337 334 333 333 335 334 334 331 326 324 323 322 321 322 326 325 325 325 326 326 326 326 327 327 329 329 328
322 327 332 334 336 338 337 334 336 338 340 338 339 340 340 337 337 334 333 332 334 334 334 330 325 324 321 323 324 324 325 325 325 325 326 328 328 328 327 328 329 329 329
315 324 330 333 334 335 336 335 335 336 338 338 339 340 339 336 336 334 333 332 333 333 333 329 324 321 321 324 325 325 326 326 327 326 328 328 329 329 329 329 328 329 332
310 317 328 331 333 333 334 335 335 334 335 335 336 337 337 335 335 334 333 332 332 333 332 329 327 321 321 324 325 325 326 327 328 328 329 330 329 329 329 329 329 329 329
311 315 323 329 332 332 333 333 334 333 334 335 336 336 337 335 334 334 334 333 332 332 331 331 327 323 326 327 326 325 325 326 328 329 330 330 330 329 329 329 329 329 329
313 315 319 326 330 332 332 332 331 331 333 334 333 336 335 335 333 334 332 332 332 332 332 331 326 326 328 327 326 324 325 327 328 328 328 330 330 330 330 329 329 329 328
308 314 318 324 325 325 324 326 329 330 330 330 330 330 332 333 334 329 330 329 331 332 332 331 326 328 328 326 324 325 327 328 327 327 329 330 330 329 329 330 329 329 324
308 314 320 324 327 327 326 325 325 326 327 326 328 330 330 332 332 328 329 329 325 327 330 329 325 328 326 326 326 327 327 328 327 326 327 327 329 329 329 328 329 326 322
311 316 322 326 328 326 326 325 325 325 326 326 327 328 329 330 331 325 329 327 325 327 329 326 327 326 326 328 328 328 327 328 329 328 327 328 328 328 329 329 326 323 322
319 322 325 327 326 327 328 327 327 328 328 328 328 327 328 329 330 329 330 329 326 325 327 329 328 327 328 328 329 328 327 328 325 328 329 329 329 328 328 326 324 323 322
320 322 324 322 323 326 326 328 328 329 329 330 329 328 328 328 329 329 330 331 326 325 329 329 328 329 329 329 328 329 329 328 325 324 324 325 326 326 325 323 323 322 321
318 320 321 321 322 322 321 324 329 329 330 330 330 329 329 328 328 329 328 329 328 327 328 327 330 329 330 330 329 328 328 328 326 322 323 321 323 323 323 322 321 321 319
318 319 320 319 318 319 321 323 327 328 328 328 328 328 328 328 328 328 328 328 328 328 328 327 327 329 328 327 328 328 327 326 325 322 320 320 320 321 321 322 321 318 317

GFSSE_925_thetae_108.txt.gz
Theta_e
345 347 342 346 345 345 345 346 347 347 344 346 348 346 343 341 340 339 338 339 343 343 339 339 336 342 339 338 338 338 338 339 339 335 333 337 340 339 339 333 331 336 337
345 347 342 345 346 346 345 345 345 345 346 347 349 347 344 341 339 340 340 342 344 342 338 338 339 338 341 339 336 337 338 335 332 332 333 338 339 339 337 336 336 337 336
345 347 342 344 345 346 345 345 345 345 345 345 347 346 342 340 341 341 343 344 344 342 339 338 336 337 337 336 335 335 335 333 333 334 337 337 336 339 339 338 339 340 340
345 347 342 344 345 345 345 344 344 343 344 344 344 344 342 340 342 343 343 344 343 340 338 338 335 335 335 335 333 331 328 331 331 334 337 337 337 338 337 336 335 336 337
346 346 344 344 345 345 344 343 344 343 343 343 343 343 341 338 342 344 343 343 341 338 337 337 336 336 331 328 328 328 325 322 327 329 333 333 332 335 336 335 335 334 334
346 346 343 343 345 344 344 343 341 341 339 339 341 343 340 340 342 344 343 343 340 337 336 335 332 331 330 329 328 328 326 322 321 323 324 328 331 334 333 332 333 333 333
346 345 343 342 343 344 344 343 342 341 340 340 342 343 341 340 341 343 342 341 338 324 327 323 330 331 330 329 328 327 327 322 319 321 322 325 330 331 330 329 329 323 325
344 344 343 342 342 343 344 343 342 341 341 341 341 341 340 341 343 343 341 340 338 320 318 321 328 330 329 328 328 328 328 322 321 322 324 325 330 332 330 324 323 324 323
342 340 342 341 341 340 343 342 341 339 340 341 341 341 340 339 340 342 340 338 337 328 317 320 327 328 328 329 329 329 328 324 321 322 323 324 329 332 327 324 325 325 324
341 340 339 340 339 340 336 338 339 340 339 339 340 341 340 339 340 340 337 335 335 333 317 319 326 327 328 328 328 329 328 328 326 323 324 325 329 332 326 325 326 326 325
333 341 340 340 339 339 336 335 334 336 339 340 339 340 340 340 340 338 335 334 335 333 319 319 323 326 327 328 328 328 329 328 328 327 323 324 327 331 326 326 326 326 326
312 325 341 340 339 339 338 336 335 333 336 340 339 339 340 340 339 337 334 333 334 333 323 320 320 322 326 327 328 328 328 327 328 328 327 325 325 331 326 326 327 327 327
309 314 327 340 341 339 338 336 336 335 334 338 339 339 340 340 338 337 334 333 333 333 329 324 325 324 323 323 326 328 328 327 327 327 327 326 324 331 328 326 327 328 328
308 310 318 330 337 339 340 337 335 335 336 335 339 339 339 340 338 337 334 332 333 334 330 328 327 325 323 322 323 326 326 326 325 325 326 326 326 326 333 328 328 329 329
308 310 314 324 333 336 337 337 335 335 334 335 336 339 338 340 338 336 333 332 335 335 334 333 330 326 324 323 322 322 323 325 325 324 324 327 327 327 327 330 331 330 330
307 308 312 321 330 333 336 337 335 334 334 335 335 337 339 339 338 337 335 332 333 335 334 334 332 327 325 322 322 323 323 324 325 325 324 326 328 328 328 328 330 330 332
307 308 310 314 327 332 334 336 336 335 333 333 335 336 338 339 338 336 335 333 332 333 334 334 333 328 324 321 323 324 325 325 326 327 327 328 328 328 328 329 328 329 329
307 309 309 311 324 329 331 335 336 335 334 333 335 335 335 336 337 335 334 333 333 332 333 333 332 328 325 321 322 324 325 325 326 327 328 329 329 329 328 329 329 329 329
307 309 309 312 321 328 330 333 335 335 334 334 334 334 335 336 336 335 334 333 332 332 332 332 332 330 327 323 325 326 326 325 325 326 328 328 329 330 330 329 329 328 329
307 309 312 314 317 326 330 331 332 332 333 332 333 334 334 335 335 334 334 334 333 332 331 331 331 331 330 324 326 326 324 324 324 327 327 327 328 329 330 329 329 328 328
308 309 308 310 316 323 328 328 328 328 330 332 332 333 334 334 334 334 333 334 333 322 325 331 331 331 330 326 326 325 324 326 327 327 327 326 327 328 329 328 329 329 328
307 308 309 311 317 321 325 327 327 326 328 329 329 330 330 331 332 333 333 331 331 330 325 321 326 328 328 325 326 326 326 327 327 328 327 326 327 327 328 328 328 328 329
307 308 308 311 319 322 325 325 325 325 325 325 325 326 325 326 330 331 331 331 329 325 322 322 325 326 326 325 326 328 326 328 325 327 328 328 327 327 328 328 328 328 325
310 309 310 315 322 325 326 325 325 325 326 326 326 327 326 326 328 329 331 330 328 327 325 322 320 325 327 326 326 327 328 326 325 326 325 326 327 328 328 327 326 324 323
312 314 315 320 323 325 326 326 326 326 326 326 327 327 327 327 326 327 329 329 327 328 325 323 323 323 326 327 327 328 327 327 326 322 324 322 324 325 326 326 323 322 322
315 315 317 320 321 323 325 326 326 326 326 327 329 329 329 328 327 328 328 329 328 327 325 325 323 321 327 327 327 327 328 325 324 324 320 320 321 324 323 322 322 322 321

GFSSE_925_thetae_111.txt.gz
Theta_e
345 348 346 344 345 345 344 345 347 347 347 344 349 349 344 343 340 338 341 342 340 339 338 336 338 342 341 338 337 339 340 340 332 334 337 339 340 340 329 328 333 337 339
345 348 345 345 345 341 343 345 346 347 344 345 348 348 345 342 341 340 341 343 342 339 338 342 343 340 337 336 338 338 338 332 327 335 337 338 338 339 335 333 334 336 337
345 348 346 345 345 344 342 344 345 345 345 346 347 346 347 342 339 339 342 344 342 339 338 340 339 340 337 336 337 338 336 332 331 335 335 340 341 340 339 338 339 339 340
345 348 347 345 345 345 343 343 343 344 345 346 346 346 343 342 341 341 344 343 341 339 336 335 337 337 336 335 335 335 332 332 335 336 336 338 338 338 337 337 337 336 337
345 347 344 343 345 345 344 343 344 343 343 344 343 343 341 342 342 344 344 342 340 338 337 335 336 336 335 332 326 325 329 330 332 335 334 334 336 335 334 336 335 335 334
345 347 343 344 345 345 344 343 343 343 343 342 342 341 339 338 342 344 342 342 340 336 337 335 336 332 329 328 329 326 320 322 327 329 330 330 333 335 334 334 334 333 331
344 346 344 344 344 344 344 343 343 343 341 342 342 342 339 336 341 344 342 341 338 334 335 336 334 329 329 329 331 327 322 319 321 322 323 326 331 332 330 329 328 328 328
342 345 344 343 343 343 343 342 341 340 338 338 341 342 341 336 342 343 342 341 337 326 332 334 329 329 329 329 327 326 323 319 320 322 323 327 331 332 331 329 327 326 325
343 344 342 342 342 342 342 342 341 340 340 339 341 342 342 338 338 342 341 340 332 319 321 329 329 329 328 328 327 327 324 320 321 323 324 329 331 333 331 327 327 327 325
322 341 341 338 340 340 341 342 342 341 340 340 341 340 341 339 339 340 341 339 337 322 318 326 329 328 328 328 328 328 327 322 322 323 324 327 331 333 330 327 327 326 325
309 313 338 340 339 340 339 341 341 340 339 339 340 340 340 340 340 340 340 338 336 332 318 323 329 328 328 327 328 328 328 328 326 323 323 325 329 333 330 326 327 326 326
307 308 311 336 340 339 338 337 337 339 340 340 340 340 341 340 340 341 338 335 334 333 323 320 326 328 328 328 328 328 328 327 327 327 325 324 326 333 330 326 327 327 327
306 307 308 314 336 340 338 336 334 334 335 337 338 339 340 340 339 339 338 335 336 334 329 325 326 330 327 327 327 328 328 327 327 327 327 326 325 331 332 326 326 328 328
305 306 307 310 319 335 340 338 335 334 333 332 337 338 338 340 340 339 337 337 336 335 333 322 323 323 325 325 325 327 327 327 326 325 326 326 325 325 333 331 327 328 329
306 305 307 308 314 326 335 339 338 336 334 331 331 335 338 339 339 339 336 334 336 334 333 328 327 327 326 325 324 323 326 326 325 324 324 326 326 326 327 335 335 334 333
305 305 306 307 310 319 333 336 338 337 335 334 333 333 338 338 338 339 336 334 333 333 334 331 329 330 328 326 324 322 321 321 324 324 324 324 326 327 327 327 330 331 332
305 305 305 306 308 312 326 333 335 337 336 335 334 332 334 339 338 339 337 333 333 334 335 334 333 332 328 325 323 321 323 323 324 324 326 325 326 327 327 328 328 328 330
305 306 306 306 308 310 321 330 335 336 336 335 334 334 332 335 336 337 337 335 333 333 334 334 334 333 331 326 323 321 322 324 324 325 326 327 328 329 329 328 328 328 328
307 307 307 307 310 310 313 327 330 336 337 335 334 333 334 334 335 336 336 335 335 332 332 333 333 333 331 327 326 322 322 325 325 324 325 326 328 328 329 330 329 328 328
307 308 307 307 308 313 318 328 329 330 333 335 334 333 334 335 335 335 335 334 333 332 332 332 333 332 331 329 329 324 324 326 326 325 324 325 327 328 328 329 330 329 328
307 308 308 308 309 313 322 325 328 329 331 334 334 334 333 334 334 335 334 333 333 332 332 331 329 327 328 330 328 327 325 327 326 323 324 325 327 327 327 328 329 328 328
307 307 308 308 311 311 321 325 329 329 329 331 332 332 333 333 333 333 334 332 332 332 331 332 327 325 326 330 328 325 328 327 326 325 325 327 327 326 326 326 328 328 328
306 307 307 307 310 312 316 323 327 328 327 327 328 330 332 332 333 333 333 333 332 332 331 330 326 327 327 327 327 326 329 331 326 326 327 326 327 327 326 327 327 328 327
308 308 307 307 310 315 313 322 325 326 326 326 325 327 328 329 329 330 331 330 331 331 330 328 325 326 326 326 325 325 326 327 330 329 325 326 327 327 327 327 328 327 327
311 311 309 308 311 316 320 321 323 325 325 325 325 325 325 325 325 325 327 329 328 329 329 327 326 325 324 324 324 325 325 326 326 325 329 326 325 325 325 326 326 326 326
317 316 312 313 316 317 319 321 323 324 325 325 326 326 326 326 327 327 326 327 328 328 328 327 326 324 324 323 324 325 326 326 326 325 326 325 324 325 326 326 324 324 324

GFSSE_925_thetae_114.txt.gz
Theta_e
348 349 347 347 346 345 344 345 345 344 345 344 348 347 345 343 336 338 343 338 339 338 338 338 341 343 340 340 341 341 341 341 340 338 338 341 341 336 334 336 338 339 340
347 348 347 347 346 344 343 343 344 344 347 345 348 347 348 342 340 340 343 342 340 338 338 339 343 342 339 340 340 340 338 331 334 337 337 338 334 334 328 332 333 335 339
347 349 348 345 345 345 344 344 346 347 346 346 347 347 347 344 341 340 344 343 340 338 342 343 341 338 338 339 338 338 332 329 335 338 340 341 341 340 339 338 339 340 340
347 349 348 346 344 340 342 343 345 346 344 346 346 346 346 343 340 340 344 343 339 338 341 340 340 337 336 338 337 337 331 330 334 336 338 339 338 339 339 339 338 337 337
348 350 347 347 344 343 341 343 344 344 344 345 345 345 344 342 341 341 344 342 339 337 337 336 336 337 330 335 336 334 331 334 335 335 335 336 335 336 337 336 336 335 334
348 349 348 346 345 344 343 342 342 343 344 344 344 344 341 340 342 345 343 341 339 337 337 334 333 331 330 327 327 327 329 330 332 334 332 333 333 335 335 335 334 333 331
345 348 348 343 343 344 344 343 343 343 342 342 342 341 339 340 340 344 342 341 339 336 337 332 335 329 328 328 330 325 320 325 329 329 331 331 332 333 332 331 330 330 330
342 344 347 345 343 343 344 343 342 343 342 343 342 342 340 336 340 343 341 341 339 333 335 336 333 331 329 330 333 325 320 320 326 328 329 331 331 333 332 331 329 328 327
329 343 346 345 344 342 342 342 342 343 342 341 341 341 342 336 338 343 341 341 338 329 330 332 332 331 330 331 328 325 320 321 327 328 329 331 330 334 332 328 328 327 326
314 323 340 344 343 343 344 341 341 340 340 338 339 341 342 339 337 338 340 341 337 322 326 329 329 330 330 331 328 327 322 321 328 329 329 331 331 334 330 328 327 326 326
313 314 320 337 343 342 342 343 342 340 340 339 340 341 341 342 341 341 340 341 337 323 322 326 329 329 329 330 329 328 327 328 328 328 329 327 330 334 331 327 327 326 326
312 312 313 318 335 342 342 342 342 342 342 341 342 342 342 341 341 341 341 339 338 333 322 324 329 329 328 331 331 329 330 330 329 329 328 324 326 334 333 328 327 327 327
310 311 312 313 321 337 342 342 339 339 341 340 340 340 340 340 340 341 341 339 339 335 333 328 331 331 331 330 330 329 330 330 328 329 329 326 325 331 334 330 327 328 328
309 310 310 311 315 325 338 341 340 338 337 339 340 340 340 340 339 340 340 340 339 337 335 331 329 329 331 330 329 329 329 329 328 328 328 326 325 325 334 334 331 328 329
309 309 310 311 313 320 331 336 340 339 338 338 339 339 338 339 339 339 339 339 338 337 336 333 330 330 329 328 327 326 327 327 327 326 326 325 326 326 326 334 335 334 332
309 309 309 310 311 317 324 335 337 340 340 338 339 338 338 337 338 338 338 338 338 337 337 335 330 328 329 328 327 325 325 324 325 325 325 326 325 327 327 327 330 332 333
310 309 309 310 310 313 321 329 337 340 340 340 340 338 337 338 338 338 338 337 337 337 336 335 334 331 330 328 327 325 324 324 323 324 325 327 326 325 327 328 328 328 329
310 310 309 309 309 311 317 324 333 335 339 339 339 338 337 336 338 338 338 337 337 337 337 335 335 333 331 329 327 326 324 324 325 325 325 326 328 327 328 328 328 328 328
310 310 310 311 311 310 315 320 328 332 334 337 338 337 335 334 335 336 338 337 337 337 336 334 334 334 334 332 330 327 325 324 325 326 325 325 327 328 329 330 329 329 328
311 310 310 311 311 310 314 320 326 332 332 335 337 337 335 334 335 337 337 337 337 336 336 334 333 333 333 332 331 328 326 324 325 327 327 326 326 327 329 330 330 330 330
311 311 311 311 311 312 312 319 324 329 330 332 336 337 336 335 334 335 336 335 335 335 335 335 334 334 332 332 331 329 328 327 326 327 327 326 325 327 328 329 328 329 329
311 311 311 311 312 312 312 316 321 326 329 331 333 335 336 335 334 334 334 335 335 334 335 335 334 333 333 331 330 328 327 325 326 326 326 326 325 326 328 327 328 327 328
312 311 311 312 312 312 313 317 322 325 328 331 330 332 336 335 335 333 334 334 334 334 334 332 333 334 331 330 328 327 328 329 326 328 327 327 327 327 328 327 326 326 327
315 314 312 312 311 311 313 317 321 324 326 328 329 330 333 333 333 333 333 333 332 332 332 334 334 334 332 330 328 328 328 327 329 330 327 326 328 328 328 327 327 327 327
317 315 315 313 311 311 313 315 317 321 325 327 329 331 332 332 332 333 332 333 332 332 331 331 331 332 332 331 330 328 328 329 327 329 327 328 326 325 326 325 325 326 326
316 319 319 315 313 312 314 316 317 319 323 326 328 329 329 329 328 328 329 330 331 331 330 329 330 330 330 330 329 328 327 327 328 328 328 328 329 327 326 325 324 326 326

GFSSE_925_thetae_117.txt.gz
Theta_e
347 349 347 348 345 348 348 347 345 345 345 345 348 345 344 340 333 337 338 340 338 339 338 340 342 342 342 342 342 342 342 340 337 337 342 337 336 336 337 338 339 338 339
345 348 347 347 346 347 346 347 345 344 345 346 347 346 345 340 336 343 342 341 340 339 339 342 343 340 341 341 341 340 337 333 336 336 336 328 328 329 333 333 334 339 341
346 348 348 347 345 345 344 344 344 344 346 345 346 346 346 341 339 343 343 343 339 339 340 343 342 341 341 338 339 339 335 334 336 339 340 340 341 338 337 338 340 339 340
347 349 349 348 345 344 343 344 344 344 347 345 346 346 346 344 339 341 344 344 339 340 343 342 339 337 337 338 338 338 331 335 338 340 339 339 339 340 340 339 339 337 337
348 349 349 348 344 344 343 343 344 346 345 344 345 344 345 344 340 337 344 341 339 338 340 340 339 333 334 336 336 332 331 332 334 335 336 336 335 338 337 336 334 333 332
347 348 348 348 345 342 339 342 343 344 343 344 345 344 344 343 341 338 343 341 339 336 338 336 336 332 330 334 333 330 331 334 335 333 334 333 336 335 335 330 325 329 331
342 346 347 347 346 344 341 341 343 342 343 343 344 344 343 341 339 341 343 341 339 337 336 334 329 328 329 329 328 324 326 328 331 331 331 332 333 333 332 329 327 329 329
333 343 347 347 343 344 343 343 341 342 342 342 342 342 340 340 338 343 342 341 339 337 336 330 327 328 329 330 333 326 319 324 328 328 330 333 330 333 333 328 327 327 327
321 336 345 347 345 342 342 343 342 341 342 342 341 341 340 338 337 341 341 341 340 336 334 330 331 330 329 332 333 326 320 322 328 329 330 332 329 334 331 328 328 327 325
317 320 328 343 345 345 344 342 342 341 342 341 342 340 340 339 337 338 339 341 340 334 329 329 331 331 329 330 328 326 320 323 329 329 329 333 327 334 330 328 328 327 325
316 316 318 327 342 343 343 344 342 341 341 341 340 338 340 343 341 340 339 341 340 333 324 328 330 331 329 330 329 327 324 326 328 328 329 331 327 334 332 328 328 327 326
314 315 315 317 323 340 343 342 343 343 343 342 342 342 341 342 341 340 340 339 340 332 322 327 329 330 328 332 331 328 328 330 329 329 329 329 325 334 334 328 327 327 327
312 312 314 314 316 324 341 343 342 342 342 342 341 341 341 340 339 341 340 340 339 333 332 331 334 333 331 330 330 331 330 330 329 329 329 328 324 327 335 332 327 327 327
311 311 312 313 313 316 328 341 342 340 341 340 339 339 339 339 338 340 340 340 340 338 336 333 331 331 331 330 330 330 329 329 329 328 329 328 325 324 329 335 333 327 327
310 311 312 312 313 314 320 334 341 342 338 338 339 339 340 339 338 338 340 340 340 339 336 334 331 329 329 331 330 329 328 328 328 327 327 327 325 325 325 328 335 335 333
312 312 312 312 312 313 315 324 336 341 341 338 338 338 339 338 338 338 337 339 339 338 337 335 332 330 329 330 328 327 326 326 326 326 326 326 326 325 326 327 327 333 336
312 312 312 312 312 312 313 319 327 336 340 340 339 339 338 339 338 337 336 337 339 338 337 336 334 330 328 328 328 327 326 325 325 324 324 326 327 327 325 327 327 327 328
313 313 312 312 311 311 311 314 322 332 336 340 340 340 339 338 337 338 338 338 337 337 337 336 336 332 330 329 328 327 326 325 325 324 325 325 326 328 327 327 327 328 328
314 313 313 312 312 311 310 312 318 326 333 337 339 339 340 338 337 336 337 338 337 336 336 335 335 334 332 329 329 328 327 326 324 325 325 326 326 327 329 330 330 329 329
314 314 313 313 312 313 312 311 316 322 332 333 336 339 340 339 336 337 336 337 337 337 336 336 336 335 334 333 332 331 328 327 325 324 325 326 326 326 327 329 330 330 330
314 313 313 313 313 313 313 312 315 321 328 331 334 337 338 338 337 337 335 333 335 337 336 336 336 335 335 334 333 333 330 328 326 324 325 326 327 326 326 327 329 331 330
315 314 314 313 313 313 313 313 313 320 325 329 331 334 338 337 337 336 336 335 337 337 336 336 336 335 335 334 333 331 332 330 329 328 326 326 327 327 326 326 329 329 330
316 315 314 314 314 313 313 313 314 318 323 326 330 332 334 335 336 336 336 335 335 335 334 336 335 335 334 334 332 332 331 331 326 326 326 327 326 326 327 327 328 328 328
313 317 317 315 314 314 313 313 314 319 323 326 329 331 333 334 336 336 335 335 335 334 334 335 335 335 335 335 334 332 330 329 331 330 327 328 328 328 328 328 328 328 327
310 313 317 317 315 314 313 313 315 318 321 323 326 328 330 333 334 334 334 334 335 334 334 334 334 333 334 334 333 332 330 330 329 330 330 328 328 327 328 329 329 328 327
310 313 316 319 318 315 313 313 314 316 319 321 325 327 329 331 331 332 331 333 332 332 331 331 332 332 333 332 332 332 331 330 330 330 330 328 327 326 327 326 326 325 325